Date StartTime U_cm/s V_cm/s W_cm/s Ustd_cm/s Vstd_cm/s Wstd_cm/s Uvar_(cm/s)^2 Vvar_(cm/s)^2 Wvar_(cm/s)^2 KE_(m/s)^2 TurbulentKE_(m/s)^2 HorizWindSpeed_cm/s FrictionSpeec_cm/s DragCoef SpeedOfSound_m/s SonicTemperature_C Pressure_mb 
07/01/2014  00:00:00     -118.231      -59.143       -4.072       21.902       22.301       15.044      479.696      497.349      226.329        0.935        0.060      132.198        8.186        0.004      345.972       23.884      860.586
07/01/2014  00:01:00     -141.996      -56.478       -8.815       27.100       28.295       13.999      734.385      800.613      195.975        1.258        0.087      152.815       12.861        0.007      345.962       23.867      860.585
07/01/2014  00:02:00     -154.725      -82.135       -9.683       25.216       26.836       20.672      635.868      720.149      427.334        1.628        0.089      175.174       11.235        0.004      345.831       23.643      860.582
07/01/2014  00:03:00      -93.085      -61.438        4.605       53.113       35.964       25.092     2820.948     1293.432      629.616        0.860        0.237      111.532       26.744        0.057      345.811       23.609      860.563
07/01/2014  00:04:00     -103.915      -60.040       -3.807       46.115       32.774       25.474     2126.577     1074.107      648.945        0.913        0.192      120.014       21.709        0.033      345.849       23.675      860.565
07/01/2014  00:05:00      -56.658      -41.227        0.988       50.661       33.207       20.269     2566.553     1102.699      410.817        0.449        0.204       70.070       25.265        0.130      345.822       23.626      860.576
07/01/2014  00:06:00      -22.282      -46.699        7.035       49.786       33.449       25.195     2478.660     1118.845      634.784        0.348        0.212       51.742       29.408        0.323      345.665       23.358      860.578
07/01/2014  00:07:00      -75.509      -61.672       -4.502       38.652       39.414       26.930     1493.960     1553.465      725.231        0.665        0.189       97.494       23.164        0.056      345.899       23.761      860.573
07/01/2014  00:08:00      -71.492      -65.997        4.971       47.917       42.097       28.728     2296.056     1772.184      825.285        0.719        0.245       97.297       27.104        0.078      345.869       23.708      860.578
07/01/2014  00:09:00     -102.591     -100.243       -3.249       44.013       29.001       22.271     1937.105      841.072      495.983        1.193        0.164      143.435       21.470        0.022      345.957       23.858      860.580
07/01/2014  00:10:00     -151.754      -78.586      -11.111       36.608       35.793       22.676     1340.123     1281.149      514.194        1.623        0.157      170.895       18.913        0.012      345.903       23.766      860.568
07/01/2014  00:11:00     -128.287      -86.514       -3.284       40.116       31.032       21.957     1609.331      963.009      482.108        1.350        0.153      154.733       18.126        0.014      345.813       23.611      860.560
07/01/2014  00:12:00      -75.945      -69.777        6.376       42.626       29.011       26.672     1816.991      841.663      711.403        0.702        0.169      103.134       22.489        0.048      345.728       23.465      860.555
07/01/2014  00:13:00      -82.675      -85.906        5.130       47.291       41.768       24.682     2236.410     1744.606      609.207        0.942        0.230      119.227       22.085        0.034      345.725       23.461      860.563
07/01/2014  00:14:00      -91.649      -82.702        1.583       48.870       31.611       26.303     2388.278      999.249      691.843        0.966        0.204      123.447       21.445        0.030      345.740       23.487      860.574
07/01/2014  00:15:00      -95.097      -84.075       -2.901       50.715       35.796       28.172     2572.048     1281.319      793.637        1.038        0.232      126.933       28.078        0.049      345.762       23.524      860.571
07/01/2014  00:16:00     -102.611      -87.543        9.738       49.639       41.198       32.137     2464.043     1697.279     1032.772        1.174        0.260      134.881       28.031        0.043      345.775       23.546      860.570
07/01/2014  00:17:00     -109.311     -100.174        0.871       53.458       47.876       30.545     2857.709     2292.153      932.967        1.403        0.304      148.269       30.507        0.042      345.738       23.484      860.556
07/01/2014  00:18:00     -134.851      -87.003       -4.734       45.913       39.385       25.166     2108.014     1551.189      633.303        1.503        0.215      160.482       25.882        0.026      345.745       23.495      860.541
07/01/2014  00:19:00     -104.547      -79.509       -2.314       44.806       34.737       26.435     2007.551     1206.650      698.790        1.058        0.196      131.346       28.298        0.046      345.720       23.453      860.538
07/01/2014  00:20:00     -132.625      -83.276      -10.993       23.760       21.868       17.209      564.525      478.213      296.137        1.299        0.067      156.602       15.577        0.010      345.746       23.497      860.532
07/01/2014  00:21:00     -133.484      -66.579       -4.349       18.943       21.548       14.589      358.840      464.297      212.836        1.165        0.052      149.167       13.678        0.008      345.753       23.509      860.520
07/01/2014  00:22:00     -139.571      -71.176       -9.465       17.569       19.863       12.797      308.663      394.552      163.754        1.275        0.043      156.672        9.934        0.004      345.724       23.460      860.525
07/01/2014  00:23:00     -140.598      -68.493       -3.005       19.972       16.997       14.528      398.866      288.890      211.066        1.268        0.045      156.394        8.040        0.003      345.649       23.329      860.515
07/01/2014  00:24:00     -110.609      -69.058       -4.164       28.369       16.332       12.815      804.782      266.744      164.214        0.913        0.062      130.397        5.406        0.002      345.682       23.385      860.516
07/01/2014  00:25:00     -100.646      -55.749       -3.078       18.337       18.771       14.376      336.262      352.350      206.657        0.707        0.045      115.054       10.536        0.008      345.666       23.357      860.530
07/01/2014  00:26:00      -72.661      -47.332       -6.345       38.657       18.972       17.341     1494.332      359.954      300.725        0.486        0.108       86.718       18.184        0.044      345.703       23.422      860.529
07/01/2014  00:27:00      -10.216      -82.279       -8.149       26.647       43.134       18.903      710.055     1860.527      357.333        0.493        0.146       82.911       15.924        0.037      345.804       23.597      860.542
07/01/2014  00:28:00      -60.997      -79.221       -6.351       39.124       36.198       26.361     1530.702     1310.265      694.919        0.679        0.177       99.983       18.151        0.033      345.764       23.528      860.542
07/01/2014  00:29:00     -140.124      -58.096       -4.616       36.014       36.528       25.946     1296.987     1334.296      673.213        1.317        0.165      151.690       14.184        0.009      345.673       23.372      860.507
07/01/2014  00:30:00     -132.233      -97.770       -1.264       54.174       43.908       33.189     2934.815     1927.900     1101.492        1.650        0.298      164.452       35.423        0.046      345.508       23.087      860.491
07/01/2014  00:31:00     -130.830      -95.863        4.649       59.154       46.370       34.706     3499.221     2150.161     1204.514        1.659        0.343      162.192       34.195        0.044      345.483       23.044      860.497
07/01/2014  00:32:00     -116.852      -92.508        3.664       45.527       45.067       26.957     2072.736     2030.993      726.706        1.353        0.242      149.037       26.659        0.032      345.498       23.070      860.498
07/01/2014  00:33:00      -87.373      -72.555       13.622       64.581       38.546       35.664     4170.656     1485.799     1271.913        1.000        0.346      113.571       31.303        0.076      345.471       23.023      860.500
07/01/2014  00:34:00     -161.295     -111.466      -17.882       57.281       53.647       35.892     3281.070     2878.018     1288.244        2.310        0.372      196.063       35.158        0.032      345.351       22.818      860.508
07/01/2014  00:35:00     -170.348     -135.552      -10.936       44.921       51.823       39.154     2017.890     2685.644     1533.029        2.687        0.312      217.699       26.513        0.015      345.252       22.645      860.513
07/01/2014  00:36:00     -145.412     -114.388      -10.535       54.720       50.559       28.496     2994.298     2556.223      812.010        2.035        0.318      185.011       27.382        0.022      345.292       22.715      860.508
07/01/2014  00:37:00     -158.677      -86.237       -3.925       52.402       34.370       30.169     2746.019     1181.281      910.141        1.873        0.242      180.597       27.562        0.023      345.291       22.716      860.510
07/01/2014  00:38:00     -147.053      -94.305       -7.124       42.556       29.613       20.227     1811.007      876.920      409.117        1.683        0.155      174.694       17.650        0.010      345.346       22.810      860.503
07/01/2014  00:39:00     -115.757      -65.084        1.835       47.852       39.673       22.482     2289.793     1573.939      505.444        1.100        0.218      132.799       23.824        0.032      345.319       22.765      860.485
07/01/2014  00:40:00      -99.238      -64.554        4.001       54.137       31.333       26.371     2930.777      981.776      695.412        0.932        0.230      118.387       25.178        0.045      345.308       22.745      860.488
07/01/2014  00:41:00     -107.918      -77.117        0.598       50.381       40.295       22.826     2538.292     1623.694      521.005        1.114        0.234      132.640       22.309        0.028      345.334       22.791      860.492
07/01/2014  00:42:00      -67.124      -46.354        7.388       51.193       36.582       28.339     2620.767     1338.213      803.095        0.573        0.238       81.574       22.530        0.076      345.287       22.710      860.486
07/01/2014  00:43:00     -107.581      -80.726       -1.970       49.247       32.732       24.531     2425.301     1071.372      601.783        1.110        0.205      134.501       28.963        0.046      345.324       22.772      860.496
07/01/2014  00:44:00     -127.739      -74.153       -2.611       22.612       24.981       16.597      511.325      624.047      275.465        1.162        0.071      147.702       12.174        0.007      345.331       22.785      860.489
07/01/2014  00:45:00     -168.712      -42.560       -5.993       26.807       21.467       15.163      718.595      460.835      229.902        1.586        0.070      173.998       11.398        0.004      345.183       22.531      860.477
07/01/2014  00:46:00     -150.734      -47.687        0.151       48.013       41.947       20.914     2305.206     1759.579      437.410        1.475        0.225      158.097       16.396        0.011      345.162       22.495      860.481
07/01/2014  00:47:00     -140.949      -30.961        2.223       45.704       40.227       23.497     2088.853     1618.200      552.127        1.254        0.213      144.309       23.734        0.027      345.109       22.404      860.480
07/01/2014  00:48:00     -169.693      -69.072        7.072       51.060       41.562       27.575     2607.164     1727.388      760.385        1.936        0.255      183.213       29.049        0.025      345.209       22.575      860.467
07/01/2014  00:49:00     -146.031      -65.621       -1.038       45.237       48.115       26.858     2046.348     2315.036      721.375        1.536        0.254      160.097       24.505        0.023      345.222       22.597      860.476
07/01/2014  00:50:00     -147.562      -61.084        3.975       42.667       28.831       20.921     1820.474      831.245      437.706        1.430        0.154      159.705       22.152        0.019      345.323       22.770      860.467
07/01/2014  00:51:00     -116.707      -55.955        4.345       60.604       43.047       26.488     3672.875     1853.055      701.602        1.150        0.311      129.428       27.671        0.046      345.355       22.824      860.468
07/01/2014  00:52:00      -88.192      -55.959       -0.327       49.822       31.936       17.128     2482.255     1019.909      293.358        0.735        0.190      104.447       16.462        0.025      345.309       22.748      860.473
07/01/2014  00:53:00     -109.292      -68.516       -4.730       34.172       21.261       17.865     1167.697      452.009      319.147        0.930        0.097      128.993       11.717        0.008      345.334       22.790      860.475
07/01/2014  00:54:00      -98.062      -57.412        0.932       33.971       22.913       17.902     1154.010      525.011      320.484        0.746        0.100      113.632       12.908        0.013      345.323       22.771      860.469
07/01/2014  00:55:00     -139.957      -69.242      -10.645       41.568       19.989       17.932     1727.910      399.568      321.541        1.347        0.122      156.148       17.663        0.013      345.453       22.993      860.458
07/01/2014  00:56:00     -112.440      -74.625        3.738       51.020       32.076       22.625     2603.031     1028.885      511.874        1.118        0.207      134.951       21.480        0.025      345.424       22.945      860.454
07/01/2014  00:57:00      -53.540      -55.089        8.620       51.960       40.239       27.927     2699.863     1619.198      779.935        0.554        0.255       76.821       27.761        0.131      345.386       22.878      860.465
07/01/2014  00:58:00      -28.560      -54.817        8.134       44.381       46.863       32.437     1969.667     2196.183     1052.155        0.455        0.261       61.811       21.549        0.122      345.276       22.689      860.489
07/01/2014  00:59:00        3.749      -54.148       10.211       25.394       40.517       25.849      644.867     1641.646      668.159        0.300        0.148       54.278       22.498        0.172      345.110       22.407      860.505
07/01/2014  01:00:00       19.629      -99.371       -5.993       56.272       58.295       27.878     3166.529     3398.258      777.182        0.882        0.367      101.292       20.159        0.040      345.045       22.295      860.533
07/01/2014  01:01:00      -28.586        1.927       13.226       24.786       36.499       22.906      614.368     1332.185      524.693        0.173        0.124       28.651       18.991        0.439      345.008       22.232      860.549
07/01/2014  01:02:00      -40.664      -77.591        0.312       31.964       26.466       21.395     1021.729      700.428      457.732        0.493        0.109       87.601       14.557        0.028      345.088       22.369      860.545
07/01/2014  01:03:00      -79.124      -37.089        0.349       49.886       39.049       22.088     2488.631     1524.850      487.873        0.607        0.225       87.385        9.053        0.011      345.031       22.272      860.537
07/01/2014  01:04:00       -5.374      -46.139       18.562       33.409       42.265       23.578     1116.186     1786.340      555.926        0.298        0.173       46.450       23.835        0.263      344.957       22.146      860.530
07/01/2014  01:05:00      -94.385      -60.174        1.483       41.199       35.127       25.235     1697.318     1233.913      636.784        0.805        0.178      111.935       22.997        0.042      344.908       22.061      860.528
07/01/2014  01:06:00      -75.887      -56.327        2.363       52.507       36.276       20.543     2757.023     1315.983      422.010        0.672        0.225       94.507       23.308        0.061      344.883       22.017      860.526
07/01/2014  01:07:00      -36.471      -99.552       -6.296       34.076       58.036       19.767     1161.157     3368.186      390.731        0.810        0.246      106.022       22.741        0.046      345.025       22.261      860.555
07/01/2014  01:08:00      -42.122      -25.357       10.284       30.614       32.531       22.716      937.190     1058.289      515.994        0.252        0.126       49.165       21.390        0.189      344.959       22.149      860.551
07/01/2014  01:09:00       -5.123      -50.874       -6.242       28.419       20.732       20.293      807.625      429.808      411.825        0.215        0.082       51.131       15.955        0.097      345.040       22.286      860.561
07/01/2014  01:10:00        1.357      -34.988        9.968       26.988       28.993       23.865      728.329      840.605      569.560        0.173        0.107       35.014       22.102        0.398      344.931       22.099      860.565
07/01/2014  01:11:00      -64.896      -41.890       -2.405       43.472       28.934       19.920     1889.831      837.166      396.807        0.455        0.156       77.241       16.723        0.047      344.850       21.963      860.546
07/01/2014  01:12:00      -98.329      -64.315        5.782       48.774       41.415       28.553     2378.865     1715.162      815.265        0.937        0.245      117.495       32.551        0.077      344.797       21.870      860.530
07/01/2014  01:13:00     -118.512      -90.546       -3.702       47.587       31.118       20.861     2264.520      968.355      435.192        1.296        0.183      149.143       22.121        0.022      344.846       21.955      860.519
07/01/2014  01:14:00      -97.913      -90.634       -1.098       49.059       49.630       32.849     2406.752     2463.119     1079.075        1.187        0.297      133.422       30.955        0.054      344.857       21.974      860.515
07/01/2014  01:15:00     -110.107     -105.506        1.475       63.728       55.052       26.200     4061.276     3030.692      686.424        1.552        0.389      152.496       29.468        0.037      344.872       21.997      860.505
07/01/2014  01:16:00     -105.809      -94.016        1.955       64.284       43.962       32.167     4132.494     1932.622     1034.688        1.357        0.355      141.543       26.681        0.036      344.837       21.938      860.502
07/01/2014  01:17:00      -38.742      -59.072        0.728       48.348       43.751       26.993     2337.537     1914.137      728.645        0.498        0.249       70.643       20.194        0.082      344.824       21.917      860.518
07/01/2014  01:18:00     -100.958     -119.440      -11.716       50.681       48.571       23.635     2568.557     2359.102      558.614        1.504        0.274      156.392       17.560        0.013      344.807       21.887      860.518
07/01/2014  01:19:00     -175.466      -85.484        0.722       70.246       69.067       35.016     4934.549     4770.226     1226.102        2.451        0.547      195.181       21.633        0.012      344.712       21.722      860.465
07/01/2014  01:20:00      -63.968      -74.454       12.822       57.374       53.554       34.683     3291.787     2868.080     1202.908        0.858        0.368       98.159       31.594        0.104      344.640       21.601      860.459
07/01/2014  01:21:00      -80.100      -74.301       -5.328       46.241       37.563       24.565     2138.207     1410.989      603.432        0.806        0.208      109.255       27.612        0.064      344.663       21.641      860.466
07/01/2014  01:22:00     -129.208      -66.341       -2.750       67.683       38.754       28.149     4580.986     1501.883      792.392        1.399        0.344      145.244       33.372        0.053      344.663       21.642      860.456
07/01/2014  01:23:00     -114.699      -78.405       -9.705       43.608       41.588       25.099     1901.644     1729.571      629.954        1.183        0.213      138.936       23.182        0.028      344.662       21.641      860.437
07/01/2014  01:24:00     -135.199      -88.707       -9.222       48.983       39.370       23.888     2399.312     1549.976      570.658        1.538        0.226      161.703       22.366        0.019      344.613       21.555      860.428
07/01/2014  01:25:00     -135.218      -57.355       -1.317       62.552       40.297       26.294     3912.803     1623.813      691.349        1.390        0.311      146.879       28.051        0.036      344.585       21.509      860.403
07/01/2014  01:26:00     -163.733      -91.312       -9.887       39.702       35.269       21.243     1576.253     1243.922      451.285        1.926        0.164      187.474       19.914        0.011      344.618       21.564      860.389
07/01/2014  01:27:00     -135.764      -69.049       -9.420       34.263       29.350       18.324     1173.982      861.411      335.775        1.283        0.119      152.314       13.885        0.008      344.591       21.519      860.380
07/01/2014  01:28:00      -75.474      -40.706        5.763       45.098       23.608       19.764     2033.793      557.347      390.607        0.518        0.149       85.751       21.332        0.062      344.586       21.511      860.384
07/01/2014  01:29:00      -78.846      -29.482        2.439       38.197       33.601       16.644     1459.038     1129.031      277.016        0.498        0.143       84.178       18.521        0.048      344.622       21.572      860.386
07/01/2014  01:30:00      -88.757      -29.305       -7.284       33.875       26.884       15.153     1147.502      722.737      229.609        0.544        0.105       93.470       13.919        0.022      344.552       21.454      860.393
07/01/2014  01:31:00      -85.498       -3.911        0.222       38.023       24.882       17.251     1445.722      619.112      297.611        0.484        0.118       85.588       20.882        0.060      344.511       21.380      860.407
07/01/2014  01:32:00      -74.886      -33.215       -3.585       36.954       17.970        9.684     1365.610      322.919       93.789        0.425        0.089       81.921        6.656        0.007      344.524       21.403      860.420
07/01/2014  01:33:00      -81.329      -19.527       -1.913       22.139       17.589       15.812      490.129      309.362      250.014        0.402        0.052       83.640       11.763        0.020      344.426       21.236      860.417
07/01/2014  01:34:00      -90.402      -15.076       -3.428       27.671       23.024       13.560      765.689      530.100      183.874        0.495        0.074       91.650       14.314        0.024      344.490       21.345      860.408
07/01/2014  01:35:00      -91.381       -8.374       -5.396       34.051       16.890       17.004     1159.492      285.266      289.142        0.509        0.087       91.764       16.110        0.031      344.448       21.273      860.414
07/01/2014  01:36:00     -116.889      -16.014      -15.800       24.043       19.132       15.977      578.085      366.045      255.273        0.768        0.060      117.981       16.040        0.018      344.499       21.362      860.397
07/01/2014  01:37:00     -122.449      -36.290       -5.863       22.157       18.260       12.750      490.927      333.444      162.565        0.867        0.049      127.714       10.357        0.007      344.502       21.367      860.371
07/01/2014  01:38:00     -138.812      -49.723      -19.870       15.350       17.211       12.903      235.616      296.213      166.500        1.142        0.035      147.449       10.006        0.005      344.447       21.271      860.373
07/01/2014  01:39:00     -132.213      -31.380       -9.137       30.355       28.305       17.777      921.403      801.163      316.030        1.029        0.102      135.886       16.486        0.015      344.450       21.277      860.358
07/01/2014  01:40:00     -120.545      -33.835       -0.732       26.997       26.960       19.091      728.857      726.833      364.473        0.875        0.091      125.204       14.847        0.014      344.450       21.277      860.351
07/01/2014  01:41:00     -103.777      -23.450       -6.615       24.881       29.052       20.746      619.076      843.991      430.415        0.663        0.095      106.394       17.819        0.028      344.460       21.293      860.354
07/01/2014  01:42:00     -120.024       -5.829      -14.445       20.842       22.162       14.976      434.406      491.132      224.287        0.790        0.057      120.166       11.025        0.008      344.370       21.141      860.356
07/01/2014  01:43:00      -68.263      -18.580       -2.486       27.299       21.870       15.565      745.263      478.309      242.261        0.324        0.073       70.747       13.441        0.036      344.354       21.113      860.364
07/01/2014  01:44:00      -27.301      -14.535       -1.117       12.597       16.240        8.332      158.683      263.740       69.426        0.072        0.025       30.929        3.283        0.011      344.412       21.213      860.387
07/01/2014  01:45:00       10.302       16.647       18.039       22.745       17.897       27.513      517.348      320.300      756.987        0.115        0.080       19.577       18.182        0.863      344.166       20.791      860.387
07/01/2014  01:46:00       41.746       28.629       16.928       25.651       15.537       18.340      657.970      241.397      336.358        0.204        0.062       50.620        9.016        0.032      343.911       20.357      860.392
07/01/2014  01:47:00       57.169       -6.211        2.335       19.568       24.171       16.551      382.920      584.240      273.925        0.228        0.062       57.506       11.280        0.038      343.686       19.972      860.406
07/01/2014  01:48:00       -2.421       -8.662        2.802       19.180        8.885        9.361      367.869       78.950       87.635        0.031        0.027        8.994        7.177        0.637      343.861       20.270      860.398
07/01/2014  01:49:00      -53.879        1.446      -10.654       17.937       10.689       15.259      321.744      114.254      232.835        0.184        0.033       53.899       13.600        0.064      344.457       21.291      860.387
07/01/2014  01:50:00      -29.400       -6.236        4.870       11.785       20.925       10.318      138.881      437.871      106.467        0.080        0.034       30.054       11.829        0.155      344.497       21.356      860.383
07/01/2014  01:51:00      -50.436      -30.281      -12.809        8.539        7.061        8.654       72.914       49.855       74.888        0.191        0.010       58.828        5.608        0.009      344.601       21.533      860.386
07/01/2014  01:52:00      -27.129      -47.595       -7.152       13.573       16.583        8.595      184.226      274.998       73.876        0.179        0.027       54.784        7.675        0.020      344.875       22.004      860.390
07/01/2014  01:53:00       -0.530      -50.600      -10.074       14.689        9.213        7.347      215.761       84.887       53.972        0.151        0.018       50.603        5.132        0.010      344.681       21.674      860.410
07/01/2014  01:54:00       13.915      -15.284       -1.553       19.902       14.887       12.887      396.105      221.634      166.075        0.061        0.039       20.669       13.705        0.440      344.544       21.438      860.432
07/01/2014  01:55:00      -16.424       -2.789       -3.259       10.206       10.769        7.448      104.157      115.967       55.471        0.028        0.014       16.659        5.558        0.111      344.514       21.386      860.440
07/01/2014  01:56:00      -16.209       -5.463       -2.780        9.109        7.917        4.223       82.966       62.671       17.836        0.023        0.008       17.104        2.997        0.031      344.622       21.573      860.436
07/01/2014  01:57:00      -31.925        3.608       -5.728        6.635        5.372        3.839       44.030       28.860       14.738        0.058        0.004       32.129        3.201        0.010      344.594       21.524      860.446
07/01/2014  01:58:00      -28.256       15.711       -2.853        5.310       10.368        5.212       28.198      107.502       27.170        0.061        0.008       32.330        4.072        0.016      344.620       21.571      860.440
07/01/2014  01:59:00      -34.231       14.968       -7.523        9.433       10.241        4.808       88.973      104.885       23.119        0.083        0.011       37.360        2.801        0.006      344.656       21.630      860.429
07/01/2014  02:00:00      -31.903        7.740       -5.318        9.951        6.125        4.185       99.022       37.513       17.517        0.063        0.008       32.828        4.011        0.015      344.597       21.529      860.420
07/01/2014  02:01:00      -14.631       20.650       -6.043       13.510       11.912        6.227      182.524      141.898       38.779        0.052        0.018       25.307        7.000        0.077      344.822       21.911      860.428
07/01/2014  02:02:00      -21.269       -0.083       -1.595        9.719       13.915       10.910       94.465      193.621      119.038        0.043        0.020       21.269       10.604        0.249      344.760       21.807      860.429
07/01/2014  02:03:00      -10.730       -6.909       -0.831       18.105       11.354        8.692      327.802      128.923       75.557        0.035        0.027       12.762        3.640        0.081      344.677       21.664      860.427
07/01/2014  02:04:00       30.274       56.296       -5.906       40.016       20.640       19.660     1601.320      426.019      386.534        0.327        0.121       63.920       12.289        0.037      345.171       22.514      860.428
07/01/2014  02:05:00       -1.677       28.606       -9.071       17.526       25.989        9.671      307.177      675.445       93.520        0.099        0.054       28.655       11.414        0.159      345.059       22.318      860.435
07/01/2014  02:06:00      -50.219      -17.329       -7.751       18.905       16.291       11.169      357.388      265.400      124.757        0.181        0.037       53.125        8.181        0.024      344.489       21.344      860.425
07/01/2014  02:07:00      -45.715      -24.836       -8.155       13.094        9.026        7.324      171.465       81.464       53.635        0.154        0.015       52.026        4.025        0.006      344.420       21.226      860.418
07/01/2014  02:08:00      -48.153      -28.451       -8.874        9.790        9.842        8.520       95.850       96.856       72.591        0.174        0.013       55.930        5.108        0.008      344.445       21.269      860.410
07/01/2014  02:09:00      -39.637      -23.917      -10.622        8.313       11.119        6.624       69.101      123.639       43.883        0.125        0.012       46.294        5.423        0.014      344.464       21.302      860.416
07/01/2014  02:10:00      -33.384      -35.731      -10.419        8.810       10.479        6.122       77.624      109.810       37.481        0.136        0.011       48.899        2.946        0.004      344.638       21.602      860.419
07/01/2014  02:11:00      -24.708      -27.486       -9.772       11.258        8.579        5.486      126.732       73.591       30.100        0.085        0.012       36.959        3.880        0.011      344.660       21.637      860.410
07/01/2014  02:12:00      -46.477      -29.874       -9.889       11.001        8.559        7.840      121.023       73.248       61.472        0.170        0.013       55.251        3.964        0.005      344.523       21.401      860.402
07/01/2014  02:13:00      -87.211      -18.409      -12.428       12.961       15.398        9.747      167.979      237.109       95.010        0.430        0.025       89.133        4.205        0.002      344.383       21.162      860.392
07/01/2014  02:14:00     -100.973      -12.733      -17.321       15.038       13.678        9.838      226.139      187.098       96.793        0.558        0.026      101.773        7.275        0.005      344.314       21.044      860.389
07/01/2014  02:15:00      -99.193        0.903      -11.119       24.552       16.594       13.948      602.777      275.347      194.533        0.552        0.054       99.197       13.933        0.020      344.333       21.078      860.387
07/01/2014  02:16:00     -105.697        3.473      -14.489       28.804       22.304       11.472      829.668      497.483      131.610        0.643        0.073      105.754       12.987        0.015      344.316       21.047      860.369
07/01/2014  02:17:00     -118.339       17.076      -24.565       13.776       17.896       11.462      189.773      320.265      131.388        0.777        0.032      119.565        8.699        0.005      344.254       20.943      860.347
07/01/2014  02:18:00     -100.007        1.241      -18.530       15.481       16.536        9.211      239.655      273.453       84.849        0.547        0.030      100.015        7.236        0.005      344.262       20.955      860.339
07/01/2014  02:19:00      -84.589       -6.261      -11.625       23.110       18.258       11.337      534.072      333.351      128.522        0.416        0.050       84.820        8.459        0.010      344.315       21.046      860.349
07/01/2014  02:20:00      -79.302      -23.248       -4.382       19.822       22.981       13.874      392.914      528.147      192.500        0.398        0.056       82.640       11.467        0.019      344.351       21.107      860.360
07/01/2014  02:21:00      -53.284      -39.970       -9.656       26.037       24.180       19.725      677.940      584.664      389.078        0.309        0.083       66.610        9.809        0.022      344.330       21.073      860.359
07/01/2014  02:22:00      -97.090      -25.598      -11.775       24.850       23.718       20.795      617.520      562.542      432.413        0.592        0.081      100.407       15.120        0.023      344.311       21.039      860.346
07/01/2014  02:23:00      -53.740      -41.883      -12.378       39.840       16.390       19.586     1587.203      268.620      383.602        0.352        0.112       68.134       21.704        0.101      344.254       20.942      860.348
07/01/2014  02:24:00      -24.348      -68.556       -9.806       30.747       19.865       14.970      945.383      394.630      224.105        0.348        0.078       72.752       14.041        0.037      344.287       20.998      860.376
07/01/2014  02:25:00     -125.481      -16.997      -24.888       30.049       29.902       13.172      902.928      894.107      173.510        0.931        0.099      126.627       14.879        0.014      344.350       21.107      860.377
07/01/2014  02:26:00     -123.274        1.350      -20.488       13.478       11.393       10.562      181.659      129.811      111.552        0.802        0.021      123.281        2.025        0.000      344.235       20.911      860.370
07/01/2014  02:27:00      -70.615      -29.314       -7.860       34.059       13.901       12.226     1160.016      193.237      149.468        0.370        0.075       76.457       12.312        0.026      344.204       20.857      860.367
07/01/2014  02:28:00      -13.603      -32.141       -4.879       22.427       16.667       11.038      502.981      277.792      121.845        0.107        0.045       34.901        9.191        0.069      344.378       21.155      860.371
07/01/2014  02:29:00     -103.059      -17.893       -9.366       25.620       11.740       12.998      656.359      137.834      168.937        0.600        0.048      104.601       12.380        0.014      344.374       21.148      860.349
07/01/2014  02:30:00     -116.434      -22.099      -23.048       14.124        9.562        9.579      199.491       91.430       91.759        0.748        0.019      118.513        4.911        0.002      344.326       21.065      860.331
07/01/2014  02:31:00      -81.049      -29.550      -15.669       16.675       10.689        8.515      278.064      114.253       72.503        0.408        0.023       86.267        7.869        0.008      344.327       21.065      860.343
07/01/2014  02:32:00      -79.576      -33.674       -7.643       10.061        8.978        6.479      101.234       80.598       41.976        0.387        0.011       86.407        3.175        0.001      344.401       21.195      860.354
07/01/2014  02:33:00      -60.820      -41.538       -4.185       29.693       14.258       11.234      881.699      203.301      126.204        0.333        0.061       73.651        5.199        0.005      344.336       21.083      860.352
07/01/2014  02:34:00      -78.940      -51.098       -8.389       18.791       14.349       11.083      353.084      205.893      122.836        0.480        0.034       94.035        9.007        0.009      344.391       21.177      860.356
07/01/2014  02:35:00      -91.714      -45.436      -11.552       13.316        9.221       11.534      177.305       85.023      133.041        0.550        0.020      102.352       10.417        0.010      344.416       21.218      860.355
07/01/2014  02:36:00      -93.334      -36.116      -17.037        6.889        6.922        6.830       47.464       47.920       46.651        0.522        0.007      100.078        3.089        0.001      344.384       21.164      860.343
07/01/2014  02:37:00     -100.353      -40.843      -20.400       11.359        6.910        6.197      129.032       47.742       38.402        0.619        0.011      108.346        3.598        0.001      344.363       21.127      860.326
07/01/2014  02:38:00     -103.792      -29.276      -15.420        9.993        7.414        7.263       99.850       54.974       52.757        0.604        0.010      107.842        3.384        0.001      344.314       21.044      860.327
07/01/2014  02:39:00      -77.449      -22.821       -9.723       17.173       11.845        8.414      294.929      140.300       70.793        0.356        0.025       80.742        8.861        0.012      344.350       21.105      860.335
07/01/2014  02:40:00      -74.702      -33.766       -8.485       12.543        8.776        7.192      157.320       77.012       51.727        0.354        0.014       81.979        4.789        0.003      344.344       21.095      860.333
07/01/2014  02:41:00      -91.219      -36.907      -11.050       10.088       11.503        8.363      101.768      132.320       69.948        0.505        0.015       98.403        4.846        0.002      344.334       21.080      860.340
07/01/2014  02:42:00      -90.245      -46.745      -14.073        9.701        9.796        9.396       94.114       95.958       88.289        0.540        0.014      101.633        4.107        0.002      344.354       21.112      860.356
07/01/2014  02:43:00      -69.340      -56.041       -9.927       22.680       18.486       11.465      514.369      341.733      131.452        0.452        0.049       89.155        4.866        0.003      344.287       20.997      860.374
07/01/2014  02:44:00      -83.796      -35.230      -11.900       10.718        9.304        6.595      114.878       86.557       43.494        0.432        0.012       90.901        5.110        0.003      344.380       21.157      860.374
07/01/2014  02:45:00      -97.770      -45.782      -13.060       10.049       13.156        9.203      100.981      173.088       84.701        0.609        0.018      107.958        5.144        0.002      344.298       21.019      860.365
07/01/2014  02:46:00      -88.523      -58.883       -2.225       25.507       18.039       14.622      650.619      325.390      213.806        0.625        0.059      106.318       10.705        0.010      344.176       20.808      860.374
07/01/2014  02:47:00      -90.226      -63.212       -8.457       28.838       20.217       17.523      831.607      408.724      307.047        0.688        0.077      110.166       15.112        0.019      344.053       20.599      860.371
07/01/2014  02:48:00      -93.671      -78.604       -1.820       39.144       29.533       19.543     1532.239      872.211      381.927        0.887        0.139      122.282       20.329        0.028      344.058       20.608      860.363
07/01/2014  02:49:00      -96.793      -66.006       -7.686       26.652       22.500       15.162      710.339      506.253      229.879        0.762        0.072      117.156        9.837        0.007      344.128       20.727      860.357
07/01/2014  02:50:00     -101.393      -75.205      -14.135       22.608       19.399       19.572      511.135      376.324      383.074        0.870        0.064      126.240        9.432        0.006      344.180       20.816      860.358
07/01/2014  02:51:00     -119.481      -72.726      -13.525       32.810       23.062       17.162     1076.526      531.870      294.548        1.083        0.095      139.874        9.286        0.004      344.033       20.566      860.348
07/01/2014  02:52:00     -104.263      -56.100       -4.408       24.068       17.746       13.830      579.264      314.923      191.274        0.756        0.054      118.398        5.681        0.002      343.981       20.476      860.350
07/01/2014  02:53:00     -126.345      -71.861       -4.562       30.478       22.752       18.723      928.887      517.635      350.542        1.147        0.090      145.351       16.815        0.013      344.079       20.642      860.333
07/01/2014  02:54:00     -121.189      -48.750       -3.406       25.387       23.410       15.286      644.483      548.036      233.677        0.925        0.071      130.626       14.273        0.012      344.077       20.638      860.327
07/01/2014  02:55:00     -118.999      -60.381      -10.778       24.966       18.831       12.781      623.290      354.618      163.349        0.953        0.057      133.441       12.770        0.009      344.192       20.835      860.321
07/01/2014  02:56:00     -129.293      -51.371       -9.485       15.260       16.131       10.616      232.855      260.215      112.690        1.003        0.030      139.124        6.779        0.002      344.147       20.761      860.320
07/01/2014  02:57:00     -108.689      -49.745       -2.031       20.782       20.379       16.402      431.903      415.283      269.011        0.770        0.056      119.532       12.344        0.011      344.052       20.595      860.325
07/01/2014  02:58:00     -123.726      -52.772      -11.673       22.564       16.615       12.752      509.127      276.068      162.613        0.959        0.047      134.511        8.251        0.004      344.063       20.615      860.333
07/01/2014  02:59:00     -109.064      -56.868       -0.306       20.099       20.103        9.999      403.987      404.141       99.971        0.802        0.045      122.999        6.510        0.003      344.010       20.524      860.339
07/01/2014  03:00:00      -94.157      -47.201       -3.422       19.038       18.348       12.550      362.427      336.663      157.498        0.598        0.043      105.326        9.167        0.008      344.004       20.516      860.338
07/01/2014  03:01:00     -112.057      -73.885       -7.416       20.620       20.572       15.408      425.181      423.203      237.407        0.958        0.054      134.223       11.230        0.007      344.014       20.532      860.333
07/01/2014  03:02:00      -87.247      -67.522        3.209       37.973       24.647       21.728     1441.984      607.480      472.108        0.735        0.126      110.324       17.410        0.025      343.943       20.411      860.339
07/01/2014  03:03:00      -85.003      -92.237        3.827       48.003       42.530       27.435     2304.249     1808.814      752.690        1.031        0.243      125.432       24.448        0.038      343.916       20.366      860.366
07/01/2014  03:04:00      -81.149      -98.455       -0.139       50.955       46.627       26.501     2596.362     2174.116      702.295        1.087        0.274      127.588       27.032        0.045      343.992       20.494      860.384
07/01/2014  03:05:00     -105.530      -93.452       -4.973       75.376       46.436       34.098     5681.616     2156.322     1162.675        1.445        0.450      140.960       36.202        0.066      344.010       20.525      860.387
07/01/2014  03:06:00     -114.309      -82.314       20.968       91.146       79.255       42.776     8307.560     6281.328     1829.751        1.835        0.821      140.863       50.570        0.129      343.952       20.424      860.395
07/01/2014  03:07:00     -172.058      -92.066       -2.987       49.137       49.379       34.664     2414.401     2438.251     1201.576        2.207        0.303      195.141       29.863        0.023      343.970       20.457      860.383
07/01/2014  03:08:00      -98.796      -74.371       12.438       76.484       46.165       29.722     5849.844     2131.189      883.402        1.215        0.443      123.659       32.097        0.067      343.854       20.259      860.373
07/01/2014  03:09:00     -115.239      -79.927        3.254       72.678       50.933       35.910     5282.152     2594.139     1289.501        1.442        0.458      140.244       31.209        0.050      343.966       20.449      860.368
07/01/2014  03:10:00     -128.569      -68.460        3.443       61.900       49.373       28.306     3831.627     2437.709      801.234        1.415        0.354      145.660       27.890        0.037      344.034       20.565      860.360
07/01/2014  03:11:00     -139.773      -81.847       -2.886       35.338       25.972       21.255     1248.784      674.558      451.790        1.431        0.119      161.974       18.241        0.013      344.062       20.614      860.355
07/01/2014  03:12:00     -106.977      -52.911        0.096       36.981       30.480       19.252     1367.590      929.051      370.658        0.846        0.133      119.347       14.070        0.014      344.007       20.519      860.352
07/01/2014  03:13:00      -77.026      -51.568        4.336       47.224       22.374       21.843     2230.109      500.596      477.111        0.591        0.160       92.695       12.166        0.017      343.983       20.481      860.356
07/01/2014  03:14:00     -126.161      -62.728        0.655       28.305       20.831       17.452      801.181      433.920      304.565        1.070        0.077      140.894        2.902        0.000      343.956       20.434      860.349
07/01/2014  03:15:00     -141.822      -54.923       -3.369       39.536       21.130       19.245     1563.090      446.492      370.385        1.276        0.119      152.086       17.453        0.013      343.946       20.416      860.335
07/01/2014  03:16:00     -112.057      -53.042        2.030       43.769       30.576       21.376     1915.754      934.870      456.943        0.934        0.165      123.977       17.647        0.020      343.903       20.341      860.327
07/01/2014  03:17:00     -122.447      -39.750        1.078       23.898       22.730       15.355      571.123      516.634      235.766        0.895        0.066      128.738        8.522        0.004      343.794       20.156      860.334
07/01/2014  03:18:00      -95.135      -40.738        3.441       34.555       27.355       20.451     1194.037      748.274      418.234        0.654        0.118      103.491       16.232        0.025      343.772       20.119      860.339
07/01/2014  03:19:00      -98.170      -38.397        6.059       40.041       32.623       23.079     1603.304     1064.238      532.645        0.717        0.160      105.412       22.889        0.047      343.789       20.148      860.345
07/01/2014  03:20:00      -76.644      -32.401        9.930       49.284       34.850       25.023     2428.885     1214.489      626.155        0.565        0.213       83.211       26.233        0.099      343.801       20.169      860.356
07/01/2014  03:21:00      -75.853      -59.815        6.294       43.906       34.056       28.445     1927.718     1159.812      809.096        0.663        0.195       96.600       22.823        0.056      343.832       20.222      860.364
07/01/2014  03:22:00      -70.404      -74.960       10.342       50.825       42.231       33.032     2583.140     1783.481     1091.114        0.807        0.273      102.838       32.934        0.103      343.885       20.311      860.351
07/01/2014  03:23:00      -92.336      -80.207        5.398       48.240       36.930       28.776     2327.092     1363.846      828.078        0.975        0.226      122.307       30.400        0.062      343.924       20.379      860.341
07/01/2014  03:24:00     -102.648      -57.203        5.169       53.129       39.413       26.863     2822.711     1553.401      721.605        0.947        0.255      117.510       22.693        0.037      343.939       20.404      860.337
07/01/2014  03:25:00     -134.010      -54.208        3.715       47.434       33.070       22.231     2249.953     1093.623      494.212        1.237        0.192      144.558       17.455        0.015      344.035       20.569      860.333
07/01/2014  03:26:00     -117.184      -56.033        1.170       57.072       38.269       25.253     3257.186     1464.496      637.715        1.112        0.268      129.892       27.503        0.045      344.081       20.645      860.329
07/01/2014  03:27:00     -122.799      -72.382        4.493       52.161       37.591       27.854     2720.770     1413.052      775.847        1.262        0.245      142.544       27.176        0.036      344.137       20.742      860.327
07/01/2014  03:28:00     -125.865      -79.414       -0.912       62.171       40.960       30.858     3865.245     1677.736      952.208        1.432        0.325      148.824       30.281        0.041      344.173       20.805      860.323
07/01/2014  03:29:00     -145.568      -72.238        7.526       50.055       41.315       24.279     2505.477     1706.926      589.488        1.563        0.240      162.507       21.561        0.018      344.068       20.625      860.315
07/01/2014  03:30:00     -122.671      -62.469        3.769       44.707       34.482       27.152     1998.729     1189.004      737.237        1.144        0.196      137.661       25.713        0.035      343.939       20.405      860.314
07/01/2014  03:31:00     -125.477      -75.058       -0.051       39.933       26.070       21.371     1594.617      679.639      456.718        1.205        0.137      146.213        8.840        0.004      343.886       20.314      860.312
07/01/2014  03:32:00     -126.436      -77.059       -1.719       46.370       36.623       29.170     2150.214     1341.268      850.913        1.313        0.217      148.068       26.372        0.032      343.819       20.198      860.313
07/01/2014  03:33:00     -130.315      -85.062       -1.209       42.469       31.295       19.818     1803.610      979.392      392.741        1.370        0.159      155.619       17.692        0.013      343.864       20.277      860.304
07/01/2014  03:34:00     -106.460      -64.745        0.984       36.754       30.503       16.700     1350.867      930.455      278.897        0.904        0.128      124.602       15.020        0.015      343.805       20.174      860.322
07/01/2014  03:35:00     -115.045      -61.693        1.024       26.602       25.353       17.937      707.682      642.768      321.730        0.936        0.084      130.543       12.608        0.009      343.827       20.213      860.335
07/01/2014  03:36:00     -126.071      -32.884       -2.688       33.732       30.997       18.473     1137.827      960.792      341.252        0.971        0.122      130.289       16.938        0.017      343.834       20.225      860.337
07/01/2014  03:37:00     -141.004      -42.289       -0.378       24.099       27.379       15.660      580.780      749.591      245.241        1.162        0.079      147.209        9.629        0.004      343.852       20.255      860.340
07/01/2014  03:38:00     -115.187      -66.655       -0.629       51.869       28.470       17.329     2690.393      810.516      300.292        1.076        0.190      133.082       20.011        0.023      343.804       20.174      860.351
07/01/2014  03:39:00     -126.496      -45.892       -7.842       39.606       28.357       21.282     1568.631      804.143      452.934        1.050        0.141      134.564       18.033        0.018      343.641       19.895      860.347
07/01/2014  03:40:00     -137.497      -34.317      -14.141       20.366       21.791       14.401      414.762      474.833      207.378        1.069        0.055      141.715        6.992        0.002      343.579       19.789      860.346
07/01/2014  03:41:00     -121.127      -53.746       -9.272       41.954       27.466       18.390     1760.125      754.374      338.180        1.025        0.143      132.515       14.573        0.012      343.641       19.894      860.342
07/01/2014  03:42:00     -109.795      -72.959       -6.470       44.801       22.042       20.701     2007.149      485.859      428.548        1.017        0.146      131.826       18.630        0.020      343.664       19.934      860.351
07/01/2014  03:43:00     -108.638      -69.712       -5.597       36.586       26.426       23.143     1338.541      698.357      535.594        0.963        0.129      129.081       21.639        0.028      343.671       19.947      860.353
07/01/2014  03:44:00     -106.910      -83.671       -0.353       43.057       27.569       23.885     1853.942      760.070      570.480        1.081        0.159      135.760       21.428        0.025      343.654       19.918      860.357
07/01/2014  03:45:00      -86.371      -74.122        2.063       39.296       35.401       25.731     1544.148     1253.215      662.110        0.821        0.173      113.816       19.017        0.028      343.548       19.737      860.360
07/01/2014  03:46:00      -83.389      -57.991        3.308       44.393       40.393       23.474     1970.721     1631.554      551.017        0.724        0.208      101.571       21.245        0.044      343.527       19.701      860.378
07/01/2014  03:47:00     -110.493      -80.836        0.525       41.962       40.764       23.209     1760.779     1661.696      538.668        1.135        0.198      136.905       13.695        0.010      343.610       19.844      860.384
07/01/2014  03:48:00      -98.099      -66.446        9.056       41.254       36.485       27.200     1701.883     1331.149      739.844        0.895        0.189      118.484       20.393        0.030      343.572       19.778      860.379
07/01/2014  03:49:00      -77.953      -62.307        7.774       46.290       32.156       23.768     2142.728     1034.035      564.933        0.688        0.187       99.794       18.284        0.034      343.511       19.673      860.380
07/01/2014  03:50:00     -124.941      -76.518        1.405       39.799       27.143       26.230     1583.981      736.724      688.015        1.224        0.150      146.511       24.887        0.029      343.520       19.690      860.379
07/01/2014  03:51:00     -133.545      -78.896      -10.336       31.926       24.707       23.763     1019.287      610.438      564.661        1.318        0.110      155.109       16.707        0.012      343.463       19.593      860.368
07/01/2014  03:52:00     -145.397      -71.330       -8.415       14.879       18.543       10.995      221.373      343.830      120.889        1.349        0.034      161.951        5.515        0.001      343.435       19.544      860.352
07/01/2014  03:53:00     -134.388      -62.281       -5.688       16.253       19.904       13.033      264.175      396.179      169.848        1.140        0.042      148.119        9.254        0.004      343.449       19.567      860.366
07/01/2014  03:54:00      -82.033      -58.437        0.162       37.420       24.961       20.903     1400.288      623.052      436.923        0.630        0.123      100.719       23.179        0.053      343.464       19.595      860.390
07/01/2014  03:55:00      -65.990      -49.059        0.772       26.274       17.005       16.491      690.311      289.186      271.960        0.401        0.063       82.228       13.088        0.025      343.464       19.595      860.405
07/01/2014  03:56:00      -53.436      -48.123       -6.462       32.484       24.171       15.875     1055.225      584.250      252.004        0.355        0.095       71.911       16.714        0.054      343.459       19.587      860.405
07/01/2014  03:57:00      -94.735      -53.336       -7.145       20.822       20.561       15.371      433.539      422.765      236.267        0.648        0.055      108.717        7.821        0.005      343.471       19.606      860.414
07/01/2014  03:58:00     -104.071      -56.239       -6.756       36.683       23.742       15.497     1345.642      563.685      240.167        0.809        0.107      118.295       10.273        0.008      343.427       19.532      860.408
07/01/2014  03:59:00     -109.670      -75.068        2.968       46.480       33.377       25.539     2160.422     1114.024      652.231        1.080        0.196      132.901       19.868        0.022      343.359       19.414      860.406
07/01/2014  04:00:00     -101.520      -75.928       -0.275       51.415       35.893       31.900     2643.485     1288.305     1017.637        1.051        0.247      126.773       28.672        0.051      343.370       19.434      860.407
07/01/2014  04:01:00      -64.217      -44.967       15.428       58.051       35.923       27.161     3369.966     1290.455      737.714        0.589        0.270       78.395       26.245        0.112      343.317       19.344      860.412
07/01/2014  04:02:00      -71.785      -60.231        0.547       59.743       47.103       22.266     3569.199     2218.667      495.771        0.753        0.314       93.706       23.933        0.065      343.210       19.162      860.428
07/01/2014  04:03:00     -116.692      -77.117        6.720       56.605       54.051       26.689     3204.182     2921.493      712.307        1.322        0.342      139.872       19.215        0.019      343.275       19.273      860.432
07/01/2014  04:04:00      -95.577      -88.282       17.450       69.732       45.514       31.517     4862.560     2071.481      993.321        1.258        0.396      130.111       33.095        0.065      343.264       19.254      860.448
07/01/2014  04:05:00     -159.402     -112.703        0.338       56.690       42.294       31.227     3213.775     1788.787      975.130        2.204        0.299      195.220       26.383        0.018      343.251       19.227      860.463
07/01/2014  04:06:00     -190.206     -108.511       -4.666       64.448       55.322       37.170     4153.596     3060.482     1381.594        2.828        0.430      218.982       37.956        0.030      343.230       19.192      860.455
07/01/2014  04:07:00     -172.931     -114.982        2.005       51.917       50.018       32.410     2695.348     2501.794     1050.432        2.469        0.312      207.668       31.072        0.022      343.183       19.114      860.459
07/01/2014  04:08:00     -197.422     -110.017       -8.507       49.084       53.562       32.079     2409.248     2868.913     1029.039        2.873        0.315      226.007       26.131        0.013      343.219       19.172      860.482
07/01/2014  04:09:00     -170.182      -97.852      -10.047       47.773       46.789       26.699     2282.290     2189.195      712.824        2.191        0.259      196.308       26.998        0.019      343.255       19.237      860.504
07/01/2014  04:10:00     -150.693     -100.771       -8.287       51.535       53.911       34.575     2655.826     2906.413     1195.436        1.984        0.338      181.282       29.537        0.027      343.304       19.318      860.513
07/01/2014  04:11:00     -168.604     -117.946       -4.111       41.134       48.572       28.417     1691.977     2359.284      807.504        2.361        0.243      205.764       21.095        0.011      343.336       19.373      860.519
07/01/2014  04:12:00     -117.101      -82.135        4.487       65.926       44.568       32.424     4346.191     1986.289     1051.338        1.393        0.369      143.034       33.230        0.054      343.223       19.182      860.529
07/01/2014  04:13:00     -115.022      -94.226        9.674       61.178       48.750       30.888     3742.796     2376.547      954.060        1.464        0.354      148.689       34.036        0.052      343.290       19.296      860.532
07/01/2014  04:14:00      -90.612      -40.290        5.745       60.107       41.685       28.949     3612.802     1737.644      838.038        0.803        0.309       99.166       28.476        0.082      343.251       19.232      860.538
07/01/2014  04:15:00     -122.995      -46.864       -6.475       42.766       24.483       20.036     1828.902      599.440      401.429        1.010        0.141      131.621       12.765        0.009      343.342       19.387      860.540
07/01/2014  04:16:00     -123.446      -23.011       -2.344       36.293       26.393       19.899     1317.185      696.616      395.964        0.909        0.120      125.573       19.132        0.023      343.272       19.266      860.546
07/01/2014  04:17:00     -147.030      -28.522       -4.614       44.801       25.685       18.944     2007.092      659.724      358.875        1.274        0.151      149.771       19.612        0.017      343.128       19.021      860.529
07/01/2014  04:18:00     -138.408      -52.407        3.929       34.783       27.041       17.448     1209.826      731.218      304.417        1.208        0.112      147.998       13.188        0.008      343.175       19.102      860.531
07/01/2014  04:19:00      -86.942      -58.767        1.412       50.977       25.111       18.278     2598.672      630.571      334.102        0.729        0.178      104.940       12.593        0.014      343.222       19.182      860.549
07/01/2014  04:20:00       -5.492      -19.753       10.803       18.690       25.256       11.651      349.333      637.865      135.743        0.083        0.056       20.502        8.004        0.152      343.112       18.995      860.576
07/01/2014  04:21:00       10.609        4.432       18.954       27.701       14.813       17.934      767.360      219.427      321.633        0.090        0.065       11.497       16.364        2.026      342.819       18.495      860.584
07/01/2014  04:22:00      -32.205      -21.302        5.767       36.368       16.732       13.486     1322.644      279.947      181.874        0.165        0.089       38.612       16.962        0.193      342.989       18.786      860.592
07/01/2014  04:23:00      -71.555      -50.766       -1.667       24.981       21.391       13.934      624.035      457.583      194.150        0.449        0.064       87.734       10.555        0.014      343.257       19.240      860.599
07/01/2014  04:24:00      -33.462      -48.166        3.656       31.496       24.547       17.059      992.007      602.546      290.993        0.267        0.094       58.648       14.578        0.062      343.177       19.106      860.604
07/01/2014  04:25:00      -28.780      -35.447        4.468       36.964       25.978       19.361     1366.331      674.871      374.857        0.226        0.121       45.660       18.073        0.157      343.078       18.937      860.618
07/01/2014  04:26:00      -24.188      -41.064       12.287       32.076       28.871       22.246     1028.889      833.523      494.872        0.239        0.118       47.658       22.496        0.223      343.046       18.882      860.625
07/01/2014  04:27:00      -47.928      -27.751        7.982       42.595       25.895       23.283     1814.307      670.526      542.093        0.308        0.151       55.383       25.620        0.214      343.063       18.911      860.628
07/01/2014  04:28:00      -74.550      -72.161       -0.298       24.713       26.973       17.258      610.708      727.559      297.841        0.620        0.082      103.754       12.678        0.015      343.100       18.973      860.633
07/01/2014  04:29:00      -55.934      -39.174       -1.290       44.032       26.086       16.936     1938.818      680.470      286.827        0.379        0.145       68.288       14.583        0.046      343.099       18.972      860.651
07/01/2014  04:30:00      -79.118      -54.609        0.997       29.143       20.786       12.711      849.337      432.063      161.566        0.534        0.072       96.135       10.466        0.012      343.106       18.984      860.656
07/01/2014  04:31:00      -62.923      -36.230        6.952       37.271       31.086       18.427     1389.140      966.339      339.550        0.401        0.135       72.608       13.684        0.036      343.038       18.868      860.669
07/01/2014  04:32:00      -58.112      -42.592       -2.778       34.412       25.520       18.636     1184.162      651.255      347.304        0.369        0.109       72.049       15.518        0.046      343.019       18.836      860.686
07/01/2014  04:33:00      -95.310      -48.142       -3.597       24.935       18.422       11.646      621.760      339.367      135.620        0.626        0.055      106.778        5.028        0.002      342.979       18.768      860.685
07/01/2014  04:34:00      -94.518      -31.179       -6.633       24.396       24.567       12.720      595.185      603.557      161.803        0.565        0.068       99.528       10.491        0.011      342.897       18.628      860.685
07/01/2014  04:35:00      -41.361      -17.619       -1.844       27.757       19.522       12.386      770.426      381.101      153.423        0.166        0.065       44.957       10.700        0.057      342.722       18.329      860.704
07/01/2014  04:36:00      -78.073      -11.117        1.187       30.304       23.486       20.256      918.348      551.575      410.293        0.405        0.094       78.860       18.591        0.056      342.678       18.256      860.713
07/01/2014  04:37:00     -105.268        4.882        0.703       41.006       27.442       25.003     1681.489      753.072      625.134        0.708        0.153      105.382       24.164        0.053      342.642       18.195      860.699
07/01/2014  04:38:00     -119.297      -20.951       -1.315       37.766       22.852       19.440     1426.235      522.236      377.926        0.850        0.116      121.122       16.922        0.020      342.712       18.314      860.678
07/01/2014  04:39:00     -146.874      -13.663       -9.198       25.322       25.669       16.940      641.197      658.894      286.968        1.171        0.079      147.508       12.608        0.007      342.695       18.284      860.668
07/01/2014  04:40:00     -180.766      -41.517      -13.498       35.581       24.308       17.352     1266.024      590.891      301.080        1.837        0.108      185.472       17.119        0.009      342.729       18.342      860.665
07/01/2014  04:41:00     -133.150      -31.905       -6.227       40.389       32.078       22.062     1631.296     1028.989      486.751        1.097        0.157      136.919       24.199        0.031      342.819       18.496      860.645
07/01/2014  04:42:00      -77.145      -59.413       -2.829       52.256       29.952       21.299     2730.733      897.138      453.642        0.678        0.204       97.372       23.923        0.060      342.768       18.408      860.637
07/01/2014  04:43:00     -116.860      -55.127       -8.693       25.295       21.762       15.820      639.823      473.601      250.283        0.907        0.068      129.210        8.896        0.005      342.818       18.496      860.642
07/01/2014  04:44:00     -127.098      -42.532       -7.152       17.154       16.180       14.419      294.274      261.792      207.909        0.939        0.038      134.026       12.501        0.009      342.816       18.490      860.641
07/01/2014  04:45:00     -116.067      -31.881       -6.609       12.610       13.447       10.954      159.001      180.815      119.998        0.750        0.023      120.366        3.980        0.001      342.841       18.534      860.633
07/01/2014  04:46:00     -106.934      -20.563      -12.773       14.601       14.330       12.576      213.195      205.352      158.152        0.630        0.029      108.893       11.619        0.011      342.751       18.379      860.636
07/01/2014  04:47:00     -102.335      -38.951      -10.066       15.322       18.787        9.443      234.750      352.941       89.174        0.638        0.034      109.497        5.656        0.003      342.718       18.323      860.651
07/01/2014  04:48:00     -115.325      -43.396       -7.201       16.937       17.507       12.663      286.868      306.499      160.354        0.799        0.038      123.220        4.480        0.001      342.755       18.388      860.658
07/01/2014  04:49:00     -121.184      -30.907       -8.970       24.426       26.427       17.783      596.645      698.410      316.222        0.867        0.081      125.063       16.914        0.018      342.662       18.229      860.666
07/01/2014  04:50:00      -80.539      -19.691       -1.789       18.700       18.345       12.695      349.701      336.526      161.164        0.386        0.042       82.912       11.774        0.020      342.691       18.276      860.672
07/01/2014  04:51:00      -84.903      -16.551       -9.533       17.890       13.824       10.275      320.047      191.096      105.584        0.409        0.031       86.501        2.977        0.001      342.688       18.272      860.684
07/01/2014  04:52:00      -80.620      -49.970       -4.973       19.932       16.576       12.704      397.271      274.755      161.400        0.493        0.042       94.851        9.791        0.011      342.724       18.333      860.687
07/01/2014  04:53:00      -73.646      -72.141       -2.180       25.562       22.101       23.082      653.426      488.441      532.780        0.615        0.084      103.092       18.517        0.032      342.682       18.262      860.685
07/01/2014  04:54:00     -106.273      -64.244      -11.800       18.656       20.088       10.717      348.062      403.518      114.864        0.821        0.043      124.183        7.490        0.004      342.711       18.312      860.674
07/01/2014  04:55:00      -76.441      -47.400        0.139       31.365       18.774       14.523      983.789      352.448      210.918        0.482        0.077       89.944       17.198        0.037      342.714       18.316      860.686
07/01/2014  04:56:00      -88.943      -59.250       -3.955       24.148       16.062       14.112      583.115      257.975      199.161        0.624        0.052      106.871        9.680        0.008      342.836       18.525      860.695
07/01/2014  04:57:00      -93.282      -62.910       -9.148       20.835       15.978       17.730      434.097      255.304      314.351        0.687        0.050      112.513       10.311        0.008      342.844       18.538      860.695
07/01/2014  04:58:00     -109.353      -54.089      -11.643       17.920       16.270       13.762      321.111      264.700      189.385        0.790        0.039      121.999        9.362        0.006      342.821       18.500      860.699
07/01/2014  04:59:00      -92.819      -47.581      -13.848       18.563       12.553        9.645      344.585      157.575       93.025        0.583        0.030      104.304        4.161        0.002      342.825       18.504      860.709
07/01/2014  05:00:00      -90.559      -46.111      -10.138       17.207       16.248       12.684      296.097      263.997      160.881        0.558        0.036      101.622       10.759        0.011      342.768       18.407      860.713
07/01/2014  05:01:00      -85.726      -54.177       -6.547       21.614       22.444       16.123      467.163      503.752      259.948        0.578        0.062      101.410       10.012        0.010      342.791       18.447      860.706
07/01/2014  05:02:00      -92.076      -72.823       -9.835       13.592       18.141       12.920      184.754      329.103      166.923        0.728        0.034      117.393        9.450        0.006      342.816       18.490      860.706
07/01/2014  05:03:00     -101.777      -61.435       -4.684       20.974       21.852       11.229      439.917      477.492      126.084        0.760        0.052      118.882        9.903        0.007      342.831       18.515      860.705
07/01/2014  05:04:00      -89.705      -46.402       -9.246       21.403       14.205       15.156      458.094      201.791      229.698        0.559        0.044      100.996        9.909        0.010      342.734       18.352      860.699
07/01/2014  05:05:00      -55.485      -22.657       -8.837       16.389       15.829       14.276      268.594      250.550      203.797        0.220        0.036       59.932       12.305        0.042      342.767       18.408      860.714
07/01/2014  05:06:00       -6.642       -6.110        3.962       17.085       10.052       14.404      291.894      101.051      207.469        0.035        0.030        9.025       13.498        2.237      342.670       18.243      860.736
07/01/2014  05:07:00      -40.796      -29.591       -1.968       26.149       15.906       14.667      683.772      252.998      215.119        0.185        0.058       50.397       13.261        0.069      342.814       18.487      860.753
07/01/2014  05:08:00      -81.934      -55.922       -2.502       17.742       14.286       12.355      314.772      204.090      152.650        0.526        0.034       99.199        7.447        0.006      342.826       18.508      860.762
07/01/2014  05:09:00      -97.669      -63.969       -7.018       23.723       17.063       15.040      562.765      291.154      226.193        0.738        0.054      116.753        9.835        0.007      342.784       18.437      860.771
07/01/2014  05:10:00     -114.872      -74.905       -7.189       27.305       31.459       15.296      745.540      989.647      233.982        1.041        0.098      137.136       12.765        0.009      342.706       18.303      860.783
07/01/2014  05:11:00      -96.684      -78.955        1.005       38.455       28.590       21.659     1478.791      817.416      469.093        0.917        0.138      124.827       17.712        0.020      342.683       18.262      860.781
07/01/2014  05:12:00     -123.351      -79.537       -3.057       31.633       24.497       19.090     1000.656      600.097      364.442        1.176        0.098      146.770       14.681        0.010      342.759       18.392      860.779
07/01/2014  05:13:00      -79.378      -69.139       -0.037       40.780       32.209       25.154     1662.991     1037.446      632.718        0.721        0.167      105.267       23.025        0.048      342.809       18.480      860.785
07/01/2014  05:14:00     -113.238      -79.921       -7.341       33.229       30.512       24.262     1104.193      931.010      588.632        1.094        0.131      138.601       19.854        0.021      342.730       18.343      860.788
07/01/2014  05:15:00     -104.569      -63.306       -8.317       34.591       36.872       16.468     1196.512     1359.565      271.207        0.892        0.141      122.239       19.714        0.026      342.777       18.423      860.781
07/01/2014  05:16:00      -63.317      -44.450       -1.388       25.982       20.339       15.606      675.048      413.674      243.533        0.366        0.067       77.362       14.243        0.034      342.762       18.398      860.792
07/01/2014  05:17:00      -77.481      -27.241       -9.015       13.630       10.159       10.185      185.773      103.202      103.730        0.361        0.020       82.131        8.884        0.012      342.746       18.372      860.798
07/01/2014  05:18:00      -92.702      -27.429       -9.981       16.234       15.179        9.353      263.527      230.415       87.478        0.501        0.029       96.675        8.062        0.007      342.687       18.270      860.801
07/01/2014  05:19:00     -123.382      -48.547      -15.697       18.359        9.483        7.974      337.048       89.925       63.586        0.916        0.025      132.589        7.924        0.004      342.652       18.211      860.792
07/01/2014  05:20:00     -138.829      -46.881       -7.195       18.052       16.203       10.434      325.885      262.529      108.878        1.111        0.035      146.531        7.678        0.003      342.645       18.199      860.788
07/01/2014  05:21:00      -73.373      -55.045       -2.006       34.437       22.017       19.144     1185.903      484.759      366.498        0.523        0.102       91.726       14.283        0.024      342.681       18.259      860.803
07/01/2014  05:22:00      -72.117      -66.872        2.066       43.904       28.171       25.138     1927.582      793.593      631.931        0.651        0.168       98.350       21.264        0.047      342.712       18.314      860.829
07/01/2014  05:23:00      -52.066      -47.538        7.986       50.114       37.095       25.573     2511.393     1376.039      653.984        0.479        0.227       70.503       24.761        0.123      342.674       18.248      860.835
07/01/2014  05:24:00      -42.652      -32.893        4.442       31.843       29.372       14.605     1013.957      862.697      213.310        0.251        0.104       53.863       17.546        0.106      342.631       18.174      860.844
07/01/2014  05:25:00      -63.664      -37.075        2.311       19.431       21.152       13.783      377.551      447.402      189.982        0.322        0.051       73.673       10.121        0.019      342.663       18.229      860.841
07/01/2014  05:26:00      -42.417      -27.997        2.672       31.723       18.818       17.281     1006.348      354.132      298.632        0.212        0.083       50.824       19.104        0.141      342.670       18.241      860.851
07/01/2014  05:27:00      -29.067      -18.490        3.715       29.198       18.948       15.759      852.495      359.045      248.338        0.133        0.073       34.449       15.666        0.207      342.618       18.155      860.852
07/01/2014  05:28:00      -83.474      -33.878       -9.482       19.969       12.462        9.699      398.771      155.308       94.080        0.443        0.032       90.086        3.206        0.001      342.670       18.242      860.855
07/01/2014  05:29:00      -28.273      -27.491        7.970       43.921       18.199       18.857     1929.076      331.215      355.573        0.212        0.131       39.435       17.393        0.195      342.592       18.110      860.865
07/01/2014  05:30:00       -1.065      -49.652        4.019       25.555       21.327       19.022      653.035      454.840      361.835        0.198        0.073       49.663       13.492        0.074      342.698       18.288      860.886
07/01/2014  05:31:00      -39.572      -43.140        1.519       38.128       21.761       16.588     1453.749      473.548      275.173        0.282        0.110       58.540       16.343        0.078      342.776       18.422      860.907
07/01/2014  05:32:00      -84.609      -69.755       -4.970       27.268       23.045       19.876      743.532      531.088      395.058        0.686        0.083      109.656       17.246        0.025      342.698       18.289      860.913
07/01/2014  05:33:00      -66.164      -50.188        4.320       40.939       24.779       20.898     1675.978      614.020      436.715        0.482        0.136       83.045       21.441        0.067      342.641       18.194      860.929
07/01/2014  05:34:00      -64.902      -39.054        0.763       34.712       22.624       19.068     1204.958      511.839      363.592        0.391        0.104       75.746       14.690        0.038      342.594       18.111      860.949
07/01/2014  05:35:00      -49.601      -29.446       -2.421       44.526       19.089       20.955     1982.526      364.392      439.128        0.306        0.139       57.683       10.014        0.030      342.576       18.083      860.952
07/01/2014  05:36:00      -72.536      -41.473       -4.778       22.499       28.905       16.714      506.225      835.474      279.364        0.431        0.081       83.555       12.893        0.024      342.634       18.180      860.954
07/01/2014  05:37:00      -97.408      -51.439       -4.126       40.111       25.736       16.677     1608.901      662.363      278.119        0.735        0.127      110.156       17.415        0.025      342.575       18.081      860.957
07/01/2014  05:38:00      -59.107      -47.461        1.341       40.932       30.307       25.547     1675.436      918.499      652.643        0.450        0.162       75.804       19.320        0.065      342.530       18.004      860.957
07/01/2014  05:39:00      -53.484      -45.268        5.064       38.093       30.858       17.751     1451.082      952.226      315.085        0.383        0.136       70.069       20.644        0.087      342.556       18.049      860.958
07/01/2014  05:40:00      -67.894      -56.287       -0.683       33.247       23.311       20.595     1105.333      543.380      424.161        0.493        0.104       88.192       15.657        0.032      342.564       18.062      860.955
07/01/2014  05:41:00      -70.898      -46.628       -5.020       41.232       24.559       13.293     1700.078      603.165      176.709        0.485        0.124       84.857       11.123        0.017      342.513       17.974      860.957
07/01/2014  05:42:00      -72.967      -54.998        0.987       43.046       25.327       14.610     1852.928      641.458      213.446        0.553        0.135       91.373       14.842        0.026      342.505       17.962      860.969
07/01/2014  05:43:00      -55.202      -35.688        0.889       29.357       17.203       14.941      861.833      295.931      223.227        0.285        0.069       65.734       13.240        0.041      342.525       17.997      860.983
07/01/2014  05:44:00      -59.620      -40.675       -2.520       26.048       19.222       12.280      678.481      369.477      150.805        0.321        0.060       72.174       14.467        0.040      342.643       18.197      860.995
07/01/2014  05:45:00      -76.999      -42.874       -4.088       21.089       15.393       11.883      444.730      236.935      141.205        0.430        0.041       88.131       11.456        0.017      342.622       18.160      860.993
07/01/2014  05:46:00      -37.511      -28.086       -0.396       26.904       20.236       12.612      723.833      409.491      159.058        0.174        0.065       46.860        8.197        0.031      342.544       18.027      861.002
07/01/2014  05:47:00      -68.447      -47.522        0.947       33.978       18.919       14.232     1154.498      357.940      202.539        0.433        0.086       83.327       11.947        0.021      342.533       18.010      861.001
07/01/2014  05:48:00      -29.473      -41.679        3.402       28.562       18.961       16.747      815.815      359.519      280.450        0.204        0.073       51.047       10.551        0.043      342.492       17.940      861.005
07/01/2014  05:49:00      -51.844      -33.803       -3.899       22.514       12.649       11.746      506.865      160.007      137.968        0.233        0.040       61.890        6.846        0.012      342.479       17.918      861.014
07/01/2014  05:50:00      -84.178      -41.386       -5.204       20.575       13.013       12.142      423.336      169.339      147.437        0.478        0.037       93.802       12.012        0.016      342.502       17.956      861.018
07/01/2014  05:51:00      -82.184      -25.929       -7.418       11.320        8.977        6.042      128.150       80.594       36.502        0.386        0.012       86.178        4.999        0.003      342.543       18.028      861.019
07/01/2014  05:52:00      -63.037      -33.445       -5.177       19.717       11.909       10.752      388.778      141.821      115.612        0.288        0.032       71.360       11.383        0.025      342.499       17.952      861.018
07/01/2014  05:53:00     -101.378      -20.164       -9.177       11.612        9.193        8.261      134.844       84.503       68.241        0.553        0.014      103.364        4.697        0.002      342.531       18.006      861.029
07/01/2014  05:54:00      -90.815      -27.510      -11.746       13.458       12.726        8.465      181.129      161.958       71.649        0.478        0.021       94.890        6.593        0.005      342.520       17.989      861.032
07/01/2014  05:55:00      -77.118      -33.821       -8.959       10.861       11.955       12.118      117.955      142.913      146.857        0.379        0.020       84.208        7.747        0.008      342.528       18.000      861.049
07/01/2014  05:56:00      -81.293      -40.187       -9.044       17.726       15.273       13.294      314.222      233.254      176.731        0.451        0.036       90.684        6.266        0.005      342.503       17.959      861.064
07/01/2014  05:57:00      -76.810      -47.033       -3.676       21.874       21.703       14.440      478.490      471.004      208.520        0.464        0.058       90.066       11.887        0.017      342.444       17.858      861.074
07/01/2014  05:58:00      -55.612      -51.833        1.545       31.773       32.052       20.883     1009.548     1027.307      436.084        0.413        0.124       76.022       19.238        0.064      342.366       17.724      861.077
07/01/2014  05:59:00      -62.040      -49.400       -2.458       35.358       27.796       18.186     1250.181      772.628      330.723        0.432        0.118       79.306       17.712        0.050      342.408       17.796      861.082
07/01/2014  06:00:00      -96.372      -72.981       -0.816       27.838       26.351       18.864      774.961      694.376      355.837        0.822        0.091      120.887       16.092        0.018      342.460       17.884      861.082
07/01/2014  06:01:00      -75.541      -48.904        6.848       41.780       34.071       17.614     1745.582     1160.809      310.242        0.568        0.161       89.989       19.338        0.046      342.408       17.798      861.093
07/01/2014  06:02:00      -69.937      -51.902        2.598       36.176       26.857       18.958     1308.709      721.305      359.390        0.499        0.119       87.092       20.664        0.056      342.404       17.789      861.097
07/01/2014  06:03:00      -68.657      -47.849        1.654       27.124       23.865       17.223      735.737      569.529      296.647        0.430        0.080       83.686       17.213        0.042      342.492       17.940      861.105
07/01/2014  06:04:00      -71.429      -46.245       -4.438       15.564       15.910       11.754      242.228      253.114      138.152        0.395        0.032       85.092        8.082        0.009      342.548       18.036      861.107
07/01/2014  06:05:00      -79.635      -48.012      -12.409       12.983       17.787       10.598      168.548      316.388      112.317        0.470        0.030       92.989        6.648        0.005      342.572       18.076      861.115
07/01/2014  06:06:00     -100.001      -32.146      -16.932        9.364        8.445        6.947       87.689       71.320       48.259        0.576        0.010      105.041        4.622        0.002      342.515       17.978      861.121
07/01/2014  06:07:00      -89.866      -35.636      -10.718       19.336       10.440       11.121      373.872      108.986      123.670        0.503        0.030       96.674        6.705        0.005      342.486       17.928      861.132
07/01/2014  06:08:00      -96.724      -41.433       -3.774       22.228       16.975       12.667      494.105      288.152      160.462        0.601        0.047      105.225       10.371        0.010      342.437       17.848      861.134
07/01/2014  06:09:00     -100.178      -48.534      -16.211       22.167       17.486       10.106      491.363      305.748      102.128        0.678        0.045      111.316        6.930        0.004      342.421       17.819      861.131
07/01/2014  06:10:00      -90.753      -21.311      -11.347       14.090       17.274       10.626      198.520      298.380      112.906        0.471        0.030       93.222        6.416        0.005      342.454       17.874      861.130
07/01/2014  06:11:00      -94.795      -14.537       -8.308       15.144       12.478       10.290      229.353      155.704      105.887        0.488        0.025       95.903        7.872        0.007      342.479       17.915      861.136
07/01/2014  06:12:00      -86.939      -18.321       -5.939       16.310       12.528       12.633      266.027      156.939      159.587        0.426        0.029       88.849        8.382        0.009      342.504       17.961      861.146
07/01/2014  06:13:00      -89.567      -24.655      -13.021        8.527       11.111        7.552       72.712      123.451       57.033        0.453        0.013       92.899        4.200        0.002      342.467       17.897      861.159
07/01/2014  06:14:00      -86.895      -29.271       -5.402       12.842       17.648       14.287      164.915      311.443      204.115        0.456        0.034       91.693        9.253        0.010      342.455       17.876      861.173
07/01/2014  06:15:00      -77.801      -36.296       -1.252       19.808       11.435       11.581      392.365      130.765      134.113        0.401        0.033       85.850       10.832        0.016      342.493       17.942      861.182
07/01/2014  06:16:00      -83.398      -33.486       -8.617       11.522       15.683        8.070      132.758      245.944       65.130        0.430        0.022       89.869        6.097        0.005      342.506       17.964      861.191
07/01/2014  06:17:00      -53.425      -35.236        0.048       23.899       14.680       11.831      571.158      215.496      139.979        0.251        0.046       63.999        8.888        0.019      342.585       18.096      861.202
07/01/2014  06:18:00      -48.990      -40.022        2.442       27.365       16.984       13.711      748.817      288.449      187.995        0.262        0.061       63.260       14.011        0.049      342.624       18.164      861.211
07/01/2014  06:19:00      -49.387      -45.717       -3.020       23.230       22.718       17.666      539.642      516.103      312.079        0.295        0.068       67.298       17.074        0.064      342.539       18.021      861.225
07/01/2014  06:20:00      -48.424      -61.965        1.810       37.854       33.363       21.415     1432.963     1113.075      458.594        0.460        0.150       78.642       21.402        0.074      342.447       17.862      861.235
07/01/2014  06:21:00      -96.744     -125.209       -6.567       30.487       39.510       21.130      929.445     1561.034      446.463        1.401        0.147      158.230       10.086        0.004      342.467       17.897      861.232
07/01/2014  06:22:00      -96.513     -105.280       -1.845       42.574       49.717       28.629     1812.584     2471.755      819.599        1.275        0.255      142.824       30.333        0.045      342.411       17.801      861.226
07/01/2014  06:23:00      -96.951      -53.303       -2.553       38.569       41.244       24.924     1487.535     1701.080      621.219        0.803        0.190      110.638       14.012        0.016      342.412       17.804      861.232
07/01/2014  06:24:00      -94.051      -38.515       -2.728       43.687       32.593       20.982     1908.593     1062.304      440.264        0.687        0.171      101.632       21.493        0.045      342.434       17.841      861.236
07/01/2014  06:25:00      -97.424      -61.799       -1.185       29.558       26.589       17.804      873.656      706.981      316.986        0.760        0.095      115.371       18.166        0.025      342.491       17.936      861.244
07/01/2014  06:26:00      -53.185      -35.338        7.496       31.852       23.525       15.773     1014.566      553.434      248.801        0.297        0.091       63.854       13.717        0.046      342.474       17.909      861.248
07/01/2014  06:27:00      -44.538      -47.138        2.625       31.995       22.653       18.050     1023.707      513.160      325.803        0.304        0.093       64.850       17.034        0.069      342.555       18.047      861.249
07/01/2014  06:28:00      -43.686      -40.155        4.141       25.188       21.781       14.346      634.439      474.425      205.809        0.243        0.066       59.337       11.165        0.035      342.554       18.045      861.245
07/01/2014  06:29:00      -86.146      -44.737       -2.342       19.721       17.472       15.242      388.914      305.262      232.320        0.518        0.046       97.069        7.687        0.006      342.591       18.108      861.249
07/01/2014  06:30:00      -57.407      -35.284       -4.471       20.174       16.719       12.203      407.000      279.516      148.913        0.270        0.042       67.383        3.862        0.003      342.543       18.026      861.260
07/01/2014  06:31:00      -63.056      -18.252        0.438       29.209       27.238       10.933      853.152      741.923      119.538        0.301        0.086       65.644        9.260        0.020      342.533       18.009      861.256
07/01/2014  06:32:00     -109.321       -1.534      -12.685       20.434       17.372       12.954      417.530      301.772      167.802        0.650        0.044      109.332        9.246        0.007      342.476       17.912      861.252
07/01/2014  06:33:00     -136.212        3.720      -11.333       34.774       17.553       20.111     1209.240      308.096      404.468        1.031        0.096      136.263       17.515        0.017      342.411       17.803      861.255
07/01/2014  06:34:00      -89.077      -10.503       -0.694       28.420       23.440       16.411      807.714      549.426      269.307        0.484        0.081       89.694       17.295        0.037      342.394       17.772      861.257
07/01/2014  06:35:00      -68.392      -13.112        8.275       21.054       19.187       14.973      443.266      368.155      224.193        0.298        0.052       69.638       11.756        0.028      342.522       17.990      861.278
07/01/2014  06:36:00      -89.799      -36.734       -5.220       20.683       12.499       10.636      427.798      156.236      113.123        0.507        0.035       97.022        7.657        0.006      342.580       18.090      861.293
07/01/2014  06:37:00      -44.415      -45.699       -1.304       27.976       18.894       15.662      782.644      356.995      245.295        0.272        0.069       63.726       17.762        0.078      342.661       18.227      861.301
07/01/2014  06:38:00      -81.729      -28.491      -11.905       13.699       17.444        9.198      187.661      304.306       84.595        0.410        0.029       86.553        8.269        0.009      342.639       18.189      861.304
07/01/2014  06:39:00      -72.362      -30.716       -4.584       19.602       15.098       11.799      384.241      227.960      139.223        0.348        0.038       78.612        7.873        0.010      342.706       18.303      861.307
07/01/2014  06:40:00      -43.666      -38.864        0.816       15.411       12.315       11.963      237.509      151.656      143.120        0.197        0.027       58.456        8.810        0.023      342.760       18.393      861.303
07/01/2014  06:41:00      -50.107      -24.363       -6.304        7.213        9.360        7.441       52.026       87.604       55.364        0.167        0.010       55.716        5.485        0.010      342.783       18.434      861.293
07/01/2014  06:42:00      -47.010      -16.628        0.068       16.750       11.026        9.742      280.555      121.578       94.902        0.149        0.025       49.864        7.726        0.024      342.811       18.484      861.295
07/01/2014  06:43:00      -56.103       -2.157       -3.351       13.515       12.349        8.902      182.662      152.505       79.252        0.179        0.021       56.145        7.743        0.019      342.806       18.476      861.286
07/01/2014  06:44:00      -41.307      -11.938       -1.695       11.863        9.247        8.867      140.730       85.503       78.632        0.108        0.015       42.998        7.979        0.034      342.925       18.676      861.285
07/01/2014  06:45:00      -35.160      -17.671        0.137       19.591       16.776       10.203      383.819      281.438      104.096        0.116        0.038       39.350        6.081        0.024      342.975       18.761      861.283
07/01/2014  06:46:00      -28.297       -5.208        7.121       25.732       11.950       10.620      662.128      142.798      112.793        0.090        0.046       28.773        5.895        0.042      343.089       18.954      861.270
07/01/2014  06:47:00      -61.004      -17.578       -3.851       16.314       11.771        8.891      266.144      138.562       79.054        0.226        0.024       63.486        6.866        0.012      342.982       18.771      861.261
07/01/2014  06:48:00      -51.955       -6.819       -3.461       18.231        9.649        7.812      332.363       93.097       61.023        0.162        0.024       52.401        7.960        0.023      342.999       18.803      861.251
07/01/2014  06:49:00      -32.301       -0.922       -2.697       17.652        7.344        9.984      311.596       53.933       99.687        0.076        0.023       32.314        8.236        0.065      343.066       18.917      861.237
07/01/2014  06:50:00      -54.215       -2.773        0.322       22.581       16.632        8.169      509.884      276.629       66.737        0.190        0.043       54.285        6.468        0.014      343.068       18.919      861.236
07/01/2014  06:51:00      -60.950      -28.105        1.669       20.749       17.724       10.926      430.528      314.149      119.381        0.269        0.043       67.117       11.104        0.027      343.143       19.047      861.223
07/01/2014  06:52:00      -62.966      -33.236       -0.930       21.642       20.904       11.993      468.365      436.979      143.828        0.306        0.052       71.199       11.542        0.026      343.164       19.082      861.227
07/01/2014  06:53:00      -79.327      -39.939       -2.128       17.736       18.255       12.760      314.569      333.249      162.808        0.435        0.041       88.814        6.688        0.006      343.237       19.208      861.227
07/01/2014  06:54:00      -44.744      -13.664        1.335       23.862       10.805       12.216      569.377      116.755      149.226        0.151        0.042       46.784        9.135        0.038      343.277       19.275      861.235
07/01/2014  06:55:00      -41.786      -21.082       -2.734        9.695        7.104        5.504       93.997       50.468       30.299        0.119        0.009       46.803        4.024        0.007      343.359       19.415      861.237
07/01/2014  06:56:00      -64.742      -17.657       -4.489       32.595       10.069        9.649     1062.439      101.383       93.112        0.289        0.063       67.106       11.735        0.031      343.430       19.533      861.243
07/01/2014  06:57:00      -47.152       -5.127        4.774       29.566       14.671       13.456      874.163      215.248      181.054        0.177        0.064       47.430       15.904        0.112      343.614       19.850      861.242
07/01/2014  06:58:00      -14.080       -8.299       13.523       13.090       16.793       13.107      171.344      281.994      171.801        0.054        0.031       16.343        9.534        0.340      343.915       20.363      861.243
07/01/2014  06:59:00      -13.668        1.395       12.385       14.832       13.947        9.346      219.987      194.531       87.354        0.042        0.025       13.739        8.234        0.359      343.779       20.131      861.259
07/01/2014  07:00:00      -31.699        9.755       10.961       24.460       12.155       16.366      598.280      147.737      267.834        0.112        0.051       33.166       15.764        0.226      343.860       20.269      861.250
07/01/2014  07:01:00      -37.683       -1.934       12.201       24.573       20.659       16.588      603.837      426.815      275.170        0.144        0.065       37.732       14.210        0.142      343.890       20.320      861.249
07/01/2014  07:02:00      -25.278       -5.501        8.958       15.317       12.863       15.897      234.615      165.468      252.702        0.070        0.033       25.869       12.617        0.238      344.043       20.582      861.244
07/01/2014  07:03:00      -11.804        2.470       25.558        9.216       14.330       14.421       84.941      205.363      207.969        0.065        0.025       12.059        9.985        0.686      344.498       21.359      861.237
07/01/2014  07:04:00       -4.153        8.935       26.940       18.893       15.122       12.842      356.947      228.680      164.924        0.079        0.038        9.853       10.689        1.177      344.001       20.512      861.252
07/01/2014  07:05:00        1.905       14.737       38.837       25.573       17.297       11.929      653.983      299.200      142.310        0.141        0.055       14.860       10.791        0.527      343.898       20.335      861.253
07/01/2014  07:06:00       20.631        8.399       30.724       26.418       18.197       11.819      697.931      331.120      139.693        0.130        0.058       22.275        7.768        0.122      343.631       19.879      861.261
07/01/2014  07:07:00       10.618        9.607       26.985       33.808       22.639       19.428     1143.010      512.545      377.447        0.148        0.102       14.319       12.698        0.786      343.810       20.186      861.271
07/01/2014  07:08:00       16.389        2.411       32.194       18.824       16.335       15.113      354.329      266.834      228.408        0.108        0.042       16.565       11.109        0.450      344.131       20.732      861.271
07/01/2014  07:09:00       19.386        9.189       22.010       17.494       14.978       18.304      306.049      224.352      335.051        0.090        0.043       21.453        6.870        0.103      343.771       20.118      861.283
07/01/2014  07:10:00        6.666        1.855       25.359       20.753       16.864       11.896      430.686      284.401      141.523        0.077        0.043        6.919        6.355        0.844      344.241       20.920      861.280
07/01/2014  07:11:00        9.682       -1.450       16.836       11.846       15.131       13.493      140.326      228.936      182.053        0.047        0.028        9.790        9.369        0.916      343.953       20.429      861.276
07/01/2014  07:12:00        4.248      -18.699        8.058       16.226       19.979       17.032      263.281      399.155      290.086        0.069        0.048       19.176       10.920        0.324      343.955       20.431      861.273
07/01/2014  07:13:00        4.310      -18.554        0.159       19.349       15.650       13.055      374.389      244.934      170.427        0.058        0.039       19.048       10.025        0.277      343.947       20.418      861.277
07/01/2014  07:14:00       42.667      -13.635       -4.738       20.968       12.818       16.859      439.645      164.311      284.231        0.146        0.044       44.793       12.207        0.074      343.503       19.661      861.281
07/01/2014  07:15:00       24.679       -1.295       10.414       20.767       27.490       20.199      431.274      755.686      407.986        0.116        0.080       24.713       20.744        0.705      343.671       19.947      861.274
07/01/2014  07:16:00       54.949      -15.873       -7.657       16.918       16.220       16.700      286.216      263.076      278.878        0.208        0.041       57.196        5.497        0.009      343.605       19.833      861.283
07/01/2014  07:17:00       36.544      -13.535       18.048       19.484       25.142       27.364      379.623      632.117      748.813        0.180        0.088       38.970       16.069        0.170      343.705       20.005      861.283
07/01/2014  07:18:00       25.090       -7.538       22.737       15.097       16.502       19.603      227.927      272.301      384.279        0.104        0.044       26.197       14.264        0.296      343.864       20.275      861.290
07/01/2014  07:19:00       22.262        1.038       33.097       24.211       15.106       13.823      586.175      228.178      191.082        0.130        0.050       22.286       11.128        0.249      344.072       20.633      861.293
07/01/2014  07:20:00       42.735       -9.251       22.903       33.445       17.920       21.979     1118.569      321.122      483.082        0.218        0.096       43.725       14.483        0.110      344.012       20.530      861.290
07/01/2014  07:21:00       34.438       -6.885       25.000       27.367       17.935       20.427      748.953      321.657      417.253        0.167        0.074       35.119       19.576        0.311      344.053       20.600      861.304
07/01/2014  07:22:00       33.457       -2.360       22.898       35.896       22.701       26.589     1288.541      515.333      707.001        0.208        0.126       33.540        4.871        0.021      344.049       20.593      861.319
07/01/2014  07:23:00       17.430        0.449       21.908       20.360       19.171       21.320      414.538      367.512      454.522        0.101        0.062       17.436       17.002        0.951      344.333       21.078      861.318
07/01/2014  07:24:00       19.136        9.783       31.137       37.500       20.778       19.716     1406.287      431.744      388.729        0.183        0.111       21.492       15.952        0.551      344.353       21.111      861.330
07/01/2014  07:25:00        4.913       19.375       33.691       20.888       22.771       19.711      436.315      518.517      388.529        0.144        0.067       19.988       16.188        0.656      344.258       20.950      861.340
07/01/2014  07:26:00       39.726        2.295       26.766       43.642       25.628       21.111     1904.613      656.782      445.660        0.265        0.150       39.792       21.201        0.284      343.982       20.480      861.349
07/01/2014  07:27:00       15.248       -5.997       30.698       32.126       22.505       20.950     1032.087      506.465      438.920        0.159        0.099       16.385       18.457        1.269      344.607       21.546      861.354
07/01/2014  07:28:00       -2.283       -0.817       23.443       29.414       24.559       17.683      865.162      603.135      312.676        0.117        0.089        2.425        5.990        6.103      344.246       20.930      861.342
07/01/2014  07:29:00      -28.400       -2.921       -6.134       14.622       15.578       16.757      213.795      242.659      280.782        0.079        0.037       28.549        6.520        0.052      344.150       20.765      861.337
07/01/2014  07:30:00      -18.934        2.130       -4.679        7.031        8.115        9.153       49.436       65.846       83.778        0.029        0.010       19.053        6.239        0.107      344.408       21.205      861.335
07/01/2014  07:31:00       -2.674      -10.118       -7.175       18.131       16.208       12.663      328.731      262.689      160.354        0.046        0.038       10.465       12.931        1.527      344.455       21.285      861.329
07/01/2014  07:32:00       15.100       -4.441       21.549       16.335       15.138       19.518      266.838      229.165      380.954        0.079        0.044       15.739       12.019        0.583      344.592       21.520      861.320
07/01/2014  07:33:00       12.770        0.057       26.445       24.279       16.544       17.227      589.478      273.719      296.777        0.101        0.058       12.770        6.588        0.266      344.578       21.496      861.311
07/01/2014  07:34:00       21.448       -5.898       20.264       24.828       20.325       25.170      616.427      413.090      633.519        0.128        0.083       22.245       16.839        0.573      344.535       21.424      861.321
07/01/2014  07:35:00       26.264       -7.337       13.409       23.831       30.854       23.991      567.901      951.976      575.566        0.151        0.105       27.270       19.843        0.529      344.478       21.325      861.322
07/01/2014  07:36:00       46.450      -24.863       -8.827       22.208       25.077       23.578      493.198      628.833      555.905        0.227        0.084       52.685       14.904        0.080      344.127       20.725      861.316
07/01/2014  07:37:00       23.704       10.520       10.974       29.264       28.732       26.056      856.376      825.512      678.932        0.158        0.118       25.934       17.796        0.471      344.621       21.571      861.317
07/01/2014  07:38:00        5.398       14.469       30.426       18.249       21.778       17.506      333.019      474.277      306.443        0.114        0.056       15.443       14.678        0.903      344.905       22.057      861.322
07/01/2014  07:39:00       48.883      -15.715       15.593       26.819       16.888       22.011      719.238      285.196      484.468        0.218        0.074       51.347        9.492        0.034      344.383       21.164      861.342
07/01/2014  07:40:00       24.675        2.016       19.839       26.574       15.075       19.892      706.155      227.257      395.675        0.117        0.066       24.757        4.839        0.038      344.557       21.461      861.347
07/01/2014  07:41:00       27.648       28.835       13.014       28.042       16.903       18.109      786.335      285.705      327.924        0.158        0.070       39.949       10.492        0.069      344.569       21.481      861.348
07/01/2014  07:42:00       55.021        2.045       19.699       34.911       23.198       19.380     1218.787      538.136      375.566        0.278        0.107       55.059       19.987        0.132      344.842       21.948      861.355
07/01/2014  07:43:00       57.007       49.585       29.939       23.602       26.659       30.052      557.035      710.687      903.142        0.439        0.109       75.554       20.331        0.072      344.838       21.941      861.341
07/01/2014  07:44:00       37.881       31.244       19.640       40.286       28.948       29.864     1622.923      838.010      891.845        0.307        0.168       49.103       29.210        0.354      345.142       22.461      861.343
07/01/2014  07:45:00       49.513       29.192        3.386       25.418       22.269       17.837      646.061      495.917      318.163        0.239        0.073       57.478        8.696        0.023      344.982       22.188      861.331
07/01/2014  07:46:00       12.636       28.319       14.631       22.183       20.886       24.842      492.097      436.242      617.111        0.136        0.077       31.010       19.260        0.386      345.458       23.003      861.319
07/01/2014  07:47:00       28.170       50.343       -4.156       19.739       26.217       19.673      389.612      687.336      387.008        0.240        0.073       57.688       14.257        0.061      345.145       22.467      861.305
07/01/2014  07:48:00       38.190       42.922       -2.913       21.555       29.084       24.512      464.608      845.902      600.819        0.261        0.096       57.452       17.634        0.094      345.185       22.535      861.293
07/01/2014  07:49:00        5.008       39.175       -3.410       28.533       26.456       22.756      814.159      699.933      517.826        0.180        0.102       39.493       19.275        0.238      345.218       22.591      861.285
07/01/2014  07:50:00       49.604       51.197       21.099       39.179       25.415       23.823     1534.960      645.940      567.521        0.414        0.137       71.286       22.323        0.098      345.409       22.919      861.273
07/01/2014  07:51:00       48.776       56.385       44.305       26.940       19.661       20.730      725.761      386.566      429.752        0.453        0.077       74.554       15.551        0.044      345.176       22.521      861.264
07/01/2014  07:52:00       43.987       27.377       24.033       34.084       21.382       27.327     1161.721      457.172      746.777        0.281        0.118       51.811       25.533        0.243      345.223       22.601      861.262
07/01/2014  07:53:00       28.680       34.206       30.799       19.862       17.438       19.348      394.514      304.094      374.329        0.201        0.054       44.639       12.239        0.075      345.255       22.655      861.254
07/01/2014  07:54:00        6.195       -9.623       25.830       18.418       35.798       17.216      339.226     1281.519      296.381        0.136        0.096       11.445       12.078        1.114      345.810       23.606      861.261
07/01/2014  07:55:00       13.042       13.868       26.788       20.139       30.696       24.784      405.596      942.248      614.257        0.152        0.098       19.037       12.823        0.454      345.798       23.588      861.261
07/01/2014  07:56:00        6.599        3.881       25.524       13.609       25.433       16.208      185.200      646.849      262.691        0.090        0.055        7.656        9.300        1.476      345.873       23.716      861.268
07/01/2014  07:57:00       23.879      -35.881       14.993       22.509       30.304       20.464      506.646      918.358      418.792        0.196        0.092       43.100       11.457        0.071      345.781       23.557      861.278
07/01/2014  07:58:00        1.431       27.410       52.428       22.622       23.905       26.486      511.766      571.429      701.482        0.264        0.089       27.447       23.559        0.737      346.087       24.082      861.268
07/01/2014  07:59:00       -4.441       31.512       57.665       17.564       30.161       13.450      308.483      909.670      180.903        0.287        0.070       31.823       12.375        0.151      346.067       24.047      861.264
07/01/2014  08:00:00       20.540       45.106       41.482       41.822       28.730       26.446     1749.075      825.397      699.391        0.372        0.164       49.562       26.314        0.282      345.754       23.510      861.262
07/01/2014  08:01:00       71.598       27.755       11.571       18.749       19.617       25.019      351.517      384.830      625.962        0.370        0.068       76.789       13.460        0.031      345.294       22.722      861.260
07/01/2014  08:02:00       58.791       33.015       -0.254       22.991       18.575       24.764      528.584      345.023      613.255        0.302        0.074       67.427       15.455        0.053      345.441       22.974      861.261
07/01/2014  08:03:00       99.367       43.126        4.602       28.311       28.274       19.852      801.507      799.445      394.114        0.687        0.100      108.322       10.137        0.009      345.464       23.012      861.261
07/01/2014  08:04:00       89.686       78.446        9.914       23.322       25.372       30.776      543.899      643.756      947.189        0.821        0.107      119.153       18.432        0.024      345.446       22.983      861.265
07/01/2014  08:05:00       61.287       68.060        6.005       22.633       23.115       26.061      512.235      534.323      679.196        0.507        0.086       91.587       12.121        0.018      345.456       22.999      861.268
07/01/2014  08:06:00       38.878       39.003       51.966       45.866       53.625       18.655     2103.652     2875.688      348.020        0.553        0.266       55.070       18.986        0.119      345.855       23.684      861.264
07/01/2014  08:07:00        6.697       14.877       59.505       34.064       39.590       22.991     1160.346     1567.368      528.601        0.353        0.163       16.314       23.848        2.137      346.202       24.280      861.264
07/01/2014  08:08:00       53.188       48.432       24.133       40.439       29.673       34.921     1635.290      880.481     1219.488        0.475        0.187       71.935       29.377        0.167      345.844       23.664      861.273
07/01/2014  08:09:00       76.084       38.373       27.628       42.194       42.357       32.880     1780.301     1794.083     1081.062        0.634        0.233       85.213       21.894        0.066      346.008       23.947      861.270
07/01/2014  08:10:00       35.543       58.373        4.785       31.534       35.851       23.174      994.411     1285.330      537.043        0.375        0.141       68.342       20.438        0.089      345.944       23.838      861.273
07/01/2014  08:11:00       46.965       72.533        2.379       37.240       29.019       26.931     1386.812      842.093      725.265        0.521        0.148       86.410       15.428        0.032      346.118       24.137      861.273
07/01/2014  08:12:00       63.559       49.204       29.015       57.601       40.692       38.016     3317.896     1655.877     1445.220        0.686        0.321       80.379       33.705        0.176      346.269       24.395      861.289
07/01/2014  08:13:00       70.178       39.924       11.655       30.021       22.903       27.779      901.264      524.525      771.657        0.443        0.110       80.739       16.920        0.044      346.138       24.169      861.309
07/01/2014  08:14:00       74.923       51.685        1.605       32.946       27.684       24.272     1085.460      766.427      589.146        0.536        0.122       91.021       14.846        0.027      345.965       23.872      861.320
07/01/2014  08:15:00       66.488       48.099       29.134       30.788       29.488       22.250      947.877      869.566      495.054        0.495        0.116       82.062       11.450        0.019      346.281       24.416      861.322
07/01/2014  08:16:00       72.592       62.481       11.156       29.981       31.742       31.710      898.879     1007.546     1005.506        0.610        0.146       95.778       20.717        0.047      345.966       23.875      861.332
07/01/2014  08:17:00       81.397       46.088       13.126       49.021       45.386       29.549     2403.032     2059.846      873.171        0.713        0.267       93.539       26.353        0.079      346.075       24.062      861.329
07/01/2014  08:18:00       84.479       74.015       12.854       34.721       27.922       27.420     1205.535      779.621      751.870        0.776        0.137      112.316       16.084        0.021      345.982       23.902      861.326
07/01/2014  08:19:00       59.912       52.926        3.682       30.452       23.072       25.208      927.328      532.323      635.453        0.425        0.105       79.941       18.082        0.051      346.203       24.282      861.322
07/01/2014  08:20:00       59.484       58.286        5.941       31.256       30.803       25.465      976.947      948.818      648.460        0.477        0.129       83.280       22.727        0.074      346.508       24.806      861.310
07/01/2014  08:21:00       -2.173      -14.637       34.092       18.146       35.390       20.017      329.261     1252.450      400.682        0.168        0.099       14.797       18.467        1.557      346.704       25.143      861.294
07/01/2014  08:22:00        7.566      -33.392       27.339       23.122       42.731       27.175      534.615     1825.928      738.507        0.251        0.155       34.239       18.505        0.292      346.531       24.847      861.284
07/01/2014  08:23:00        3.827      -69.738        2.764       26.462       36.621       23.232      700.232     1341.098      539.717        0.373        0.129       69.843       12.289        0.031      346.230       24.328      861.279
07/01/2014  08:24:00       -3.347       -5.518       24.121       22.722       26.448       25.380      516.305      699.492      644.133        0.124        0.093        6.453       11.358        3.098      346.806       25.318      861.275
07/01/2014  08:25:00      -17.626      -10.495        2.030       15.911       15.406       11.586      253.165      237.351      134.230        0.052        0.031       20.514        3.959        0.037      346.313       24.471      861.271
07/01/2014  08:26:00      -26.590      -13.151       -0.030       19.041       10.759       14.637      362.554      115.749      214.233        0.079        0.035       29.664        7.703        0.067      346.214       24.301      861.267
07/01/2014  08:27:00       -5.741        6.384       30.383       16.233       18.124       19.585      263.500      328.486      383.566        0.099        0.049        8.586       12.966        2.280      347.157       25.925      861.263
07/01/2014  08:28:00      -28.708        8.859        8.448       20.024       19.426       22.187      400.951      377.389      492.246        0.112        0.064       30.043       14.104        0.220      346.536       24.855      861.260
07/01/2014  08:29:00      -51.604      -21.608       -2.929       19.062       16.484       14.187      363.361      271.706      201.264        0.199        0.042       55.945        8.230        0.022      346.027       23.980      861.257
07/01/2014  08:30:00      -41.601      -17.643        0.914       16.272       13.378       11.224      264.779      178.973      125.980        0.131        0.028       45.187        8.011        0.031      346.130       24.156      861.246
07/01/2014  08:31:00      -20.058      -13.459        2.191       15.490       19.086       13.882      239.947      364.258      192.702        0.069        0.040       24.156       12.450        0.266      346.535       24.853      861.243
07/01/2014  08:32:00      -24.178      -16.033       -5.049       12.606       21.776       17.540      158.902      474.199      307.659        0.090        0.047       29.011       14.826        0.261      346.422       24.660      861.247
07/01/2014  08:33:00        1.424      -46.948       21.596       29.078       29.291       26.624      845.550      857.973      708.846        0.254        0.121       46.969       22.705        0.234      346.702       25.141      861.245
07/01/2014  08:34:00       20.314      -11.979       33.452       25.033       26.819       25.367      626.654      719.249      643.496        0.183        0.099       23.583       14.875        0.398      347.359       26.273      861.245
07/01/2014  08:35:00        3.548      -36.082       12.902       20.032       22.266       25.740      401.300      495.760      662.567        0.152        0.078       36.256       19.076        0.277      346.999       25.653      861.243
07/01/2014  08:36:00      -29.447       -9.993        7.309       25.229       19.337       17.615      636.527      373.936      310.272        0.117        0.066       31.096        8.824        0.081      346.716       25.164      861.230
07/01/2014  08:37:00      -21.241      -13.835       22.955       22.448       19.156       17.164      503.931      366.939      294.595        0.117        0.058       25.349        8.573        0.114      346.868       25.426      861.219
07/01/2014  08:38:00       14.249       41.733       30.279       22.962       24.102       26.210      527.270      580.921      686.975        0.233        0.090       44.099       19.852        0.203      346.871       25.432      861.212
07/01/2014  08:39:00       -6.526       30.260       38.509       18.897       20.467       25.990      357.112      418.916      675.492        0.195        0.073       30.956       15.398        0.247      347.025       25.696      861.198
07/01/2014  08:40:00        0.932       21.866       45.712       16.633       26.004       18.162      276.670      676.227      329.852        0.193        0.064       21.885       11.065        0.256      347.329       26.220      861.185
07/01/2014  08:41:00        0.519       13.591       49.317       21.355       25.545       17.012      456.039      652.538      289.400        0.201        0.070       13.601       15.350        1.274      347.535       26.576      861.185
07/01/2014  08:42:00       26.147       32.721       34.781       21.702       20.499       20.300      470.977      420.193      412.106        0.213        0.065       41.885       12.118        0.084      346.878       25.444      861.184
07/01/2014  08:43:00       17.147       27.983       13.631       31.361       21.834       18.829      983.496      476.741      354.543        0.154        0.091       32.819       13.966        0.181      346.788       25.290      861.181
07/01/2014  08:44:00      -22.059       -5.663        7.625       26.999       19.408       15.219      728.958      376.673      231.614        0.096        0.067       22.774       12.917        0.322      347.084       25.797      861.183
07/01/2014  08:45:00      -41.044      -20.866        5.089       34.183       26.962       17.418     1168.506      726.957      303.372        0.217        0.110       46.043       14.892        0.105      346.698       25.133      861.176
07/01/2014  08:46:00      -26.039       -9.980       15.335       30.023       23.331       21.645      901.405      544.350      468.526        0.146        0.096       27.886       19.555        0.492      346.996       25.648      861.168
07/01/2014  08:47:00      -23.784       -8.655       14.067       28.192       24.918       18.596      794.771      620.893      345.824        0.130        0.088       25.310       19.206        0.576      347.228       26.046      861.162
07/01/2014  08:48:00      -34.942      -26.896       12.503       39.898       19.054       24.336     1591.863      363.055      592.255        0.232        0.127       44.095       24.369        0.305      347.036       25.715      861.154
07/01/2014  08:49:00      -43.280      -92.189       -1.062       22.992       28.611       14.570      528.651      818.597      212.278        0.597        0.078      101.842       10.939        0.012      346.465       24.732      861.147
07/01/2014  08:50:00      -51.175      -67.921       -1.672       27.322       24.773       16.119      746.502      613.678      259.833        0.443        0.081       85.042       16.242        0.036      346.457       24.718      861.135
07/01/2014  08:51:00      -44.200      -46.512        4.278       31.984       31.471       19.564     1022.990      990.426      382.741        0.327        0.120       64.164       20.949        0.107      346.829       25.358      861.128
07/01/2014  08:52:00      -35.328      -28.267       10.063       22.976       24.362       17.029      527.894      593.516      289.980        0.178        0.071       45.245       15.649        0.120      346.965       25.595      861.120
07/01/2014  08:53:00      -45.664      -35.419       -1.683       14.383        9.179        6.093      206.879       84.251       37.125        0.184        0.016       57.790        3.028        0.003      346.545       24.869      861.115
07/01/2014  08:54:00      -33.678      -19.675       -2.869       20.344       24.629       19.267      413.890      606.581      371.233        0.146        0.070       39.004       12.075        0.096      346.842       25.380      861.097
07/01/2014  08:55:00      -14.480      -32.423        4.051       22.287       26.325       15.298      496.711      693.003      234.032        0.135        0.071       35.510       13.116        0.136      346.900       25.482      861.093
07/01/2014  08:56:00      -35.589      -48.230       -0.110       17.084       14.612       13.048      291.852      213.522      170.252        0.213        0.034       59.939       10.840        0.033      346.742       25.208      861.083
07/01/2014  08:57:00      -14.144      -57.295        6.809        9.853       14.319       12.381       97.077      205.031      153.290        0.199        0.023       59.015        3.307        0.003      346.638       25.029      861.086
07/01/2014  08:58:00      -20.940      -35.224       -2.790       12.836       20.513        9.818      164.763      420.770       96.396        0.118        0.034       40.978        9.337        0.052      346.707       25.149      861.084
07/01/2014  08:59:00      -26.009       -2.031        5.116       16.260       10.964       11.182      264.386      120.200      125.036        0.061        0.025       26.088        8.222        0.099      347.069       25.772      861.081
07/01/2014  09:00:00      -13.415       -4.137       12.609       15.000       13.889       18.684      225.014      192.913      349.083        0.056        0.038       14.038       12.530        0.797      347.749       26.945      861.075
07/01/2014  09:01:00      -29.608       14.736       15.605       20.257       13.332       24.351      410.360      177.735      592.954        0.126        0.059       33.072       17.357        0.275      347.813       27.057      861.065
07/01/2014  09:02:00      -43.260        4.548       -7.412        7.083        8.311        8.264       50.169       69.078       68.294        0.107        0.009       43.498        3.260        0.006      346.773       25.262      861.055
07/01/2014  09:03:00      -25.824       -8.040       -2.929       11.667        6.422        7.362      136.115       41.244       54.194        0.049        0.012       27.046        4.329        0.026      346.956       25.577      861.048
07/01/2014  09:04:00      -16.754        5.683        6.066       15.014       14.034       14.215      225.419      196.940      202.058        0.049        0.031       17.692        8.730        0.243      347.616       26.715      861.034
07/01/2014  09:05:00      -36.210      -19.085       -9.777       20.241       17.644       12.965      409.687      311.295      168.099        0.133        0.044       40.931       12.846        0.098      347.080       25.793      861.021
07/01/2014  09:06:00      -58.748      -44.617        8.702       22.084       19.685       15.249      487.693      387.483      232.547        0.331        0.055       73.770       10.075        0.019      346.971       25.603      861.013
07/01/2014  09:07:00      -63.875      -34.295       -7.136       15.021       20.463       12.723      225.616      418.730      161.872        0.306        0.040       72.500        9.346        0.017      346.837       25.371      860.999
07/01/2014  09:08:00      -43.405       -9.649       -0.096       10.676       14.565       12.118      113.986      212.146      146.838        0.122        0.024       44.465        8.192        0.034      346.927       25.528      860.991
07/01/2014  09:09:00      -58.330      -27.003       -3.798       20.719       25.274       18.226      429.292      638.767      332.200        0.277        0.070       64.277       16.829        0.069      346.988       25.632      860.988
07/01/2014  09:10:00      -44.356      -27.517       -3.717       15.817       17.250       11.848      250.192      297.573      140.372        0.171        0.034       52.198        9.376        0.032      346.971       25.601      860.975
07/01/2014  09:11:00      -23.463      -14.451       15.713       24.858       23.683       19.664      617.910      560.901      386.676        0.129        0.078       27.556       17.989        0.426      347.761       26.968      860.972
07/01/2014  09:12:00      -19.169        1.103       14.826       13.805       11.234       14.527      190.579      126.213      211.041        0.056        0.026       19.201        8.875        0.214      348.088       27.530      860.979
07/01/2014  09:13:00      -17.260      -10.815       16.159       27.066       22.124       12.810      732.590      489.457      164.086        0.103        0.069       20.368       15.046        0.546      347.686       26.836      860.976
07/01/2014  09:14:00      -31.041       -6.354        3.893       16.011       18.018       12.129      256.353      324.632      147.124        0.087        0.036       31.685        9.546        0.091      347.363       26.278      860.973
07/01/2014  09:15:00       -7.589      -14.486       29.199       18.068       22.137       16.221      326.448      490.035      263.106        0.110        0.054       16.354       13.726        0.704      348.466       28.186      860.968
07/01/2014  09:16:00      -14.993       12.786       14.999       21.627       27.953       31.433      467.720      781.368      988.038        0.142        0.112       19.704       20.467        1.079      348.357       27.996      860.961
07/01/2014  09:17:00       29.951       42.098       48.074       46.313       32.983       34.686     2144.862     1087.877     1203.112        0.471        0.222       51.665       31.474        0.371      347.955       27.301      860.958
07/01/2014  09:18:00       45.973       59.657       45.136       35.812       25.329       27.309     1282.524      641.553      745.788        0.519        0.133       75.316       18.207        0.058      347.611       26.707      860.943
07/01/2014  09:19:00        4.892      -60.712       21.297       27.747       45.151       20.341      769.911     2038.633      413.738        0.369        0.161       60.909       17.528        0.083      347.691       26.845      860.933
07/01/2014  09:20:00       -0.322       12.677       36.635       20.113       31.296       17.146      404.513      979.435      293.992        0.159        0.084       12.681       14.070        1.231      348.582       28.385      860.917
07/01/2014  09:21:00       -5.128       33.157       52.901       31.958       35.908       32.785     1021.297     1289.403     1074.834        0.365        0.169       33.551       30.474        0.825      348.321       27.933      860.908
07/01/2014  09:22:00       -9.669       37.447       68.623       15.623       32.852       19.864      244.089     1079.221      394.585        0.396        0.086       38.675       12.679        0.107      348.561       28.348      860.906
07/01/2014  09:23:00       34.493       29.243       30.453       42.413       49.070       26.898     1798.867     2407.887      723.513        0.395        0.247       45.221       18.928        0.175      348.229       27.773      860.894
07/01/2014  09:24:00       28.269       45.777       10.680       28.880       27.405       27.072      834.033      751.024      732.911        0.266        0.116       53.802       17.395        0.105      348.004       27.383      860.892
07/01/2014  09:25:00       18.988        0.754       44.724       33.589       40.590       31.070     1128.249     1647.569      965.352        0.305        0.187       19.003       29.049        2.337      348.481       28.210      860.888
07/01/2014  09:26:00       13.667      -13.664       20.041       24.090       26.297       22.157      580.348      691.552      490.949        0.127        0.088       19.325       14.868        0.592      348.197       27.717      860.880
07/01/2014  09:27:00       12.711      -42.873        9.534       33.131       32.547       25.460     1097.678     1059.297      648.223        0.245        0.140       44.718       13.161        0.087      348.142       27.623      860.884
07/01/2014  09:28:00       23.286       49.330       63.853       44.784       39.431       22.049     2005.589     1554.808      486.150        0.555        0.202       54.550       20.587        0.142      348.391       28.054      860.876
07/01/2014  09:29:00       87.557       63.742       20.109       45.568       42.218       37.795     2076.427     1782.348     1428.475        0.871        0.264      108.302       18.890        0.030      347.902       27.209      860.879
07/01/2014  09:30:00       -6.910       84.584      -16.881       41.193       45.131       26.049     1696.861     2036.764      678.567        0.595        0.221       84.866       23.343        0.076      347.758       26.960      860.880
07/01/2014  09:31:00      -23.548       49.434       16.744       25.022       38.558       26.472      626.109     1486.701      700.764        0.305        0.141       54.756       17.078        0.097      348.749       28.675      860.875
07/01/2014  09:32:00       13.459        1.242        4.354       30.576       22.258       28.238      934.902      495.412      797.370        0.121        0.111       13.517       21.608        2.556      348.532       28.296      860.864
07/01/2014  09:33:00       11.815       40.273       42.332       31.772       30.302       21.722     1009.490      918.189      471.844        0.298        0.120       41.971       11.786        0.079      348.668       28.532      860.860
07/01/2014  09:34:00       25.232       62.138       11.726       40.818       49.665       33.934     1666.089     2466.597     1151.490        0.496        0.264       67.066       28.644        0.182      348.363       28.006      860.848
07/01/2014  09:35:00       10.696       10.868       27.740       28.706       19.141       21.679      824.039      366.370      469.959        0.133        0.083       15.248       10.664        0.489      348.937       28.998      860.832
07/01/2014  09:36:00       21.991       11.673       38.906       24.730       15.896       22.277      611.583      252.678      496.286        0.175        0.068       24.897       11.005        0.195      348.913       28.956      860.812
07/01/2014  09:37:00       26.249      -27.790       46.187       40.297       71.192       30.531     1623.871     5068.240      932.161        0.561        0.381       38.227       24.073        0.397      348.699       28.586      860.788
07/01/2014  09:38:00        7.838       40.701        4.171       39.765       34.210       29.717     1581.272     1170.337      883.097        0.268        0.182       41.449       24.631        0.353      348.664       28.525      860.777
07/01/2014  09:39:00       88.230       57.144       26.357       91.572       76.879       35.698     8385.487     5910.418     1274.364        1.365        0.779      105.119       17.455        0.028      348.791       28.744      860.755
07/01/2014  09:40:00      147.327       89.611       43.060       50.655       41.671       38.686     2565.887     1736.467     1496.637        1.869        0.290      172.440       30.376        0.031      348.048       27.460      860.748
07/01/2014  09:41:00       59.824       20.287       28.211       35.492       44.552       26.599     1259.685     1984.846      707.529        0.437        0.198       63.170       13.679        0.047      348.321       27.932      860.742
07/01/2014  09:42:00       12.585       15.111       38.314       20.092       38.807       15.459      403.690     1505.997      238.974        0.200        0.107       19.665       11.950        0.369      348.768       28.707      860.730
07/01/2014  09:43:00       13.780       42.384       -3.254       34.367       41.200       20.213     1181.124     1697.474      408.556        0.264        0.164       44.568       13.144        0.087      348.402       28.072      860.725
07/01/2014  09:44:00       15.396      107.943       -3.116       41.516       53.514       35.882     1723.568     2863.800     1287.522        0.889        0.294      109.035       36.590        0.113      348.618       28.445      860.703
07/01/2014  09:45:00       50.577       91.325       11.933       66.728       38.353       32.650     4452.588     1470.966     1066.036        0.901        0.349      104.395       31.024        0.088      348.583       28.386      860.698
07/01/2014  09:46:00      105.064       66.396       -3.518       50.051       36.316       35.091     2505.065     1318.827     1231.377        1.026        0.253      124.286       28.097        0.051      348.300       27.896      860.681
07/01/2014  09:47:00       64.779       50.781       13.754       57.421       38.862       30.919     3297.134     1510.248      955.957        0.636        0.288       82.310       21.448        0.068      348.581       28.383      860.678
07/01/2014  09:48:00       62.240       31.820       12.249       41.142       38.236       28.107     1692.634     1461.973      789.993        0.449        0.197       69.902       16.057        0.053      348.797       28.756      860.665
07/01/2014  09:49:00       72.397       70.111       51.362       43.913       56.248       36.899     1928.387     3163.814     1361.548        0.962        0.323      100.782       21.148        0.044      348.743       28.662      860.649
07/01/2014  09:50:00       93.078       72.960       18.011       65.205       54.745       41.907     4251.671     2997.069     1756.213        1.166        0.450      118.266       23.520        0.040      348.959       29.037      860.643
07/01/2014  09:51:00       83.347       36.432       51.166       83.285       65.336       56.493     6936.365     4268.826     3191.478        1.264        0.720       90.962       44.763        0.242      348.917       28.963      860.635
07/01/2014  09:52:00       72.484       82.456       88.148       80.859       61.066       59.503     6538.156     3729.059     3540.567        1.681        0.690      109.786       46.455        0.179      348.658       28.513      860.634
07/01/2014  09:53:00       70.045       70.427       56.933       52.360       53.388       48.063     2741.531     2850.268     2310.087        1.050        0.395       99.329       33.937        0.117      348.549       28.325      860.629
07/01/2014  09:54:00      126.997       68.911       53.837      111.496       71.181       60.726    12431.374     5066.761     3687.657        2.248        1.059      144.489       64.145        0.197      348.523       28.279      860.617
07/01/2014  09:55:00       65.258       44.362       83.473       59.529       58.023       40.211     3543.671     3366.693     1616.932        1.086        0.426       78.908       45.461        0.332      348.478       28.202      860.608
07/01/2014  09:56:00      157.571       81.704       30.336       69.127       53.404       49.828     4778.505     2852.025     2482.840        2.127        0.506      177.494       35.156        0.039      348.451       28.155      860.591
07/01/2014  09:57:00      147.561       79.747       39.431       75.928       56.466       46.190     5765.127     3188.447     2133.535        2.039        0.554      167.731       37.670        0.050      348.601       28.413      860.584
07/01/2014  09:58:00      101.331       54.832       30.095       86.281       69.206       46.632     7444.479     4789.456     2174.553        1.429        0.720      115.215       29.615        0.066      348.770       28.707      860.560
07/01/2014  09:59:00       22.911      -43.342       32.225       51.096       68.014       46.663     2610.798     4625.847     2177.407        0.643        0.471       49.025       25.982        0.281      349.189       29.433      860.563
07/01/2014  10:00:00       40.061       49.813       22.166       23.099       16.495       29.073      533.565      272.101      845.231        0.311        0.083       63.923       16.586        0.067      348.550       28.330      860.556
07/01/2014  10:01:00       63.289        9.294        9.105       48.503       35.669       33.901     2352.496     1272.298     1149.256        0.447        0.239       63.968        9.053        0.020      349.043       29.182      860.550
07/01/2014  10:02:00      139.057       76.763       25.939       79.473       52.787       48.007     6315.978     2786.494     2304.663        1.865        0.570      158.837       41.442        0.068      349.009       29.122      860.534
07/01/2014  10:03:00       61.538       35.270       36.831       67.264       67.215       44.006     4524.436     4517.826     1936.498        0.868        0.549       70.929       34.611        0.238      348.968       29.050      860.537
07/01/2014  10:04:00       80.756       76.118        5.436       79.575       43.719       50.876     6332.157     1911.388     2588.374        1.159        0.542      110.976       36.983        0.111      349.083       29.249      860.526
07/01/2014  10:05:00       50.049       38.843       23.692       52.529       43.123       33.037     2759.270     1859.556     1091.411        0.514        0.286       63.354       17.880        0.080      349.183       29.425      860.511
07/01/2014  10:06:00        7.595       21.497       64.022       27.376       55.294       21.590      749.456     3057.399      466.149        0.445        0.214       22.799       23.773        1.087      349.301       29.630      860.512
07/01/2014  10:07:00       33.956        1.984       25.895       41.942       65.195       36.207     1759.169     4250.386     1310.941        0.457        0.366       34.014       28.941        0.724      349.188       29.433      860.491
07/01/2014  10:08:00       -2.749       25.470       31.762       22.061       24.231       16.823      486.680      587.154      283.014        0.151        0.068       25.618        6.567        0.066      349.730       30.373      860.483
07/01/2014  10:09:00       52.161       33.562       32.208       31.280       34.721       29.826      978.463     1205.564      889.593        0.398        0.154       62.026       23.014        0.138      349.194       29.443      860.467
07/01/2014  10:10:00       53.322       50.624       21.892       42.914       42.947       38.209     1841.634     1844.418     1459.929        0.551        0.257       73.525       29.143        0.157      348.893       28.922      860.452
07/01/2014  10:11:00      149.836       80.149        9.041       72.205       63.466       51.169     5213.519     4027.884     2618.222        2.041        0.593      169.925       39.683        0.055      349.235       29.512      860.456
07/01/2014  10:12:00       99.344       74.722       28.052       83.328       66.179       49.807     6943.615     4379.625     2480.745        1.502        0.690      124.308       37.558        0.091      349.355       29.721      860.442
07/01/2014  10:13:00       46.796       75.680       14.262       49.544       57.618       46.880     2454.652     3319.819     2197.704        0.805        0.399       88.979       42.585        0.229      349.388       29.779      860.438
07/01/2014  10:14:00      105.689       74.664       14.607       69.479       45.313       38.414     4827.303     2053.250     1475.644        1.266        0.418      129.402       25.680        0.039      349.107       29.293      860.413
07/01/2014  10:15:00       73.577       52.633        3.100       47.738       42.825       35.736     2278.902     1834.011     1277.057        0.679        0.269       90.464       16.899        0.035      349.150       29.368      860.410
07/01/2014  10:16:00       90.011       75.963        5.784       74.745       55.338       39.438     5586.791     3062.259     1555.348        1.205        0.510      117.781       34.688        0.087      349.275       29.582      860.403
07/01/2014  10:17:00      149.748       90.757       37.328       64.754       54.503       40.952     4193.040     2970.578     1677.030        2.045        0.442      175.104       27.836        0.025      349.338       29.691      860.388
07/01/2014  10:18:00       45.861       65.989       40.713       51.651       48.432       39.635     2667.779     2345.662     1570.901        0.735        0.329       80.361       21.498        0.072      349.421       29.836      860.400
07/01/2014  10:19:00       57.916       46.414       18.825       52.304       27.932       40.399     2735.676      780.190     1632.118        0.550        0.257       74.220       23.517        0.100      349.704       30.327      860.395
07/01/2014  10:20:00       63.991       85.128        9.918       56.393       50.821       44.797     3180.124     2582.777     2006.791        0.960        0.388      106.497       36.432        0.117      349.558       30.074      860.394
07/01/2014  10:21:00       95.695       68.917       71.594       82.626       66.234       63.201     6827.129     4386.973     3994.340        1.712        0.760      117.929       37.371        0.100      349.627       30.194      860.379
07/01/2014  10:22:00       25.243       72.640       79.856       56.174       60.998       32.612     3155.471     3720.710     1063.563        1.011        0.397       76.901       29.090        0.143      349.756       30.419      860.393
07/01/2014  10:23:00       13.543       17.081       29.519       30.192       46.615       42.210      911.544     2173.001     1781.699        0.311        0.243       21.799       39.496        3.283      349.983       30.814      860.399
07/01/2014  10:24:00       63.774       54.192       15.800       58.299       53.853       41.138     3398.831     2900.185     1692.310        0.762        0.400       83.689       19.530        0.054      349.922       30.706      860.393
07/01/2014  10:25:00        4.024        8.991       33.888       26.851       30.527       29.459      720.961      931.878      867.835        0.188        0.126        9.851       18.340        3.466      350.107       31.028      860.399
07/01/2014  10:26:00       71.382       56.691       14.504       60.122       42.515       36.109     3614.600     1807.504     1303.890        0.762        0.336       91.155       16.711        0.034      349.592       30.134      860.413
07/01/2014  10:27:00      103.123       60.267       22.432       53.408       38.501       30.973     2852.377     1482.342      959.344        1.003        0.265      119.442       11.280        0.009      349.207       29.466      860.418
07/01/2014  10:28:00        7.852        9.109       -4.225       60.557       76.564       35.002     3667.120     5862.004     1225.135        0.546        0.538       12.026       33.378        7.703      349.008       29.121      860.418
07/01/2014  10:29:00        6.790      -33.085       18.273       51.752       41.338       37.230     2678.306     1708.867     1386.065        0.362        0.289       33.774       33.743        0.998      349.474       29.929      860.401
07/01/2014  10:30:00       -2.947       26.305       64.244       22.357       39.509       23.756      499.837     1560.955      564.337        0.373        0.131       26.470       26.677        1.016      349.929       30.719      860.405
07/01/2014  10:31:00       46.733       64.339       79.389       84.183       80.285       43.117     7086.801     6445.638     1859.093        1.401        0.770       79.521       40.625        0.261      349.610       30.163      860.408
07/01/2014  10:32:00       55.700       25.798       31.852       71.752       50.129       34.893     5148.288     2512.904     1217.527        0.683        0.444       61.384       25.985        0.179      349.883       30.639      860.417
07/01/2014  10:33:00      144.570       84.065       31.794       84.886       63.469       54.858     7205.582     4028.326     3009.361        2.161        0.712      167.235       30.801        0.034      349.461       29.904      860.415
07/01/2014  10:34:00      101.781       85.944       15.031       70.147       52.749       37.905     4920.627     2782.419     1436.798        1.355        0.457      133.213       32.967        0.061      349.320       29.659      860.418
07/01/2014  10:35:00       87.146       82.366        9.802       66.325       35.313       32.882     4399.027     1246.988     1081.231        1.060        0.336      119.911       21.286        0.032      349.514       29.997      860.403
07/01/2014  10:36:00       50.390      103.384        1.403       53.053       73.530       44.349     2814.609     5406.707     1966.875        1.171        0.509      115.011       40.327        0.123      349.653       30.238      860.401
07/01/2014  10:37:00       -9.191      114.142       -2.032       47.283       52.617       42.631     2235.728     2768.589     1817.376        0.997        0.341      114.511       37.594        0.108      349.239       29.520      860.399
07/01/2014  10:38:00      -15.931       97.511        6.715       37.476       34.397       38.188     1404.463     1183.168     1458.286        0.693        0.202       98.804       19.144        0.038      349.809       30.512      860.397
07/01/2014  10:39:00       -0.749       85.645       15.601       45.191       65.595       33.705     2042.233     4302.762     1136.001        0.753        0.374       85.649       31.129        0.132      349.791       30.480      860.376
07/01/2014  10:40:00      128.290       65.989       43.477       73.029       60.069       53.109     5333.283     3608.262     2820.581        1.723        0.588      144.267       42.050        0.085      349.536       30.033      860.376
07/01/2014  10:41:00       80.766       95.998       54.670       55.184       46.268       46.181     3045.327     2140.771     2132.704        1.302        0.366      125.454       36.133        0.083      349.039       29.173      860.363
07/01/2014  10:42:00       59.397       38.899       51.500       42.072       40.758       33.618     1770.063     1661.211     1130.144        0.613        0.228       71.002       26.037        0.134      349.501       29.976      860.356
07/01/2014  10:43:00       31.496       -0.170       25.816       24.732       22.591       32.867      611.672      510.344     1080.225        0.193        0.110       31.497       13.857        0.194      349.910       30.685      860.346
07/01/2014  10:44:00      -70.033      -67.137      -17.667       46.761       27.532       18.596     2186.567      758.016      345.826        0.651        0.165       97.015       15.484        0.025      348.883       28.903      860.335
07/01/2014  10:45:00      -70.763      -31.524      -14.972       38.545       36.012       27.619     1485.702     1296.889      762.786        0.488        0.177       77.468       12.185        0.025      349.051       29.195      860.309
07/01/2014  10:46:00        6.041      -30.539       18.754       17.249       25.485       18.242      297.516      649.469      332.754        0.130        0.064       31.131        2.294        0.005      349.662       30.256      860.296
07/01/2014  10:47:00      -80.417      -20.935        1.376       46.543       48.257       24.267     2166.267     2328.767      588.864        0.599        0.254       83.098       21.960        0.070      349.370       29.747      860.272
07/01/2014  10:48:00      -63.208       33.650        9.258      102.340       54.707       35.302    10473.550     2992.839     1246.229        0.996        0.736       71.607       12.676        0.031      349.797       30.488      860.258
07/01/2014  10:49:00     -140.994      -13.234        2.577       66.384       49.282       25.666     4406.860     2428.679      658.759        1.378        0.375      141.614       23.312        0.027      349.163       29.389      860.249
07/01/2014  10:50:00     -109.613      -55.209        2.432       50.485       45.312       26.251     2548.746     2053.147      689.117        1.018        0.265      122.732       21.803        0.032      349.331       29.680      860.237
07/01/2014  10:51:00      -68.762      -32.960       -4.912       56.178       36.263       22.154     3156.014     1315.038      490.782        0.540        0.248       76.254       14.048        0.034      349.313       29.648      860.222
07/01/2014  10:52:00      -41.343      -39.539        9.942       65.033       30.023       27.477     4229.346      901.384      754.974        0.463        0.294       57.207       33.394        0.341      349.581       30.114      860.218
07/01/2014  10:53:00      -56.454        1.827      -12.480       30.032       22.223       20.449      901.930      493.846      418.162        0.258        0.091       56.484        3.723        0.004      349.346       29.707      860.215
07/01/2014  10:54:00      -31.423      108.475       -7.259       33.838       69.343       29.792     1145.016     4808.477      887.548        0.982        0.342      112.935       34.554        0.094      349.647       30.229      860.204
07/01/2014  10:55:00       29.428       88.388        6.759       73.180       80.057       43.690     5355.330     6409.066     1908.813        1.120        0.684       93.158       37.956        0.166      350.325       31.408      860.192
07/01/2014  10:56:00       37.718       48.386       17.376       47.976       55.683       46.235     2301.667     3100.602     2137.688        0.580        0.377       61.351       36.325        0.351      350.579       31.848      860.179
07/01/2014  10:57:00       78.566       69.689        5.498       61.729       56.807       40.312     3810.409     3227.065     1625.055        0.986        0.433      105.020       34.019        0.105      350.170       31.137      860.182
07/01/2014  10:58:00       27.902      127.344      -18.171       37.925       54.946       39.592     1438.341     3019.043     1567.559        1.167        0.301      130.365       29.993        0.053      349.901       30.671      860.163
07/01/2014  10:59:00       18.228       69.499        0.881       26.318       30.233       36.235      692.650      914.043     1312.981        0.404        0.146       71.850       24.963        0.121      349.988       30.821      860.153
07/01/2014  11:00:00       40.138       56.801       21.623       46.353       42.072       35.047     2148.601     1770.034     1228.296        0.523        0.257       69.551       27.074        0.152      350.397       31.533      860.146
07/01/2014  11:01:00       94.239       18.087       -5.305       66.877       97.829       45.586     4472.586     9570.469     2078.044        1.268        0.806       95.959       44.070        0.211      349.473       29.925      860.143
07/01/2014  11:02:00       51.586       15.633       18.276       40.757       30.395       31.774     1661.134      923.845     1009.609        0.342        0.180       53.903       16.095        0.089      349.967       30.785      860.124
07/01/2014  11:03:00      185.926      121.959       25.150       78.785       59.910       59.343     6207.138     3589.241     3521.552        3.169        0.666      222.356       35.684        0.026      349.814       30.515      860.119
07/01/2014  11:04:00      213.249      158.339       22.316       86.284       72.384       60.565     7444.943     5239.495     3668.104        4.370        0.818      265.606       43.447        0.027      349.674       30.273      860.115
07/01/2014  11:05:00       69.352       77.544       13.585       78.135       53.296       48.240     6105.049     2840.515     2327.111        1.114        0.564      104.033       39.026        0.141      350.130       31.068      860.102
07/01/2014  11:06:00       93.052       73.705       24.604       51.490       43.180       47.849     2651.189     1864.537     2289.497        1.075        0.340      118.706       29.950        0.064      349.796       30.485      860.107
07/01/2014  11:07:00       74.723       45.157       20.288       63.339       38.124       31.579     4011.838     1453.412      997.264        0.725        0.323       87.308       28.391        0.106      350.174       31.144      860.073
07/01/2014  11:08:00      -13.985      123.554        2.415       47.699       59.421       40.046     2275.181     3530.904     1603.643        1.144        0.370      124.343       36.909        0.088      350.089       30.996      860.054
07/01/2014  11:09:00       -0.652      201.505      -19.351       41.579       49.808       30.298     1728.780     2480.826      917.983        2.305        0.256      201.506       31.026        0.024      349.849       30.577      860.023
07/01/2014  11:10:00        6.901      256.107      -32.537       54.467      105.888       41.345     2966.642    11212.301     1709.402        4.129        0.794      256.200       54.705        0.046      349.759       30.422      860.006
07/01/2014  11:11:00        4.324      225.589      -40.101       58.178       86.140       34.670     3384.721     7420.080     1202.032        3.226        0.600      225.630        7.477        0.001      349.704       30.323      860.002
07/01/2014  11:12:00        8.674       63.413      -14.828       47.735       64.244       32.259     2278.588     4127.298     1040.664        0.588        0.372       64.003       12.696        0.039      350.082       30.985      859.997
07/01/2014  11:13:00       70.196      108.070      -23.156       43.870       53.552       35.021     1924.566     2867.810     1226.465        1.158        0.301      128.867       29.054        0.051      349.860       30.599      859.991
07/01/2014  11:14:00       14.228       -1.893       -5.375       49.095       42.294       32.145     2410.324     1788.791     1033.281        0.273        0.262       14.354       18.850        1.725      350.166       31.131      859.977
07/01/2014  11:15:00       75.864       67.694       36.342       39.907       56.930       37.443     1592.555     3240.975     1401.971        0.895        0.312      101.675       26.068        0.066      350.170       31.138      859.962
07/01/2014  11:16:00      -14.495       41.111       -1.926       31.232       43.681       23.106      975.456     1908.069      533.868        0.266        0.171       43.591       26.424        0.367      350.470       31.658      859.948
07/01/2014  11:17:00      -35.185       81.506        6.147       38.220       46.161       31.517     1460.753     2130.793      993.325        0.625        0.229       88.776       27.601        0.097      350.543       31.787      859.930
07/01/2014  11:18:00       28.270      183.405      -25.386       43.950       64.509       35.818     1931.639     4161.432     1282.920        2.123        0.369      185.571       32.945        0.032      350.055       30.935      859.925
07/01/2014  11:19:00       -8.360       46.566       -3.613       25.023       40.814       30.575      626.130     1665.743      934.826        0.274        0.161       47.311       19.900        0.177      350.229       31.240      859.926
07/01/2014  11:20:00       -8.359       61.606       14.750       28.592       47.383       28.962      817.475     2245.169      838.785        0.399        0.195       62.171       26.445        0.181      350.528       31.760      859.913
07/01/2014  11:21:00      -71.579       61.124      -10.140       29.581       45.407       29.191      875.015     2061.830      852.098        0.638        0.189       94.126       28.344        0.091      350.132       31.071      859.896
07/01/2014  11:22:00      -31.005       58.716        5.770       39.812       44.845       36.258     1584.966     2011.108     1314.678        0.468        0.246       66.399       35.854        0.292      350.790       32.218      859.889
07/01/2014  11:23:00        0.370       20.948       21.909       18.611       21.196       22.593      346.379      449.253      510.462        0.111        0.065       20.951       11.029        0.277      351.291       33.088      859.869
07/01/2014  11:24:00      -34.861       13.793       16.564       24.754       19.657       22.452      612.756      386.400      504.100        0.159        0.075       37.490       13.085        0.122      350.415       31.565      859.862
07/01/2014  11:25:00      -66.009        7.344        5.872       16.716       14.915       17.121      279.420      222.460      293.130        0.262        0.040       66.417        8.940        0.018      350.167       31.131      859.843
07/01/2014  11:26:00      -19.920       17.044       21.996       17.101       19.182       25.490      292.449      367.942      649.727        0.124        0.066       26.217       17.445        0.443      351.019       32.616      859.828
07/01/2014  11:27:00        3.987        9.101       19.001       20.438       21.253       19.318      417.702      451.694      373.193        0.085        0.062        9.936       10.356        1.086      351.206       32.940      859.818
07/01/2014  11:28:00       32.571       -9.046       30.726       25.498       27.148       25.215      650.133      737.011      635.788        0.205        0.101       33.804       13.327        0.155      350.868       32.350      859.802
07/01/2014  11:29:00       31.385       33.691        3.141       32.623       21.664       34.747     1064.254      469.332     1207.332        0.243        0.137       46.045       21.150        0.211      350.577       31.845      859.798
07/01/2014  11:30:00        0.230       21.448       24.983       16.269       20.827       26.396      264.672      433.753      696.761        0.124        0.070       21.449       14.592        0.463      350.540       31.779      859.789
07/01/2014  11:31:00       52.873      -59.312        9.414       44.759      106.474       35.091     2003.377    11336.712     1231.376        1.048        0.729       79.457       30.177        0.144      350.368       31.480      859.793
07/01/2014  11:32:00       59.670       62.627       42.533       91.065       61.504       49.771     8292.876     3782.690     2477.187        1.192        0.728       86.502       33.473        0.150      350.568       31.828      859.787
07/01/2014  11:33:00       18.647       18.481       15.683       29.883       41.281       25.931      892.993     1704.123      672.404        0.210        0.163       26.254       22.836        0.757      350.526       31.756      859.784
07/01/2014  11:34:00       72.358      126.108       -3.218       58.438       64.580       58.172     3415.012     4170.589     3383.945        1.606        0.548      145.393       40.830        0.079      350.056       30.937      859.760
07/01/2014  11:35:00       77.312       97.872       -6.899       53.491       53.796       45.943     2861.309     2894.062     2110.797        1.173        0.393      124.724       35.058        0.079      350.219       31.222      859.731
07/01/2014  11:36:00       93.684       71.043       61.637       52.632       46.042       43.236     2770.084     2119.830     1869.377        1.219        0.338      117.575       28.300        0.058      350.636       31.947      859.713
07/01/2014  11:37:00      149.844      127.198       82.997      114.061       76.416       68.372    13009.825     5839.460     4674.739        3.452        1.176      196.552       55.929        0.081      350.459       31.637      859.701
07/01/2014  11:38:00      139.488      108.152       48.803       79.591       55.515       66.041     6334.690     3081.967     4361.428        2.365        0.689      176.504       52.503        0.088      349.939       30.732      859.720
07/01/2014  11:39:00       23.693       68.231       22.821       68.808       56.288       45.302     4734.593     3168.360     2052.264        0.784        0.498       72.228       34.295        0.225      350.258       31.292      859.710
07/01/2014  11:40:00      -29.831       16.509       16.907       38.483       22.266       21.976     1480.955      495.757      482.932        0.195        0.123       34.094       18.636        0.299      350.633       31.944      859.701
07/01/2014  11:41:00      -69.399      -53.647      -10.283       19.535       55.601       14.865      381.634     3091.451      220.955        0.575        0.185       87.717        5.355        0.004      350.119       31.050      859.694
07/01/2014  11:42:00        1.507      -50.954        9.574       29.294       32.846       23.421      858.126     1078.888      548.554        0.259        0.124       50.977       28.681        0.317      350.237       31.254      859.685
07/01/2014  11:43:00       23.611        1.794       32.612       22.674       26.260       23.131      514.096      689.606      535.023        0.168        0.087       23.679       17.079        0.520      350.816       32.262      859.677
07/01/2014  11:44:00       49.919      -25.942       22.616       41.564       64.752       37.511     1727.597     4192.785     1407.100        0.550        0.366       56.257       33.012        0.344      350.503       31.717      859.672
07/01/2014  11:45:00       56.050       41.825       22.734       36.708       37.402       36.038     1347.493     1398.931     1298.705        0.473        0.202       69.935       23.267        0.111      350.570       31.832      859.656
07/01/2014  11:46:00       63.201       71.326       97.824       76.106       79.587       54.470     5792.059     6334.038     2966.975        1.687        0.755       95.298       53.842        0.319      350.671       32.007      859.651
07/01/2014  11:47:00      104.650       66.107        2.190       60.833       65.137       36.961     3700.666     4242.877     1366.118        1.232        0.465      123.781       23.091        0.035      350.186       31.164      859.645
07/01/2014  11:48:00       62.076       62.744        7.198       35.052       27.649       36.141     1228.644      764.467     1306.206        0.557        0.165       88.262       20.795        0.056      350.527       31.757      859.630
07/01/2014  11:49:00       82.166       43.918       47.642       75.665       49.242       46.653     5725.126     2424.765     2176.530        1.064        0.516       93.167       27.877        0.090      351.148       32.839      859.611
07/01/2014  11:50:00       26.445        5.493       13.074       48.877       45.890       31.286     2389.001     2105.913      978.834        0.319        0.274       27.009       18.920        0.491      350.812       32.253      859.614
07/01/2014  11:51:00       78.666       18.541       77.632       87.501       86.474       60.876     7656.380     7477.707     3705.923        1.570        0.942       80.821       73.032        0.817      350.442       31.610      859.593
07/01/2014  11:52:00       87.621       16.738       48.437       85.725      115.066       71.993     7348.856    13240.139     5183.063        1.803        1.289       89.205       52.344        0.344      350.632       31.940      859.586
07/01/2014  11:53:00      153.766       62.479       59.477      101.004      122.844       74.329    10201.767    15090.695     5524.814        3.095        1.541      165.975       78.476        0.224      350.694       32.045      859.577
07/01/2014  11:54:00      182.409       91.818       45.790       97.048       80.870       56.672     9418.273     6540.034     3211.729        3.148        0.959      204.214       38.455        0.035      350.478       31.671      859.578
07/01/2014  11:55:00      273.243      168.676       40.823       77.823       74.606       49.721     6056.357     5566.036     2472.174        5.943        0.705      321.113       38.929        0.015      350.509       31.722      859.556
07/01/2014  11:56:00      111.123       77.404       16.522       75.122       68.187       51.403     5643.384     4649.418     2642.239        1.577        0.647      135.424       26.752        0.039      350.622       31.921      859.564
07/01/2014  11:57:00       66.694       46.501       20.583       58.857       35.967       30.914     3464.106     1293.625      955.657        0.637        0.286       81.305       18.535        0.052      350.563       31.821      859.525
07/01/2014  11:58:00       86.071       47.454        8.977       74.313       52.257       42.077     5522.426     2730.753     1770.447        0.988        0.501       98.286       14.378        0.021      351.048       32.663      859.504
07/01/2014  11:59:00      106.877      -82.449       14.488      101.677      105.925       59.393    10338.137    11220.063     3527.487        2.175        1.254      134.983       58.352        0.187      351.209       32.944      859.507
07/01/2014  12:00:00       52.336       96.290      132.625       90.135       90.036       63.890     8124.246     8106.505     4081.938        2.495        1.016      109.594       58.274        0.283      351.055       32.675      859.468
07/01/2014  12:01:00       77.714       82.910       91.735       82.333       91.998       65.549     6778.730     8463.578     4296.657        2.043        0.977      113.638       57.405        0.255      350.678       32.019      859.464
07/01/2014  12:02:00        6.074      -32.187       79.403       58.370      125.607       71.723     3407.064    15777.130     5144.242        1.585        1.216       32.755       78.134        5.690      350.838       32.298      859.431
07/01/2014  12:03:00       31.296        8.810       76.988       53.877       80.278       56.504     2902.687     6444.592     3192.652        0.976        0.627       32.512       54.789        2.840      350.917       32.436      859.439
07/01/2014  12:04:00       59.913     -147.735      -16.749       65.124      105.351       48.497     4241.170    11098.741     2351.968        2.169        0.885      159.422       61.719        0.150      350.770       32.179      859.453
07/01/2014  12:05:00       58.690      -39.534       28.333       51.445       49.315       45.457     2646.550     2432.005     2066.373        0.648        0.357       70.763       36.313        0.263      350.988       32.560      859.450
07/01/2014  12:06:00       60.535       63.429       32.775       69.156       47.627       65.500     4782.616     2268.340     4290.245        1.005        0.567       87.680       40.787        0.216      350.759       32.161      859.429
07/01/2014  12:07:00       37.544      -54.264       14.151       43.589       82.068       47.507     1899.976     6735.093     2256.952        0.772        0.545       65.986       44.954        0.464      350.661       31.991      859.425
07/01/2014  12:08:00        3.685       61.749      -23.414       26.461       76.537       21.224      700.186     5857.960      450.466        0.569        0.350       61.859       16.656        0.072      350.526       31.754      859.406
07/01/2014  12:09:00       28.494       21.436        4.027       57.218       44.987       35.464     3273.891     2023.825     1257.692        0.392        0.328       35.657       36.204        1.031      351.249       33.015      859.373
07/01/2014  12:10:00       86.113       35.176       36.144       48.010       57.790       48.114     2304.927     3339.701     2314.999        0.896        0.398       93.020       39.726        0.182      350.889       32.389      859.369
07/01/2014  12:11:00       43.905       78.253      111.609       75.862       72.727       43.057     5755.059     5289.158     1853.882        1.670        0.645       89.728       50.207        0.313      350.854       32.326      859.367
07/01/2014  12:12:00       80.857      -72.940       13.747       45.280       45.027       32.094     2050.313     2027.403     1030.032        0.858        0.255      108.895       25.303        0.054      350.805       32.241      859.348
07/01/2014  12:13:00        6.599       -0.526       17.722       37.421       36.543       32.637     1400.359     1335.421     1065.181        0.208        0.190        6.620       28.200       18.148      351.291       33.088      859.324
07/01/2014  12:14:00      102.178       78.815       19.546       84.956       54.068       36.244     7217.510     2923.382     1313.653        1.424        0.573      129.043       19.169        0.022      351.179       32.890      859.341
07/01/2014  12:15:00      110.187       56.389       29.658       92.838       91.936       54.403     8618.829     8452.250     2959.672        1.811        1.002      123.778       49.349        0.159      351.443       33.352      859.330
07/01/2014  12:16:00      106.569       64.120       26.922       89.422       81.535       56.025     7996.245     6647.934     3138.778        1.699        0.889      124.372       39.621        0.101      351.443       33.352      859.322
07/01/2014  12:17:00      115.809       87.118       17.446       74.401       79.261       54.652     5535.446     6282.348     2986.892        1.805        0.740      144.918       49.163        0.115      351.211       32.948      859.309
07/01/2014  12:18:00       97.777       65.935       51.462       66.894       97.994       52.019     4474.829     9602.814     2706.014        1.667        0.839      117.931       34.669        0.086      351.158       32.856      859.307
07/01/2014  12:19:00      -17.993      -65.863        5.308       68.242       58.204       37.268     4656.939     3387.754     1388.910        0.706        0.472       68.277       36.967        0.293      350.831       32.286      859.308
07/01/2014  12:20:00       49.740        2.330        5.607       49.337       27.061       34.947     2434.144      732.315     1221.263        0.345        0.219       49.795       22.251        0.200      351.063       32.690      859.291
07/01/2014  12:21:00       42.042       34.994       43.036       42.921       42.787       32.095     1842.200     1830.701     1030.059        0.477        0.235       54.700       27.062        0.245      351.016       32.610      859.268
07/01/2014  12:22:00       20.721       39.484       51.015       30.603       56.124       39.583      936.563     3149.852     1566.790        0.512        0.283       44.590       35.698        0.641      351.020       32.615      859.268
07/01/2014  12:23:00        2.243       -4.783       29.373       30.380       40.747       32.745      922.944     1660.312     1072.219        0.227        0.183        5.283       24.929       22.266      351.103       32.760      859.262
07/01/2014  12:24:00       92.113     -100.871      -14.042       72.941       86.741       60.290     5320.382     7523.961     3634.922        1.767        0.824      136.601       60.970        0.199      351.109       32.769      859.246
07/01/2014  12:25:00      103.117     -114.193      -19.206       77.857       60.570       42.985     6061.698     3668.690     1847.707        1.781        0.579      153.861       45.490        0.087      350.898       32.402      859.254
07/01/2014  12:26:00       38.153       -8.343       -0.977       67.200       85.359       43.280     4515.869     7286.225     1873.155        0.760        0.684       39.054       35.960        0.848      350.877       32.367      859.249
07/01/2014  12:27:00        2.653      -18.755       21.257       34.525       48.521       33.388     1191.964     2354.249     1114.756        0.274        0.233       18.942       16.695        0.777      351.363       33.214      859.224
07/01/2014  12:28:00       46.997        9.306       46.121       52.075       55.862       42.739     2711.766     3120.538     1826.652        0.604        0.383       47.910       41.171        0.738      351.502       33.456      859.216
07/01/2014  12:29:00      -18.866       40.765       44.848       72.456       31.520       29.606     5249.927      993.504      876.493        0.557        0.356       44.919       24.723        0.303      351.393       33.267      859.202
07/01/2014  12:30:00       -3.940       -0.939       31.375       51.800       46.196       35.519     2683.291     2134.046     1261.609        0.354        0.304        4.051       26.615       43.175      351.788       33.955      859.185
07/01/2014  12:31:00      101.097       25.220       57.968      106.896      143.958       75.714    11426.666    20723.972     5732.622        2.604        1.894      104.195       73.883        0.503      351.538       33.518      859.166
07/01/2014  12:32:00      109.974       96.275       17.312       79.216       64.551       57.627     6275.170     4166.769     3320.859        1.771        0.688      146.161       10.646        0.005      351.365       33.217      859.182
07/01/2014  12:33:00      106.868       94.198       62.050       66.164       67.906       59.710     4377.656     4611.216     3565.293        1.835        0.628      142.458       38.807        0.074      351.716       33.828      859.168
07/01/2014  12:34:00      204.847      134.609       34.361       73.553       57.800       72.584     5409.995     3340.856     5268.411        3.764        0.701      245.116       38.917        0.025      350.936       32.465      859.174
07/01/2014  12:35:00      188.327      134.169       31.439       84.221       58.718       66.017     7093.121     3447.789     4358.252        3.468        0.745      231.232       45.066        0.038      350.979       32.540      859.186
07/01/2014  12:36:00       27.051      -22.298       -1.648       70.926       47.618       27.300     5030.463     2267.481      745.316        0.464        0.402       35.056       14.111        0.162      350.697       32.052      859.178
07/01/2014  12:37:00       21.438      -87.618        6.141       51.349       47.216       37.478     2636.678     2229.378     1404.572        0.722        0.314       90.202       33.181        0.135      351.030       32.635      859.150
07/01/2014  12:38:00       44.548      -72.076        5.810       59.631       72.504       46.888     3555.834     5256.856     2198.456        0.911        0.551       84.732       24.691        0.085      351.085       32.729      859.130
07/01/2014  12:39:00       60.436     -109.395        6.477       60.525      110.298       60.765     3663.320    12165.639     3692.359        1.759        0.976      124.979       62.304        0.249      351.007       32.591      859.110
07/01/2014  12:40:00       49.556      -16.680       49.158       70.914       87.332       60.240     5028.838     7626.810     3628.916        1.071        0.814       52.288       54.181        1.074      351.476       33.412      859.098
07/01/2014  12:41:00       55.987       82.728       70.659       71.668       81.513       64.543     5136.258     6644.380     4165.742        1.546        0.797       99.892       63.094        0.399      350.952       32.498      859.113
07/01/2014  12:42:00        5.033       30.552      -22.312       35.745       36.039       31.024     1277.687     1298.816      962.470        0.250        0.177       30.964       17.006        0.302      350.854       32.328      859.104
07/01/2014  12:43:00     -198.571      -41.213      -23.914       62.759       58.519       31.703     3938.721     3424.437     1005.071        2.503        0.418      202.803       24.804        0.015      350.769       32.175      859.072
07/01/2014  12:44:00     -223.619     -116.380      -26.112       56.667       59.078       33.423     3211.104     3490.164     1117.126        3.602        0.391      252.091       26.331        0.011      350.675       32.010      859.049
07/01/2014  12:45:00     -148.333     -114.703      -12.791       68.611       42.275       30.349     4707.402     1787.150      921.073        2.137        0.371      187.508       31.468        0.028      350.848       32.315      859.022
07/01/2014  12:46:00      -89.825     -153.384      -11.712       23.309       31.588       22.285      543.289      997.814      496.617        1.688        0.102      177.750       18.438        0.011      350.625       31.931      859.015
07/01/2014  12:47:00     -126.766     -137.487      -10.067       86.307       56.811       43.361     7448.901     3227.501     1880.187        2.381        0.628      187.009       45.082        0.058      350.849       32.316      858.997
07/01/2014  12:48:00     -184.929      -65.760      -18.105       31.454       30.054       31.223      989.362      903.242      974.872        2.086        0.143      196.273       20.861        0.011      350.756       32.157      858.982
07/01/2014  12:49:00      -93.632       16.317        2.461       56.761       62.961       35.788     3221.810     3964.142     1280.768        0.875        0.423       95.043       37.678        0.157      351.167       32.873      858.954
07/01/2014  12:50:00      -45.990       44.638      -10.418       47.917       43.345       31.612     2296.035     1878.813      999.316        0.469        0.259       64.091       23.209        0.131      351.346       33.185      858.941
07/01/2014  12:51:00       -0.355       -3.777       24.711       35.101       34.737       21.168     1232.096     1206.633      448.091        0.176        0.144        3.794       16.951       19.963      351.923       34.191      858.925
07/01/2014  12:52:00      -69.510      -60.685       -8.338       53.273       50.458       29.444     2838.011     2546.010      866.965        0.742        0.313       92.273       25.351        0.075      351.191       32.912      858.906
07/01/2014  12:53:00      -60.110      -57.811        6.138       47.726       45.054       27.384     2277.793     2029.835      749.866        0.602        0.253       83.399       26.167        0.098      351.392       33.265      858.878
07/01/2014  12:54:00        2.244        5.659       22.490       44.891       40.460       31.046     2015.224     1637.013      963.835        0.258        0.231        6.088       26.216       18.544      351.671       33.752      858.879
07/01/2014  12:55:00       25.238       50.599       -2.760       59.317       36.899       29.355     3518.493     1361.539      861.688        0.447        0.287       56.544       32.507        0.331      351.391       33.263      858.878
07/01/2014  12:56:00      -10.889       17.151       56.411       19.081       31.586       18.353      364.087      997.655      336.844        0.265        0.085       20.316        7.126        0.123      352.045       34.404      858.874
07/01/2014  12:57:00      -35.856      -46.141       13.162       24.554       48.636       25.960      602.876     2365.503      673.908        0.361        0.182       58.435       16.784        0.083      351.517       33.483      858.857
07/01/2014  12:58:00      -66.498      -18.255        1.193       40.445       48.065       37.991     1635.834     2310.248     1443.325        0.507        0.269       68.959       26.896        0.152      351.638       33.693      858.831
07/01/2014  12:59:00      -81.550     -266.844      -19.795       56.420       51.708       39.871     3183.188     2673.715     1589.669        4.285        0.372      279.027       21.110        0.006      351.050       32.662      858.812
07/01/2014  13:00:00      -58.249     -221.705        7.184       65.136      120.046       41.988     4242.726    14411.035     1762.976        3.650        1.021      229.229       47.587        0.043      351.061       32.686      858.825
07/01/2014  13:01:00     -163.598     -112.073       -0.178       83.980       74.975       47.052     7052.588     5621.261     2213.848        2.710        0.744      198.305       47.733        0.058      351.172       32.880      858.799
07/01/2014  13:02:00     -161.091      -92.643       -4.016       67.163       49.582       35.623     4510.836     2458.333     1269.013        2.139        0.412      185.831       24.505        0.017      351.088       32.732      858.794
07/01/2014  13:03:00     -119.087      -42.773        4.590       74.038       56.753       28.500     5481.553     3220.858      812.241        1.277        0.476      126.535       34.142        0.073      351.309       33.119      858.793
07/01/2014  13:04:00      -29.495     -111.232      -13.354       57.859       49.673       34.554     3347.679     2467.407     1193.951        1.021        0.350      115.076       26.577        0.053      351.295       33.096      858.780
07/01/2014  13:05:00       34.089      -75.978       12.339       55.782       76.295       51.065     3111.602     5820.976     2607.595        0.931        0.577       83.275       52.754        0.401      351.509       33.468      858.771
07/01/2014  13:06:00       62.314      -14.442       50.541       44.483       57.324       55.204     1978.719     3286.001     3047.503        0.748        0.416       63.966       46.660        0.532      351.367       33.222      858.770
07/01/2014  13:07:00      133.449       71.245       36.854       44.689       62.730       33.398     1997.115     3935.087     1115.437        1.564        0.352      151.276       18.619        0.015      351.082       32.724      858.760
07/01/2014  13:08:00       27.803      -30.562        2.849       38.698       38.354       38.303     1497.556     1471.016     1467.106        0.307        0.222       41.317       19.106        0.214      351.223       32.971      858.760
07/01/2014  13:09:00       99.664       67.877       25.831       43.043       45.980       37.187     1852.722     2114.146     1382.842        1.028        0.267      120.583       22.036        0.033      351.097       32.752      858.736
07/01/2014  13:10:00       49.130      111.688       14.724       46.980       75.624       55.651     2207.098     5718.956     3096.993        1.306        0.551      122.016       51.482        0.178      351.419       33.311      858.725
07/01/2014  13:11:00       -7.437      160.773      -20.261       28.604       46.112       24.568      818.167     2126.348      603.580        1.493        0.177      160.945       23.099        0.021      351.248       33.012      858.708
07/01/2014  13:12:00       -1.573      176.727      -24.370       44.752       41.941       26.222     2002.764     1759.029      687.588        1.814        0.222      176.734       13.059        0.005      351.336       33.166      858.699
07/01/2014  13:13:00       42.342       65.151       13.255       43.605       61.351       31.758     1901.432     3763.898     1008.545        0.644        0.334       77.701       28.863        0.138      351.721       33.837      858.693
07/01/2014  13:14:00       80.301       41.182        9.620       18.598       26.860       18.537      345.900      721.479      343.605        0.482        0.071       90.245       11.025        0.015      351.189       32.911      858.675
07/01/2014  13:15:00        0.924        8.014        4.670       21.081       18.134       21.973      444.414      328.843      482.825        0.067        0.063        8.067       13.861        2.952      351.856       34.074      858.667
07/01/2014  13:16:00       32.459      -29.107       19.182       35.348       31.850       26.187     1249.493     1014.406      685.783        0.261        0.147       43.598       22.815        0.274      351.842       34.050      858.652
07/01/2014  13:17:00       17.660       15.201       38.004       39.646       45.963       29.443     1571.836     2112.581      866.873        0.327        0.228       23.302       32.927        1.997      352.004       34.335      858.638
07/01/2014  13:18:00      -15.064       -9.972       13.918       30.518       35.802       21.718      931.356     1281.787      471.663        0.160        0.134       18.066       18.555        1.055      352.198       34.673      858.635
07/01/2014  13:19:00      -12.649       -8.343       13.922       49.989       48.689       34.402     2498.935     2370.650     1183.513        0.324        0.303       15.153       32.923        4.721      352.069       34.446      858.628
07/01/2014  13:20:00      -23.718      -62.525      -18.892       42.462       36.095       23.138     1802.999     1302.868      535.371        0.423        0.182       66.872       13.923        0.043      351.837       34.041      858.628
07/01/2014  13:21:00      -11.594     -154.265      -17.558       88.625       95.924       49.700     7854.318     9201.475     2470.137        2.188        0.976      154.700       19.401        0.016      351.862       34.082      858.625
07/01/2014  13:22:00     -111.990      -90.492       11.018      146.192      115.826       58.824    21372.108    13415.634     3460.216        2.954        1.912      143.981       57.769        0.161      351.808       33.988      858.614
07/01/2014  13:23:00      -78.623     -202.939       -1.255       90.530      130.627       59.950     8195.655    17063.395     3593.996        3.811        1.443      217.636       67.180        0.095      351.621       33.661      858.617
07/01/2014  13:24:00      -87.839      -89.031       27.159      100.801       78.125       41.877    10160.858     6103.563     1753.674        1.720        0.901      125.069       46.532        0.138      351.945       34.228      858.618
07/01/2014  13:25:00      -66.058      -85.067        6.995       92.736       71.103       47.185     8600.017     5055.702     2226.390        1.376        0.794      107.703       41.507        0.149      351.930       34.203      858.615
07/01/2014  13:26:00      -10.570     -135.878       -1.533      111.462       79.268       54.699    12423.740     6283.465     2991.994        2.013        1.085      136.289       46.994        0.119      351.809       33.990      858.623
07/01/2014  13:27:00      -55.939     -138.009        6.229       92.060       76.891       55.201     8475.042     5912.184     3047.172        1.982        0.872      148.915       41.443        0.077      351.761       33.906      858.619
07/01/2014  13:28:00        2.779      -24.434       32.234       36.362       95.408       55.636     1322.217     9102.758     3095.330        0.758        0.676       24.592       66.902        7.401      351.979       34.287      858.609
07/01/2014  13:29:00      -60.050       47.353       10.676       43.725       32.139       29.041     1911.884     1032.890      843.405        0.487        0.189       76.475       28.786        0.142      351.706       33.812      858.593
07/01/2014  13:30:00       -5.937       35.623       40.356       40.389       51.468       33.018     1631.268     2648.922     1090.204        0.415        0.269       36.115       30.161        0.697      352.347       34.931      858.558
07/01/2014  13:31:00       39.957       11.254       17.078       37.758       49.102       41.930     1425.671     2411.007     1758.098        0.380        0.280       41.511       25.956        0.391      351.829       34.027      858.545
07/01/2014  13:32:00       64.779       65.432       55.491       57.274       43.676       41.071     3280.332     1907.589     1686.849        0.921        0.344       92.074       17.706        0.037      351.783       33.946      858.539
07/01/2014  13:33:00      157.987     -225.992      -12.373      108.723      139.048       79.586    11820.605    19334.338     6333.992        5.683        1.874      275.740       81.002        0.086      351.709       33.813      858.521
07/01/2014  13:34:00      119.477     -182.350       -7.572      126.783      139.603       90.388    16074.027    19488.937     8169.932        4.565        2.187      218.006       99.037        0.206      351.891       34.133      858.513
07/01/2014  13:35:00      119.950     -122.358       17.596       98.520      148.535       88.549     9706.205    22062.598     7840.915        3.463        1.980      171.346      106.870        0.389      351.823       34.013      858.499
07/01/2014  13:36:00       96.176      167.503      171.320      120.545      106.894       92.135    14531.053    11426.241     8488.903        5.055        1.722      193.151       84.229        0.190      351.862       34.083      858.501
07/01/2014  13:37:00      155.477      156.720      137.014      120.883      125.250      103.089    14612.678    15687.511    10627.301        5.421        2.046      220.759       85.756        0.151      351.696       33.790      858.504
07/01/2014  13:38:00       37.886       57.446       84.282       69.056       76.526       38.428     4768.751     5856.224     1476.747        1.197        0.605       68.814       43.735        0.404      352.067       34.441      858.519
07/01/2014  13:39:00       18.410       13.662       47.147       27.812       31.932       26.764      773.485     1019.667      716.323        0.263        0.125       22.926       22.483        0.962      352.021       34.364      858.491
07/01/2014  13:40:00       45.191      -34.081       36.174       49.497      108.037       46.659     2449.935    11672.048     2177.047        1.040        0.815       56.602       55.687        0.968      351.543       33.529      858.480
07/01/2014  13:41:00       66.353       -4.656       35.334       65.100      119.646       69.262     4238.066    14315.154     4797.182        1.451        1.168       66.516       81.068        1.485      352.064       34.437      858.461
07/01/2014  13:42:00       41.588      -24.517       47.991       62.825       92.331       48.635     3946.972     8525.060     2365.374        0.973        0.742       48.277       47.069        0.951      351.992       34.311      858.442
07/01/2014  13:43:00       75.710      -61.309       22.971       62.491      123.398       62.085     3905.106    15227.130     3854.552        1.650        1.149       97.421       70.523        0.524      351.854       34.071      858.437
07/01/2014  13:44:00       50.264      -59.308       44.490       67.337       99.015       56.501     4534.334     9803.966     3192.366        1.277        0.877       77.743       62.125        0.639      352.124       34.540      858.432
07/01/2014  13:45:00       33.292     -105.024       21.196       54.785       93.829       62.467     3001.401     8803.891     3902.149        1.414        0.785      110.175       57.970        0.277      351.794       33.965      858.418
07/01/2014  13:46:00      116.321     -213.079      -15.497      159.474      171.154       50.949    25431.970    29293.824     2595.839        5.824        2.866      242.761       90.521        0.139      351.869       34.096      858.382
07/01/2014  13:47:00       77.797     -119.862       -5.777      128.168      132.472       77.435    16426.992    17548.788     5996.103        3.021        1.999      142.896       96.393        0.455      351.939       34.217      858.358
07/01/2014  13:48:00      124.568     -118.087        5.311       85.629       94.787       61.401     7332.296     8984.601     3770.060        2.479        1.004      171.644       66.545        0.150      351.996       34.316      858.376
07/01/2014  13:49:00      136.536     -128.717      -21.127       77.255      105.491       53.372     5968.403    11128.333     2848.570        2.780        0.997      187.644       56.272        0.090      351.884       34.120      858.349
07/01/2014  13:50:00       67.725       61.623       88.187       72.704      106.188       71.165     5285.879    11275.931     5064.413        1.889        1.081       91.565       70.724        0.597      352.191       34.658      858.345
07/01/2014  13:51:00      123.561        9.231       30.254       71.884      107.614       49.669     5167.257    11580.672     2467.011        1.774        0.961      123.906       37.645        0.092      351.998       34.321      858.346
07/01/2014  13:52:00      135.395       75.588       12.890      101.071       81.827       55.090    10215.354     6695.599     3034.877        2.208        0.997      155.066       37.102        0.057      352.063       34.432      858.318
07/01/2014  13:53:00      101.061       42.037       91.564      126.540      121.571       76.803    16012.293    14779.592     5898.626        2.852        1.835      109.455       97.454        0.793      352.061       34.429      858.326
07/01/2014  13:54:00      140.860     -109.925       10.664      110.318       91.330       60.707    12169.952     8341.241     3685.306        2.811        1.210      178.676       63.641        0.127      351.964       34.260      858.296
07/01/2014  13:55:00       41.671     -197.422      -27.137       96.069      120.500       76.158     9229.322    14520.274     5799.967        3.549        1.477      201.772       79.954        0.157      351.930       34.199      858.268
07/01/2014  13:56:00       64.761     -101.679       14.691       61.319      150.936       63.803     3760.048    22781.584     4070.850        2.268        1.531      120.551       81.397        0.456      351.839       34.042      858.280
07/01/2014  13:57:00      107.226       38.950       20.275       68.599       53.843       52.147     4705.773     2899.027     2719.266        1.187        0.516      114.081       46.553        0.167      351.385       33.251      858.253
07/01/2014  13:58:00       41.443        0.728       -3.651       44.655       51.007       29.912     1994.035     2601.735      894.752        0.361        0.275       41.450       25.965        0.392      351.612       33.649      858.219
07/01/2014  13:59:00       36.084      -18.207        2.083       32.186       50.560       35.851     1035.955     2556.349     1285.291        0.326        0.244       40.418       26.251        0.422      351.430       33.331      858.218
07/01/2014  14:00:00      133.743     -129.496      -10.312      114.248      145.182      106.593    13052.691    21077.673    11362.130        4.012        2.275      186.162      100.027        0.289      351.859       34.076      858.161
07/01/2014  14:01:00       65.362     -146.089        9.289       90.750       90.822       59.290     8235.480     8248.625     3515.311        2.285        1.000      160.044       58.116        0.132      351.778       33.935      858.185
07/01/2014  14:02:00       21.754     -130.296      -21.664       51.857       69.057       41.209     2689.101     4768.857     1698.146        1.354        0.458      132.099       26.401        0.040      351.921       34.185      858.161
07/01/2014  14:03:00      -40.403      -18.119      -11.633       57.301       49.776       40.509     3283.394     2477.659     1640.977        0.475        0.370       44.280       30.695        0.481      351.843       34.052      858.133
07/01/2014  14:04:00      -85.832      -57.786       12.705       60.953       48.547       31.770     3715.294     2356.835     1009.339        0.897        0.354      103.472       35.573        0.118      351.826       34.021      858.110
07/01/2014  14:05:00      -95.405      -71.315       -3.609       66.046       39.179       33.217     4362.127     1535.001     1103.358        1.060        0.350      119.113       35.611        0.089      351.888       34.130      858.100
07/01/2014  14:06:00      -98.901      -60.255       -0.403       59.661       58.659       33.331     3559.384     3440.926     1110.927        1.076        0.406      115.811       40.478        0.122      351.964       34.262      858.104
07/01/2014  14:07:00       44.608       27.202       11.298       69.597       45.670       25.753     4843.768     2085.759      663.208        0.522        0.380       52.248       13.280        0.065      351.777       33.937      858.110
07/01/2014  14:08:00       75.360       39.770       31.011       53.099       47.118       37.581     2819.489     2220.152     1412.298        0.734        0.323       85.211       20.473        0.058      352.209       34.691      858.102
07/01/2014  14:09:00      132.466       79.223       73.276      102.042      104.933       68.385    10412.622    11010.845     4676.451        2.764        1.305      154.348       69.750        0.204      351.766       33.915      858.084
07/01/2014  14:10:00      207.553       66.707       32.817      111.092       91.437       67.457    12341.346     8360.647     4550.492        3.692        1.263      218.010       43.811        0.040      352.098       34.493      858.057
07/01/2014  14:11:00       95.058       41.400       82.154       87.569      107.854       74.550     7668.338    11632.436     5557.674        2.117        1.243      103.682       72.800        0.493      352.185       34.647      858.051
07/01/2014  14:12:00      140.339      109.287      155.932      152.539      105.894       92.464    23267.997    11213.639     8549.577        4.949        2.152      177.873       84.287        0.225      351.976       34.281      858.040
07/01/2014  14:13:00       70.723        5.843       87.713      109.916       79.698       58.541    12081.562     6351.827     3427.092        1.729        1.093       70.964       37.691        0.282      352.189       34.655      858.055
07/01/2014  14:14:00       77.445     -111.200      -23.721       74.029       79.208       39.589     5480.300     6273.863     1567.301        1.612        0.666      135.511       41.669        0.095      352.154       34.592      858.062
07/01/2014  14:15:00       29.589      -37.070        7.254       34.025       28.295       24.136     1157.694      800.586      582.555        0.242        0.127       47.431       13.475        0.081      352.302       34.853      858.051
07/01/2014  14:16:00       34.541      -39.859       31.556       26.658       31.041       28.762      710.641      963.523      827.235        0.314        0.125       52.743       18.717        0.126      352.150       34.588      858.039
07/01/2014  14:17:00      -36.174       63.114       -1.797       34.361       70.625       27.281     1180.653     4987.951      744.241        0.610        0.346       72.745       31.118        0.183      352.142       34.576      858.025
07/01/2014  14:18:00     -128.759       48.666      -18.188       47.369       31.652       33.510     2243.840     1001.870     1122.948        1.182        0.218      137.649       21.493        0.024      351.936       34.214      858.004
07/01/2014  14:19:00     -116.621      -12.143       -5.120       31.724       52.848       32.366     1006.427     2792.906     1047.554        0.931        0.242      117.252       24.099        0.042      351.941       34.222      857.960
07/01/2014  14:20:00     -107.379        6.983       -3.910       27.770       27.763       21.277      771.162      770.767      452.726        0.679        0.100      107.606       10.345        0.009      351.935       34.212      857.917
07/01/2014  14:21:00      -44.602       69.052        4.671       46.044       74.788       35.340     2120.024     5593.221     1248.894        0.787        0.448       82.204       37.917        0.213      352.296       34.843      857.865
07/01/2014  14:22:00      -58.759      137.398       -5.999       51.619       72.538       39.961     2664.538     5261.804     1596.876        1.594        0.476      149.435       34.230        0.052      352.352       34.940      857.838
07/01/2014  14:23:00      -64.867       46.794       19.951       60.783       31.886       35.904     3694.596     1016.709     1289.062        0.640        0.300       79.984       23.755        0.088      352.627       35.422      857.821
07/01/2014  14:24:00      -83.638      103.685       -2.580       70.084       55.881       46.038     4911.748     3122.723     2119.534        1.395        0.508      133.214       47.527        0.127      352.277       34.809      857.797
07/01/2014  14:25:00      -12.895      155.302      -11.194       47.020       53.637       41.386     2210.856     2876.919     1712.818        1.560        0.340      155.837       30.981        0.040      352.406       35.035      857.786
07/01/2014  14:26:00       12.413       62.316       23.520       33.429       61.675       45.596     1117.530     3803.831     2078.997        0.579        0.350       63.540       45.842        0.521      352.603       35.380      857.802
07/01/2014  14:27:00       59.590       19.416       10.354       51.382       31.696       28.737     2640.099     1004.648      825.837        0.425        0.224       62.674       12.202        0.038      352.282       34.821      857.801
07/01/2014  14:28:00       57.797       47.098        6.371       81.093       69.903       42.483     6576.012     4886.378     1804.777        0.943        0.663       74.557       28.894        0.150      352.300       34.849      857.782
07/01/2014  14:29:00      239.657      118.683       45.879      109.469       87.521       88.692    11983.566     7660.005     7866.269        5.056        1.375      267.434       63.696        0.057      352.165       34.609      857.755
07/01/2014  14:30:00      188.368      129.036       10.450       84.436       63.079       58.440     7129.495     3978.965     3415.289        3.338        0.726      228.326       34.967        0.023      352.286       34.820      857.740
07/01/2014  14:31:00      195.579      123.731       23.938       84.549       84.003       54.967     7148.571     7056.556     3021.324        3.568        0.861      231.431       25.624        0.012      352.066       34.437      857.713
07/01/2014  14:32:00       82.955       66.372       33.465       83.259       80.668       72.815     6932.093     6507.261     5301.996        1.557        0.937      106.239       52.072        0.240      352.146       34.580      857.697
07/01/2014  14:33:00      133.921     -143.779       25.237      129.312      167.211       93.698    16721.652    27959.435     8779.310        4.634        2.673      196.487      110.156        0.314      352.303       34.852      857.686
07/01/2014  14:34:00      164.919      -39.017       79.972      147.718      139.382       97.603    21820.549    19427.445     9526.329        4.294        2.539      169.472      112.330        0.439      352.368       34.966      857.690
07/01/2014  14:35:00      155.942       40.669       53.138      151.260      157.846       80.437    22879.517    24915.265     6470.056        4.152        2.713      161.158       96.498        0.359      352.116       34.523      857.685
07/01/2014  14:36:00      226.344      101.352       56.767      135.221      113.776       74.460    18284.602    12945.053     5544.242        5.074        1.839      248.000       61.130        0.061      352.571       35.321      857.673
07/01/2014  14:37:00      236.021       88.129       40.900      123.550       97.661       75.160    15264.603     9537.728     5649.089        4.779        1.523      251.937       75.454        0.090      352.805       35.730      857.678
07/01/2014  14:38:00      260.620      174.038       46.801       78.010       59.817       59.817     6085.552     3578.067     3578.099        5.682        0.662      313.388       30.358        0.009      352.024       34.364      857.702
07/01/2014  14:39:00      209.935      156.120       36.885       89.060       71.595       61.467     7931.672     5125.804     3778.158        4.332        0.842      261.622       34.377        0.017      352.140       34.566      857.691
07/01/2014  14:40:00      143.844       85.992       58.627       80.256       65.127       61.432     6441.020     4241.501     3773.907        2.299        0.723      167.588       40.669        0.059      352.327       34.895      857.691
07/01/2014  14:41:00      121.926       62.617      102.523       97.835       82.769       79.702     9571.778     6850.642     6352.392        2.603        1.139      137.065       70.880        0.267      352.134       34.558      857.685
07/01/2014  14:42:00      112.842       53.178      118.180      107.724      114.603       89.802    11604.517    13133.884     8064.319        3.116        1.640      124.745       83.382        0.447      352.463       35.132      857.689
07/01/2014  14:43:00      121.650        5.176       75.757      103.124       72.085       63.002    10634.543     5196.225     3969.226        2.018        0.990      121.760       50.848        0.174      352.128       34.548      857.694
07/01/2014  14:44:00       75.680        1.813       30.061       63.264       72.509       42.994     4002.310     5257.549     1848.482        0.887        0.555       75.702       43.745        0.334      352.061       34.433      857.679
07/01/2014  14:45:00       50.061      -72.542       20.714       85.860      103.656       58.479     7371.859    10744.500     3419.845        1.486        1.077       88.139       55.556        0.397      352.354       34.944      857.678
07/01/2014  14:46:00       76.074     -115.390        0.302       65.713       81.223       50.210     4318.141     6597.100     2521.033        1.627        0.672      138.210       49.883        0.130      352.290       34.831      857.652
07/01/2014  14:47:00       35.696     -112.032      -17.412       42.527       62.657       46.804     1808.521     3925.925     2190.591        1.103        0.396      117.582       28.274        0.058      352.167       34.617      857.656
07/01/2014  14:48:00       15.662      -64.248       20.850       56.666       67.887       41.605     3211.055     4608.640     1731.004        0.718        0.478       66.129       37.863        0.328      352.381       34.992      857.649
07/01/2014  14:49:00      126.527     -120.317        7.072       84.072      145.070       86.167     7068.057    21045.215     7424.692        3.303        1.777      174.600       94.865        0.295      352.375       34.979      857.617
07/01/2014  14:50:00       91.052     -111.109       -3.568       82.348       95.522       60.007     6781.265     9124.501     3600.854        2.007        0.975      143.651       64.492        0.202      352.058       34.425      857.626
07/01/2014  14:51:00      -20.975     -111.851       13.008      129.834      121.303       50.411    16856.798    14714.370     2541.312        2.361        1.706      113.800       37.629        0.109      352.657       35.473      857.600
07/01/2014  14:52:00       -2.846      -92.890       28.981      110.837      127.571       68.265    12284.943    16274.324     4660.050        2.134        1.661       92.933       80.987        0.759      352.361       34.955      857.606
07/01/2014  14:53:00       51.643      -85.373       25.495       95.869       78.546       53.619     9190.931     6169.424     2875.011        1.442        0.912       99.778       55.170        0.306      352.286       34.826      857.577
07/01/2014  14:54:00      -79.308     -103.484      -14.945       91.757       55.957       35.958     8419.350     3131.232     1292.971        1.503        0.642      130.380       18.165        0.019      352.315       34.876      857.555
07/01/2014  14:55:00      -81.915      -30.788       -5.634       49.603       45.234       30.283     2460.439     2046.091      917.074        0.656        0.271       87.510       25.531        0.085      352.144       34.577      857.531
07/01/2014  14:56:00       20.200      120.796       -4.102       48.142       51.577       38.378     2317.661     2660.171     1472.837        1.073        0.323      122.473       31.108        0.065      352.490       35.184      857.499
07/01/2014  14:57:00       45.292      -29.135       -3.534       67.675       96.009       35.742     4579.853     9217.785     1277.456        0.899        0.754       53.854       23.127        0.184      352.502       35.204      857.509
07/01/2014  14:58:00       54.871     -163.118       11.679      100.053      105.486       65.105    10010.535    11127.278     4238.716        2.756        1.269      172.100       48.952        0.081      352.485       35.173      857.508
07/01/2014  14:59:00       69.952     -130.162       19.404       67.652       66.149       48.010     4576.774     4375.712     2304.998        1.673        0.563      147.769       44.463        0.091      352.137       34.563      857.502
07/01/2014  15:00:00       19.244      -49.965       10.876       56.987       52.286       44.319     3247.492     2733.811     1964.175        0.546        0.397       53.543       42.564        0.632      352.239       34.743      857.459
07/01/2014  15:01:00       83.560      -25.582       51.074       67.183      133.228       76.096     4513.568    17749.618     5790.647        1.914        1.403       87.388       84.453        0.934      352.185       34.648      857.421
07/01/2014  15:02:00      133.589       59.971      104.093      126.638      124.114       75.686    16037.257    15404.223     5728.442        3.472        1.858      146.432       74.757        0.261      352.566       35.313      857.430
07/01/2014  15:03:00       62.739      -95.977       21.371       80.005      121.628       64.047     6400.790    14793.332     4101.989        1.945        1.265      114.664       47.321        0.170      352.879       35.863      857.490
07/01/2014  15:04:00        0.124      -16.326       27.152       39.710       69.105       42.284     1576.896     4775.495     1787.900        0.457        0.407       16.326       19.026        1.358      352.878       35.861      857.514
07/01/2014  15:05:00        1.636        4.962        0.066       58.488       84.542       59.066     3420.902     7147.405     3488.779        0.704        0.703        5.225       40.125       58.974      352.617       35.404      857.488
07/01/2014  15:06:00       -8.167       74.210        3.419       53.220       69.974       41.526     2832.402     4896.318     1724.390        0.752        0.473       74.658       26.753        0.128      352.676       35.509      857.454
07/01/2014  15:07:00       99.692       21.233       28.921       52.515       61.679       47.919     2757.801     3804.355     2296.208        1.004        0.443      101.928       35.349        0.120      352.309       34.866      857.436
07/01/2014  15:08:00       61.123     -103.503        3.690       64.946       75.015       40.791     4218.016     5627.250     1663.898        1.298        0.575      120.203       47.041        0.153      352.550       35.288      857.412
07/01/2014  15:09:00      166.850      117.076       98.201      136.507       94.227       75.786    18634.264     8878.728     5743.461        4.222        1.663      203.827       46.212        0.051      352.568       35.315      857.388
07/01/2014  15:10:00       52.865       77.804      101.683       79.797       70.413       61.644     6367.511     4957.931     3800.003        1.715        0.756       94.064       54.379        0.334      352.311       34.870      857.374
07/01/2014  15:11:00       28.931      -41.276       38.063       68.568      115.966       66.625     4701.638    13448.040     4438.930        1.329        1.129       50.405       75.508        2.244      352.517       35.228      857.377
07/01/2014  15:12:00        6.994      -32.045       28.282       51.595       37.130       31.413     2662.036     1378.673      986.757        0.345        0.251       32.799       25.990        0.628      353.016       36.105      857.390
07/01/2014  15:13:00       -9.360       -9.222       42.708       68.132       66.624       45.657     4642.003     4438.739     2084.520        0.658        0.558       13.140       47.507       13.071      352.770       35.672      857.377
07/01/2014  15:14:00       35.928      -42.792       48.953       78.376      104.232       70.348     6142.806    10864.310     4948.809        1.373        1.098       55.875       71.880        1.655      352.903       35.904      857.371
07/01/2014  15:15:00       36.563       -5.086       50.503       73.884       86.961       56.778     5458.794     7562.178     3223.738        1.008        0.812       36.915       54.057        2.144      352.739       35.618      857.365
07/01/2014  15:16:00     -112.841      -83.293       -2.326      103.573       89.865       48.541    10727.281     8075.679     2356.226        2.041        1.058      140.253       43.210        0.095      352.923       35.939      857.361
07/01/2014  15:17:00     -138.589      -98.098       18.223      168.814      134.421       69.188    28498.299    18069.086     4787.012        4.025        2.568      169.794       93.049        0.300      352.478       35.159      857.338
07/01/2014  15:18:00     -183.248     -191.831        1.017      167.587      106.788       65.966    28085.369    11403.762     4351.536        5.710        2.192      265.291       72.366        0.074      352.381       34.988      857.345
07/01/2014  15:19:00     -340.780     -118.812       -1.821      132.667       98.756       57.001    17600.546     9752.678     3249.094        8.042        1.530      360.898       62.440        0.030      352.207       34.684      857.301
07/01/2014  15:20:00     -246.557      -86.506        1.355      146.277       85.130       53.196    21396.969     7247.086     2829.797        4.987        1.574      261.292       55.530        0.045      352.373       34.974      857.244
07/01/2014  15:21:00     -154.441       16.693       -8.138       80.928       62.468       38.866     6549.359     3902.288     1510.537        1.808        0.598      155.341       35.453        0.052      352.413       35.045      857.231
07/01/2014  15:22:00     -121.564      172.695      -10.269       82.612      166.649       49.207     6824.724    27771.877     2421.315        4.086        1.851      211.190       64.103        0.092      352.457       35.122      857.207
07/01/2014  15:23:00     -235.904      220.652      -51.782       70.440       87.354       44.550     4961.786     7630.807     1984.672        6.080        0.729      323.014       37.404        0.013      352.212       34.690      857.185
07/01/2014  15:24:00     -113.789      282.314      -28.761       61.317       65.413       43.047     3759.784     4278.913     1853.072        5.168        0.495      304.383       38.032        0.016      352.136       34.556      857.136
07/01/2014  15:25:00      -94.466      188.096      -27.331       54.276       70.026       39.362     2945.874     4903.653     1549.368        2.722        0.470      210.485       30.464        0.021      352.279       34.809      857.096
07/01/2014  15:26:00      -81.572      217.968      -14.939       70.385       79.009       44.430     4954.070     6242.372     1974.009        3.378        0.659      232.732       35.249        0.023      352.392       35.007      857.065
07/01/2014  15:27:00      -82.574      183.985      -21.902       66.960       81.313       42.494     4483.638     6611.724     1805.720        2.702        0.645      201.665       37.916        0.035      352.287       34.824      857.056
07/01/2014  15:28:00     -219.663      -39.598       -7.118      108.372      103.894       42.517    11744.537    10794.009     1807.677        3.710        1.217      223.203       47.067        0.044      352.628       35.419      857.029
07/01/2014  15:29:00     -155.483      -17.547       -5.939       85.442       80.318       43.587     7300.419     6451.056     1899.810        2.008        0.783      156.470       41.543        0.070      352.528       35.249      857.035
07/01/2014  15:30:00     -131.948       29.332       11.283      112.035       64.060       48.949    12551.816     4103.634     2396.007        1.872        0.953      135.169       55.229        0.167      352.782       35.691      857.022
07/01/2014  15:31:00      -30.136       14.647       21.553       71.877       41.027       38.341     5166.372     1683.215     1470.058        0.495        0.416       33.507       34.631        1.068      352.707       35.561      857.010
07/01/2014  15:32:00      -19.278      113.281        4.900       56.758       72.653       30.547     3221.470     5278.484      933.104        1.133        0.472      114.910       38.452        0.112      352.520       35.235      856.981
07/01/2014  15:33:00       20.470       49.418       15.874      104.369       79.606       48.278    10892.797     6337.144     2330.799        1.133        0.978       53.490       31.623        0.350      351.991       34.308      856.962
07/01/2014  15:34:00      -52.668      -50.058       -4.742       89.843       62.201       37.548     8071.817     3869.024     1409.830        0.932        0.668       72.661       35.551        0.239      352.563       35.311      856.965
07/01/2014  15:35:00       -5.198      145.693        4.895       65.772      100.637       39.882     4326.005    10127.843     1590.603        1.866        0.802      145.786       31.234        0.046      352.267       34.791      856.971
07/01/2014  15:36:00      -88.880      100.190       -6.547       39.461       63.641       34.669     1557.182     4050.184     1201.959        1.239        0.340      133.932       22.897        0.029      352.286       34.825      856.990
07/01/2014  15:37:00     -105.313      -33.588        1.059       69.958       58.972       33.095     4894.152     3477.697     1095.248        1.084        0.473      110.540       41.914        0.144      352.258       34.777      856.989
07/01/2014  15:38:00      -43.813       -3.685        1.495       53.035       32.758       25.084     2812.753     1073.088      629.210        0.322        0.226       43.967       23.354        0.282      352.344       34.927      856.980
07/01/2014  15:39:00        7.842       13.096       15.709       19.748       21.413       16.025      389.983      458.513      256.801        0.079        0.055       15.264       10.315        0.457      352.545       35.279      856.963
07/01/2014  15:40:00       -4.997      -23.807       26.929       18.224       31.667       14.489      332.121     1002.816      209.922        0.143        0.077       24.326       11.547        0.225      352.473       35.153      856.959
07/01/2014  15:41:00      -16.526      -70.659        6.471       36.155       50.183       27.951     1307.156     2518.381      781.237        0.496        0.230       72.565       23.742        0.107      352.256       34.772      856.958
07/01/2014  15:42:00      -21.244      -82.671       16.228       44.288       65.163       25.926     1961.461     4246.187      672.163        0.721        0.344       85.357       30.395        0.127      352.176       34.633      856.965
07/01/2014  15:43:00       59.494       13.438        7.296       61.015       40.045       16.018     3722.808     1603.587      256.562        0.468        0.279       60.993        8.412        0.019      351.464       33.392      856.974
07/01/2014  15:44:00      -42.437       42.391      -14.016       98.607       65.910       30.885     9723.247     4344.165      953.880        0.941        0.751       59.982       13.208        0.048      352.284       34.822      856.940
07/01/2014  15:45:00       64.821       -2.917       25.028       46.256       47.734       36.743     2139.649     2278.511     1350.044        0.530        0.288       64.886       29.186        0.202      351.600       33.627      856.934
07/01/2014  15:46:00      173.737       73.647       98.055      124.136      134.616       69.875    15409.739    18121.421     4882.446        4.181        1.921      188.702       73.689        0.152      351.937       34.211      856.923
07/01/2014  15:47:00       26.792       75.023      116.872       59.395       71.644       55.002     3527.799     5132.800     3025.266        1.584        0.584       79.663       47.722        0.359      352.064       34.437      856.890
07/01/2014  15:48:00      211.174      131.934       86.365      120.841      131.723      113.624    14602.429    17350.871    12910.349        5.715        2.243      249.000       98.339        0.156      352.126       34.542      856.889
07/01/2014  15:49:00       90.187       11.230       81.981       99.426       88.216       75.728     9885.565     7782.043     5734.718        1.919        1.170       90.884       64.193        0.499      352.190       34.656      856.918
07/01/2014  15:50:00       39.596     -102.790        4.879       49.639       97.026       51.560     2464.026     9413.952     2658.417        1.334        0.727      110.153       47.463        0.186      352.223       34.715      856.949
07/01/2014  15:51:00       68.440      -75.297        3.341       51.682       74.115       37.646     2671.036     5492.972     1417.248        0.997        0.479      101.753       34.673        0.116      352.244       34.751      856.955
07/01/2014  15:52:00       14.953      -72.901      -13.996       42.086       42.027       18.598     1771.249     1766.256      345.882        0.481        0.194       74.419       14.455        0.038      352.156       34.598      856.961
07/01/2014  15:53:00      -97.248      -15.580      -13.797       19.728       27.759       14.052      389.201      770.589      197.457        0.562        0.068       98.488        9.257        0.009      352.188       34.653      856.945
07/01/2014  15:54:00      -41.084       36.451       28.948       37.519       30.878       24.167     1407.673      953.444      584.056        0.340        0.147       54.923       20.819        0.144      352.430       35.078      856.928
07/01/2014  15:55:00       24.082        0.663        2.470       18.263       30.855       18.623      333.530      952.025      346.822        0.111        0.082       24.091       14.032        0.339      352.030       34.378      856.917
07/01/2014  15:56:00       19.875       63.021       -1.175       41.881       35.886       22.205     1754.029     1287.808      493.081        0.395        0.177       66.081       15.994        0.059      352.231       34.730      856.909
07/01/2014  15:57:00       27.039       65.878        4.893       47.090       38.330       26.488     2217.500     1469.156      701.620        0.474        0.219       71.211       22.409        0.099      352.493       35.189      856.896
07/01/2014  15:58:00       46.976       44.390        5.612       72.812       64.590       45.483     5301.580     4171.892     2068.696        0.787        0.577       64.631       33.520        0.269      352.406       35.035      856.884
07/01/2014  15:59:00       37.898       14.141        5.216       43.343       50.876       29.744     1878.579     2588.394      884.702        0.351        0.268       40.450       22.147        0.300      352.128       34.550      856.882
07/01/2014  16:00:00       53.611       52.523        1.364       47.237       49.031       42.714     2231.295     2404.012     1824.502        0.605        0.323       75.052       30.412        0.164      352.316       34.878      856.882
07/01/2014  16:01:00      -20.281      -40.442       -5.143       32.542       34.870       26.704     1058.963     1215.943      713.087        0.253        0.149       45.243       24.062        0.283      352.476       35.159      856.887
07/01/2014  16:02:00        9.200       -1.371       14.931       39.452       36.709       24.376     1556.423     1347.529      594.188        0.190        0.175        9.302       26.158        7.907      352.085       34.474      856.877
07/01/2014  16:03:00        4.059       10.079       -0.518       61.748       39.949       26.404     3812.769     1595.911      697.158        0.311        0.305       10.865       12.891        1.408      351.940       34.221      856.887
07/01/2014  16:04:00      -20.638       51.631       11.377       44.936       46.252       35.191     2019.260     2139.221     1238.410        0.431        0.270       55.602       35.210        0.401      352.315       34.876      856.891
07/01/2014  16:05:00       13.036       34.234        7.243       23.464       28.279       24.256      550.556      799.712      588.344        0.167        0.097       36.632       20.096        0.301      352.116       34.528      856.911
07/01/2014  16:06:00       15.495       -3.729       22.923       26.912       16.445       11.701      724.246      270.449      136.905        0.096        0.057       15.938        4.868        0.093      351.780       33.942      856.938
07/01/2014  16:07:00        8.399        0.623       19.739       29.472       15.832       17.566      868.600      250.664      308.561        0.094        0.071        8.422       14.381        2.916      351.997       34.321      856.972
07/01/2014  16:08:00       -8.177       -1.299       21.654       14.502       28.400       21.155      210.304      806.574      447.516        0.100        0.073        8.280       13.540        2.674      351.732       33.857      856.990
07/01/2014  16:09:00       31.502       38.625       16.502       25.543       28.782       27.200      652.450      828.381      739.863        0.249        0.111       49.842       17.488        0.123      351.467       33.395      857.004
07/01/2014  16:10:00       43.231       25.222       38.837       29.930       45.547       37.774      895.805     2074.542     1426.903        0.420        0.220       50.050       29.979        0.359      351.583       33.598      857.003
07/01/2014  16:11:00       20.527       31.449       49.581       36.763       32.451       24.247     1351.506     1053.040      587.925        0.343        0.150       37.555       23.881        0.404      351.954       34.244      857.014
07/01/2014  16:12:00       21.860        6.146       31.375       25.461       26.277       25.204      648.276      690.493      635.233        0.174        0.099       22.708       19.739        0.756      351.840       34.046      857.016
07/01/2014  16:13:00       64.965        7.070       30.383       40.385       36.418       36.042     1630.915     1326.250     1299.029        0.472        0.213       65.348       29.713        0.207      351.261       33.035      856.999
07/01/2014  16:14:00       58.979      -64.032       19.008       50.570       90.424       45.045     2557.303     8176.475     2029.074        1.035        0.638       87.055       58.053        0.445      351.930       34.203      857.011
07/01/2014  16:15:00       74.715     -126.569       -6.876       99.227       90.950       42.126     9846.017     8271.885     1774.627        2.077        0.995      146.977       53.772        0.134      352.352       34.940      857.025
07/01/2014  16:16:00       94.886     -154.818        6.824      106.808      156.004       95.619    11408.033    24337.279     9143.080        3.895        2.244      181.582      114.850        0.400      352.365       34.958      857.036
07/01/2014  16:17:00      -18.658      -21.228       46.889       72.506       75.525       64.933     5257.191     5704.081     4216.329        0.908        0.759       28.262       64.796        5.256      352.244       34.752      857.038
07/01/2014  16:18:00      -36.882     -157.813        7.898      125.997       99.928       54.124    15875.160     9985.591     2929.366        2.755        1.440      162.065       46.778        0.083      352.131       34.551      857.045
07/01/2014  16:19:00      -44.802      -74.380       28.158       77.307      104.490       45.024     5976.410    10918.252     2027.144        1.362        0.946       86.831       59.828        0.475      352.272       34.800      857.026
07/01/2014  16:20:00       -7.410     -180.288       -3.782       93.747      102.506       47.957     8788.530    10507.548     2299.891        2.708        1.080      180.441       37.949        0.044      352.108       34.511      857.034
07/01/2014  16:21:00      158.720     -149.548       48.058      123.916      196.155      102.543    15355.240    38476.954    10515.021        5.710        3.217      218.075      125.730        0.332      352.223       34.712      857.012
07/01/2014  16:22:00       21.807      -42.467       65.303      113.045       96.453       79.675    12779.110     9303.198     6348.106        1.748        1.422       47.738       65.700        1.894      352.373       34.976      856.991
07/01/2014  16:23:00       15.910     -111.102        8.142       95.178       98.484       59.625     9058.868     9699.142     3555.121        1.748        1.116      112.236       58.446        0.271      352.274       34.803      856.997
07/01/2014  16:24:00       98.887     -174.288       24.558      124.046      141.819       81.573    15387.409    20112.656     6654.227        4.145        2.108      200.387       61.775        0.095      352.136       34.560      856.987
07/01/2014  16:25:00       68.144     -187.875        4.623      119.659      105.375       70.530    14318.335    11103.881     4974.484        3.517        1.520      199.852       61.269        0.094      352.109       34.512      856.989
07/01/2014  16:26:00       43.321     -103.247       34.217       98.672      150.105       60.321     9736.189    22531.400     3638.648        2.480        1.795      111.968       77.026        0.473      352.217       34.702      856.982
07/01/2014  16:27:00       25.139     -104.149       15.631       78.351       80.846       54.354     6138.951     6536.047     2954.333        1.367        0.781      107.140       32.807        0.094      352.148       34.584      856.988
07/01/2014  16:28:00       73.580     -142.685       56.415      103.128      195.398      108.862    10635.298    38180.243    11850.850        4.480        3.033      160.540      125.951        0.616      352.169       34.618      856.956
07/01/2014  16:29:00       73.603     -174.029      -16.477      110.623       84.592       52.363    12237.421     7155.849     2741.878        2.905        1.107      188.953       45.175        0.057      352.149       34.583      856.999
07/01/2014  16:30:00       95.174     -121.230       19.352       87.773       93.993       62.570     7704.119     8834.618     3915.019        2.229        1.023      154.126       58.159        0.142      352.086       34.473      856.972
07/01/2014  16:31:00      -35.235     -113.802       -7.596       71.713       83.643       39.538     5142.716     6996.070     1563.287        1.397        0.685      119.131       41.977        0.124      352.256       34.772      856.980
07/01/2014  16:32:00       -8.314     -148.130       22.576       79.943      156.267       52.550     6390.836    24419.367     2761.465        2.804        1.679      148.363       59.663        0.162      352.146       34.579      856.985
07/01/2014  16:33:00       10.306     -166.135        3.960      101.593       86.127       51.948    10321.075     7417.793     2698.614        2.408        1.022      166.454       35.184        0.045      352.132       34.554      857.001
07/01/2014  16:34:00      -38.699     -197.216       12.656      102.689       84.546       62.265    10544.967     7147.954     3876.960        3.106        1.078      200.977       46.750        0.054      352.094       34.486      857.007
07/01/2014  16:35:00      -30.590     -196.899       -3.644       94.840      140.235       54.902     8994.582    19665.992     3014.255        3.569        1.584      199.261       56.813        0.081      352.074       34.451      857.009
07/01/2014  16:36:00       77.006     -224.070       -8.016       79.127      105.847       71.566     6261.012    11203.627     5121.724        3.939        1.129      236.933       45.186        0.036      351.972       34.272      857.019
07/01/2014  16:37:00       28.615      -72.227       49.196      113.369      138.335       96.653    12852.480    19136.561     9341.873        2.489        2.067       77.689      105.574        1.847      352.084       34.469      857.000
07/01/2014  16:38:00       11.782       -9.005      108.432       83.751      177.367      116.139     7014.207    31458.936    13488.179        3.196        2.598       14.829      126.408       72.667      352.205       34.681      856.970
07/01/2014  16:39:00      100.729     -127.486        0.110       88.493      110.291       63.188     7830.952    12164.196     3992.740        2.519        1.199      162.478       63.416        0.152      352.258       34.771      856.998
07/01/2014  16:40:00      199.332     -269.548        3.702      124.392      171.914       92.130    15473.289    29554.423     8487.887        8.295        2.676      335.245      105.236        0.099      352.169       34.618      856.967
07/01/2014  16:41:00       57.586     -173.501        3.325      101.169       91.224       58.188    10235.136     8321.874     3385.808        2.768        1.097      182.807       44.276        0.059      352.115       34.523      856.995
07/01/2014  16:42:00       -2.308     -113.395       -3.592       87.359       79.791       35.904     7631.589     6366.603     1289.093        1.408        0.764      113.418       32.491        0.082      352.159       34.602      857.013
07/01/2014  16:43:00       -1.598     -190.759       -2.716       90.254      106.930       35.655     8145.810    11434.070     1271.282        2.862        1.043      190.766       38.667        0.041      352.122       34.536      857.036
07/01/2014  16:44:00      -48.981      -70.561       10.633       82.146       90.667       34.961     6747.955     8220.571     1222.304        1.184        0.810       85.895       40.578        0.223      352.001       34.324      857.057
07/01/2014  16:45:00      -43.064     -121.801        0.224       59.933       64.209       52.844     3592.022     4122.742     2792.540        1.360        0.525      129.190       35.327        0.075      352.168       34.618      857.052
07/01/2014  16:46:00      -93.752      -97.699       17.233      118.399       90.013       54.338    14018.263     8102.253     2952.574        2.185        1.254      135.405       55.103        0.166      352.160       34.605      857.050
07/01/2014  16:47:00      -29.780       -9.339       11.024       65.955       63.520       48.086     4350.112     4034.770     2312.305        0.589        0.535       31.210       11.115        0.127      352.038       34.393      857.065
07/01/2014  16:48:00       10.691     -152.342      -13.158       94.919       64.472       39.897     9009.621     4156.631     1591.789        1.912        0.738      152.716       13.140        0.007      351.962       34.257      857.075
07/01/2014  16:49:00       -9.250      -96.278        7.808       50.306       80.212       37.871     2530.663     6433.992     1434.187        0.991        0.520       96.722       26.256        0.074      351.911       34.169      857.097
07/01/2014  16:50:00       -1.929      -68.015        7.946       39.401       46.547       31.943     1552.407     2166.644     1020.373        0.472        0.237       68.042       20.813        0.094      352.017       34.355      857.108
07/01/2014  16:51:00       22.378      -75.106       15.203       52.560       70.524       40.315     2762.516     4973.624     1625.269        0.787        0.468       78.369       41.265        0.277      351.920       34.186      857.147
07/01/2014  16:52:00       42.222     -169.674        7.818       82.035       91.419       49.246     6729.718     8357.448     2425.165        2.407        0.876      174.849       47.245        0.073      351.855       34.070      857.160
07/01/2014  16:53:00      -16.492     -296.630       -6.783      174.435      189.949       69.842    30427.493    36080.583     4877.903        7.983        3.569      297.088       51.108        0.030      351.824       34.013      857.150
07/01/2014  16:54:00      -25.527     -235.281       -7.885      113.565      152.640       69.251    12896.980    23299.093     4795.688        4.852        2.050      236.662       77.618        0.108      351.807       33.984      857.155
07/01/2014  16:55:00      -28.973     -183.890       10.255      102.516      128.763       56.645    10509.582    16579.897     3208.618        3.252        1.515      186.159       45.567        0.060      351.792       33.959      857.172
07/01/2014  16:56:00      -35.072     -196.442       -7.181       71.760      125.721       56.658     5149.534    15805.817     3210.101        3.201        1.208      199.548       58.151        0.085      351.774       33.927      857.175
07/01/2014  16:57:00       50.568     -137.296        7.502      112.308       92.421       53.294    12613.021     8541.599     2840.197        2.273        1.200      146.313       47.805        0.107      351.764       33.910      857.212
07/01/2014  16:58:00      107.456     -256.331      -21.743      117.590       94.435       60.830    13827.383     8917.951     3700.246        5.208        1.322      277.943       55.969        0.041      351.772       33.924      857.226
07/01/2014  16:59:00     -103.264     -186.979       -4.237      108.235      131.259       77.180    11714.777    17228.850     5956.776        4.027        1.745      213.599       55.954        0.069      351.810       33.988      857.311
07/01/2014  17:00:00     -168.262     -264.218       20.031      236.298      243.750      117.165    55836.673    59413.821    13727.562       11.373        6.449      313.247      142.733        0.208      351.462       33.383      857.288
07/01/2014  17:01:00       -9.799     -181.072       11.271      178.550      149.078      102.652    31880.119    22224.334    10537.377        4.882        3.232      181.337       88.703        0.239      351.333       33.158      857.246
07/01/2014  17:02:00      -40.371     -202.667       26.893      142.848      173.349      108.778    20405.557    30049.751    11832.753        5.285        3.114      206.649       85.214        0.170      351.213       32.949      857.253
07/01/2014  17:03:00       33.730     -310.754        5.947      208.428      226.992      105.265    43442.129    51525.257    11080.666       10.188        5.302      312.580      111.927        0.128      351.107       32.762      857.303
07/01/2014  17:04:00      -92.533     -278.336       27.892      139.066      220.694       98.453    19339.272    48705.834     9693.018        8.226        3.887      293.315      117.484        0.160      350.985       32.551      857.331
07/01/2014  17:05:00       17.096     -418.961       -2.189      217.794      252.105       97.177    47434.243    63556.723     9443.404       14.811        6.022      419.310      117.934        0.079      350.951       32.494      857.374
07/01/2014  17:06:00     -109.545     -362.580       -7.348      195.007      216.023       91.592    38027.585    46665.756     8389.054       11.828        4.654      378.767       83.397        0.048      350.906       32.415      857.397
07/01/2014  17:07:00      -20.635     -341.760        0.183      156.311      198.889       95.430    24433.205    39556.987     9106.822        9.515        3.655      342.383      107.570        0.099      350.889       32.386      857.431
07/01/2014  17:08:00      -31.439     -316.026       -5.634      148.707      162.186       73.479    22113.746    26304.324     5399.140        7.735        2.691      317.586       73.726        0.054      350.875       32.361      857.423
07/01/2014  17:09:00      -57.660     -121.017       21.493      129.716      142.070       82.711    16826.134    20183.804     6841.176        3.113        2.193      134.051       97.822        0.533      350.938       32.471      857.445
07/01/2014  17:10:00      -32.368     -123.428       -1.288      106.817      158.064       73.476    11409.971    24984.333     5398.657        2.903        2.090      127.602       82.191        0.415      350.929       32.458      857.454
07/01/2014  17:11:00      -22.989     -157.502       33.456      149.640      216.921      106.774    22392.167    47054.803    11400.735        5.364        4.042      159.170      117.122        0.541      350.825       32.275      857.427
07/01/2014  17:12:00     -101.908     -458.697       16.067      163.431      213.161       95.401    26709.744    45437.523     9101.422       15.113        4.062      469.881       65.371        0.019      350.889       32.386      857.474
07/01/2014  17:13:00        7.017     -423.502       -4.138      139.960      198.827       96.974    19588.739    39532.048     9403.884       12.396        3.426      423.560       81.731        0.037      350.870       32.353      857.500
07/01/2014  17:14:00      -34.010     -205.845        7.035       97.279      101.491       69.697     9463.208    10300.431     4857.699        3.410        1.231      208.636       52.084        0.062      350.928       32.454      857.510
07/01/2014  17:15:00       65.777     -166.833       43.190      128.436      144.069       88.990    16495.793    20756.020     7919.207        3.959        2.259      179.332       84.284        0.221      350.920       32.440      857.497
07/01/2014  17:16:00     -113.302     -200.627      -12.859      154.043      120.417       64.836    23729.101    14500.221     4203.727        4.784        2.122      230.409       61.791        0.072      350.941       32.476      857.498
07/01/2014  17:17:00       44.963     -257.125       -1.291      147.143      131.578       73.334    21651.098    17312.776     5377.832        5.623        2.217      261.027       53.405        0.042      350.869       32.349      857.508
07/01/2014  17:18:00      -49.217     -172.923        8.551       75.690      118.567       53.660     5729.010    14058.128     2879.414        2.753        1.133      179.791       53.273        0.088      350.930       32.455      857.528
07/01/2014  17:19:00       32.736     -222.909      -24.266      119.739      109.253       52.908    14337.314    11936.296     2799.252        4.021        1.454      225.300       41.236        0.033      350.930       32.456      857.532
07/01/2014  17:20:00      -25.869      -94.342       21.823      144.705      110.980       72.321    20939.398    12316.487     5230.315        2.426        1.924       97.824       63.439        0.421      351.003       32.585      857.529
07/01/2014  17:21:00       79.341     -211.779      -26.490      123.024      149.180       87.775    15134.850    22254.809     7704.425        4.846        2.255      226.153       76.198        0.114      350.974       32.533      857.564
07/01/2014  17:22:00       21.826     -237.801      -28.094      168.506      123.172       79.502    28394.407    15171.446     6320.548        5.384        2.494      238.801       79.786        0.112      350.987       32.553      857.533
07/01/2014  17:23:00       25.867     -361.197      -13.696      153.660      238.014       96.887    23611.245    56650.504     9387.159       11.047        4.482      362.123       92.547        0.065      351.013       32.600      857.594
07/01/2014  17:24:00      -25.514     -279.630       -0.749      121.928      117.547       71.421    14866.524    13817.358     5100.951        5.631        1.689      280.791       54.506        0.038      350.984       32.549      857.567
07/01/2014  17:25:00       40.691     -282.428      -10.527      150.972      135.235       81.026    22792.590    18288.545     6565.204        6.458        2.382      285.344       54.344        0.036      350.965       32.516      857.567
07/01/2014  17:26:00       -9.026     -169.379        5.662      145.167      164.273       88.973    21073.543    26985.505     7916.111        4.238        2.799      169.619       63.004        0.138      351.015       32.604      857.537
07/01/2014  17:27:00       14.286     -215.170       -2.316      105.005      122.940       91.428    11026.067    15114.360     8359.071        4.050        1.725      215.644       79.355        0.135      350.971       32.526      857.535
07/01/2014  17:28:00      -79.339     -218.351       -3.949      102.651      103.740       62.380    10537.190    10761.997     3891.275        3.958        1.260      232.318       51.276        0.049      350.995       32.568      857.524
07/01/2014  17:29:00      -27.415     -373.114       -4.244      136.883      147.823       74.482    18736.880    21851.617     5547.635        9.305        2.307      374.120       52.814        0.020      350.970       32.525      857.524
07/01/2014  17:30:00     -118.735     -236.516        8.200      132.778      185.619       78.763    17629.881    34454.429     6203.582        6.419        2.914      264.647       78.731        0.089      350.984       32.549      857.513
07/01/2014  17:31:00      -77.808     -210.195       -4.850      120.872      191.929       72.587    14610.061    36836.628     5268.927        5.348        2.836      224.134       89.819        0.161      350.957       32.504      857.526
07/01/2014  17:32:00      -46.458     -362.985      -13.308      149.407      218.354       95.180    22322.449    47678.259     9059.287       10.656        3.953      365.946       73.825        0.041      350.914       32.429      857.524
07/01/2014  17:33:00      -25.393     -257.949       -2.651      133.033      147.279       73.281    17697.749    21691.031     5370.070        5.597        2.238      259.196       64.085        0.061      350.893       32.392      857.540
07/01/2014  17:34:00       26.587     -236.842       -5.476      147.628      251.411       62.277    21793.904    63207.349     3878.471        7.284        4.444      238.330       89.494        0.141      350.898       32.403      857.514
07/01/2014  17:35:00       81.605     -241.755      -10.587      147.301      215.174      101.346    21697.491    46299.904    10270.971        7.173        3.913      255.156      125.123        0.240      350.867       32.348      857.530
07/01/2014  17:36:00        6.983     -505.204      -35.165      218.484      204.947      102.130    47735.091    42003.220    10430.517       17.833        5.008      505.252       75.491        0.022      350.901       32.406      857.548
07/01/2014  17:37:00       53.579     -448.167        0.679      203.818      278.469      117.582    41541.938    77545.115    13825.518       16.830        6.646      451.358      136.683        0.092      350.888       32.383      857.590
07/01/2014  17:38:00      112.765     -372.951        4.981      205.768      175.609      117.291    42340.427    30838.565    13757.210       11.937        4.347      389.626       95.752        0.060      350.850       32.317      857.598
07/01/2014  17:39:00      -17.706     -328.558      -16.202      177.908      177.574       82.250    31651.281    31532.574     6764.996        8.923        3.497      329.035       75.915        0.053      350.853       32.323      857.645
07/01/2014  17:40:00      -42.629     -366.698       -9.775      132.017      174.325       79.156    17428.604    30389.132     6265.638        9.522        2.704      369.167       67.085        0.033      350.862       32.338      857.667
07/01/2014  17:41:00      -16.966     -245.490      -14.539      147.809      135.681      101.590    21847.468    18409.254    10320.530        5.566        2.529      246.076       92.674        0.142      350.830       32.281      857.672
07/01/2014  17:42:00      -71.665     -441.653      -14.154      158.190      139.049       86.459    25024.106    19334.693     7475.178       12.610        2.592      447.429       49.094        0.012      350.843       32.304      857.814
07/01/2014  17:43:00        4.234     -410.702      -15.640      166.123      240.953      100.676    27596.870    58058.317    10135.587       13.235        4.790      410.724       95.004        0.054      350.845       32.308      857.829
07/01/2014  17:44:00      -57.855     -256.220       15.680      213.425      230.546       95.516    45550.388    53151.604     9123.258        8.852        5.391      262.671       85.540        0.106      350.868       32.350      857.857
07/01/2014  17:45:00        9.275     -192.852       10.377      157.010      179.454       73.531    24652.082    32203.768     5406.849        4.981        3.113      193.075       77.173        0.160      350.829       32.284      857.862
07/01/2014  17:46:00      -44.858     -315.286       -9.011      157.779      260.398       73.671    24894.302    67807.377     5427.363        9.980        4.906      318.461       91.475        0.083      350.829       32.280      857.859
07/01/2014  17:47:00     -145.907     -230.290       -6.683      220.521      173.684       91.950    48629.503    30166.122     8454.731        8.079        4.363      272.621       60.728        0.050      350.855       32.325      857.838
07/01/2014  17:48:00       12.474     -307.208        9.268      131.034      206.905       83.073    17169.840    42809.724     6901.080        8.074        3.344      307.461       82.140        0.071      350.783       32.202      857.851
07/01/2014  17:49:00     -124.610     -240.461       -4.632      140.863      141.967       68.406    19842.391    20154.660     4679.447        5.902        2.234      270.831       48.961        0.033      350.802       32.234      857.845
07/01/2014  17:50:00       -2.450     -262.229       -2.697      201.790      207.806       81.985    40719.328    43183.271     6721.493        7.969        4.531      262.240       86.180        0.108      350.771       32.178      857.900
07/01/2014  17:51:00      125.737     -288.313        1.948      163.446      150.182       87.334    26714.590    22554.732     7627.300        7.791        2.845      314.539       52.649        0.028      350.709       32.071      857.879
07/01/2014  17:52:00      -49.640     -389.458        2.356      212.414      250.490      118.340    45119.641    62745.205    14004.355       13.799        6.093      392.609       96.019        0.060      350.699       32.053      857.904
07/01/2014  17:53:00      -57.493     -214.711       15.213      161.262      182.024      104.534    26005.556    33132.875    10927.264        5.984        3.503      222.275       97.311        0.192      350.655       31.976      857.862
07/01/2014  17:54:00      -92.130     -373.701       -3.214      223.726      236.490       99.435    50053.228    55927.688     9887.386       13.199        5.793      384.890       84.992        0.049      350.636       31.944      857.846
07/01/2014  17:55:00        8.434     -286.642      -20.805      167.444      173.574       95.412    28037.474    30127.883     9103.464        7.496        3.363      286.766       86.691        0.091      350.586       31.857      857.813
07/01/2014  17:56:00     -100.457     -270.873       10.034      181.787      231.074       89.748    33046.391    53395.366     8054.688        8.901        4.725      288.901       88.960        0.095      350.582       31.849      857.825
07/01/2014  17:57:00       11.217     -285.422        2.952      175.863      160.245      107.159    30927.833    25678.501    11483.032        7.483        3.404      285.642       78.062        0.075      350.627       31.927      857.837
07/01/2014  17:58:00      -99.473     -266.351      -16.044      134.411      216.542       75.821    18066.370    46890.600     5748.803        7.589        3.535      284.320       42.949        0.023      350.621       31.918      857.678
07/01/2014  17:59:00     -309.971     -336.374        5.620      304.065      220.995      109.893    92455.314    48838.626    12076.419       18.129        7.669      457.416       98.553        0.046      350.676       32.014      857.610
07/01/2014  18:00:00       37.435     -300.515        1.014      156.379      242.221      100.576    24454.283    58671.053    10115.567        9.246        4.662      302.838       90.241        0.089      350.679       32.019      857.723
07/01/2014  18:01:00      -40.066     -202.597       18.672      196.611      189.699      111.577    38655.984    35985.891    12449.404        6.503        4.355      206.520       89.756        0.189      350.684       32.028      857.757
07/01/2014  18:02:00       43.673     -196.612        8.389      127.284      184.359       81.732    16201.191    33988.215     6680.139        4.874        2.843      201.404       69.777        0.120      350.677       32.015      857.699
07/01/2014  18:03:00       95.451     -236.999       51.988      212.483      353.103      159.430    45149.066   124681.943    25418.080       13.158        9.762      255.499      185.803        0.529      350.646       31.962      857.707
07/01/2014  18:04:00      -78.384     -375.210       15.615      243.882      277.013      148.793    59478.671    76736.139    22139.251       15.274        7.918      383.310      145.341        0.144      350.739       32.121      857.773
07/01/2014  18:05:00        5.736     -342.248       -4.742      219.043      228.150      122.065    47979.991    52052.565    14899.754       11.604        5.747      342.296       74.744        0.048      350.662       31.989      857.805
07/01/2014  18:06:00       63.541     -220.350       14.539      180.513      182.650       95.263    32585.082    33360.901     9074.980        6.390        3.751      229.329       86.199        0.141      350.632       31.937      857.937
07/01/2014  18:07:00      120.755     -289.355       68.967      328.077      339.660      167.464   107634.247   115368.688    28044.279       17.701       12.552      313.542      198.968        0.403      350.605       31.889      857.871
07/01/2014  18:08:00      219.092     -236.519       93.127      319.086      340.249      216.720   101816.028   115769.616    46967.406       18.854       13.228      322.401      254.905        0.625      350.559       31.807      857.933
07/01/2014  18:09:00      190.003     -448.327       16.563      274.747      358.505      203.032    75485.945   128525.803    41221.844       24.126       12.262      486.927      216.515        0.198      350.545       31.783      857.934
07/01/2014  18:10:00      -89.467     -327.253        7.116      227.921      261.509      107.420    51948.055    68387.094    11539.119       12.349        6.594      339.262       89.040        0.069      350.533       31.763      857.966
07/01/2014  18:11:00      -32.672     -193.120       51.636      202.698      159.695      105.315    41086.602    25502.646    11091.225        5.934        3.884      195.864      103.518        0.279      350.602       31.885      858.127
07/01/2014  18:12:00     -119.049     -403.952      -20.478      269.726      280.197      115.517    72752.380    78510.594    13344.251       17.116        8.230      421.129      106.268        0.064      350.603       31.886      858.202
07/01/2014  18:13:00      -38.546     -335.469        6.200      217.387      241.353      129.811    47257.202    58251.224    16851.017       11.819        6.118      337.676       95.481        0.080      350.478       31.668      858.276
07/01/2014  18:14:00      -44.935     -356.176        7.691      211.763      170.187       89.172    44843.444    28963.735     7951.614       10.534        4.088      358.999       63.033        0.031      350.414       31.558      858.282
07/01/2014  18:15:00      106.028     -244.236       22.283      137.817      199.756       92.539    18993.411    39902.326     8563.529        6.941        3.373      266.258       92.600        0.121      350.377       31.495      858.180
07/01/2014  18:16:00       93.703     -111.740       96.801      209.342      346.305      181.865    43823.874   119927.196    33074.826       11.370        9.841      145.829      234.011        2.575      350.429       31.585      857.964
07/01/2014  18:17:00      317.869     -340.361      105.951      290.347      336.894      210.523    84301.479   113497.386    44319.972       23.507       12.106      465.710      212.091        0.207      350.592       31.866      857.824
07/01/2014  18:18:00      365.943     -435.610       59.552      363.575      445.305      244.292   132186.746   198296.354    59678.763       35.862       19.508      568.920      298.081        0.275      350.814       32.254      857.792
07/01/2014  18:19:00      243.144     -270.115       97.513      260.727      431.267      243.364    67978.454   185991.654    59225.879       22.734       15.660      363.429      283.928        0.610      350.799       32.229      858.020
07/01/2014  18:20:00      317.510     -413.637        3.307      255.113      342.443      192.730    65082.641   117266.917    37144.696       24.567       10.975      521.448      217.898        0.175      350.657       31.979      858.104
07/01/2014  18:21:00      221.276      -77.657      164.776      256.157      377.008      223.089    65616.613   142135.104    49768.759       16.979       12.876      234.507      278.886        1.414      350.568       31.823      858.136
07/01/2014  18:22:00      208.737     -144.555      101.867      204.325      340.351      171.441    41748.812   115838.726    29391.953       13.088        9.349      253.904      207.366        0.667      350.549       31.793      858.099
07/01/2014  18:23:00      286.638       22.433      202.770      279.953      358.464      188.530    78373.891   128496.648    35543.491       18.306       12.121      287.515      244.405        0.723      350.588       31.859      858.051
07/01/2014  18:24:00      297.117     -263.234       70.594      269.006      338.356      169.825    72364.400   114485.007    28840.639       18.909       10.785      396.951      229.446        0.334      350.577       31.843      857.910
07/01/2014  18:25:00      153.026      -48.968       36.011       99.095      179.420       82.147     9819.834    32191.482     6748.100        3.793        2.438      160.670       71.015        0.195      350.565       31.821      857.843
07/01/2014  18:26:00      285.450      184.244       63.940      155.871      110.179       94.184    24295.813    12139.438     8870.548        8.240        2.265      339.747       57.875        0.029      350.656       31.976      857.728
07/01/2014  18:27:00      329.357      314.938       24.745      235.093      258.330      137.477    55268.842    66734.167    18899.818       17.456        7.045      455.699      129.725        0.081      350.655       31.975      857.595
07/01/2014  18:28:00      -46.281      627.397      -38.056      248.309      415.842      167.304    61657.341   172924.175    27990.701       32.985       13.129      629.102      218.200        0.120      350.471       31.655      857.579
07/01/2014  18:29:00      -18.820      468.202      -43.105      208.072      271.560       93.744    43294.035    73744.584     8788.001       17.360        6.291      468.580      110.168        0.055      350.559       31.810      857.440
07/01/2014  18:30:00       56.533      402.789      -43.669      102.396      239.719       87.017    10484.907    57465.276     7571.975       12.142        3.776      406.737      121.343        0.089      350.639       31.948      857.250
07/01/2014  18:31:00      187.941      318.457      -19.902      229.358      197.752      121.127    52605.223    39105.810    14671.723       12.174        5.319      369.779      124.908        0.114      350.650       31.967      857.137
07/01/2014  18:32:00      137.919      329.175      -16.549      174.919      187.333      130.623    30596.821    35093.695    17062.429       10.519        4.138      356.901      111.098        0.097      350.788       32.208      857.053
07/01/2014  18:33:00      388.873      241.553       30.013      155.346      111.244       93.319    24132.489    12375.166     8708.460       12.784        2.261      457.788       63.244        0.019      350.807       32.241      857.019
07/01/2014  18:34:00      215.811      151.433       14.229      100.035       85.969       62.868    10007.048     7390.619     3952.416        4.553        1.068      263.640       52.026        0.039      350.769       32.174      857.005
07/01/2014  18:35:00      308.410      200.781       34.961      170.185      131.194       85.100    28963.007    17211.792     7242.061        9.503        2.671      368.008       58.572        0.025      350.782       32.198      857.078
07/01/2014  18:36:00      166.908      113.199       82.083      110.237       87.867      103.979    12152.201     7720.621    10811.700        3.904        1.534      201.673       81.857        0.165      350.725       32.097      857.101
07/01/2014  18:37:00       54.172       61.259      107.498       79.632       89.874       66.996     6341.223     8077.420     4488.483        1.857        0.945       81.775       62.444        0.583      350.562       31.818      857.119
07/01/2014  18:38:00       20.994       64.517      109.245       75.753      128.299       81.169     5738.484    16460.537     6588.333        2.266        1.439       67.846       83.508        1.515      350.548       31.792      857.139
07/01/2014  18:39:00       73.113       33.668       97.604       72.526      150.879       80.636     5260.081    22764.557     6502.099        2.526        1.726       80.492       99.701        1.534      350.495       31.698      857.184
07/01/2014  18:40:00      347.169     -449.423      -70.740      156.627      202.229       77.538    24532.016    40896.471     6012.195       19.946        3.572      567.897      102.117        0.032      350.713       32.078      857.145
07/01/2014  18:41:00      299.139     -446.482      -24.528      178.469      170.711      100.733    31851.018    29142.124    10147.205       18.027        3.557      537.430      103.749        0.037      350.842       32.303      857.177
07/01/2014  18:42:00      220.794     -162.362       41.139      180.471      229.626      141.380    32569.733    52728.239    19988.197        9.103        5.264      274.065      169.889        0.384      350.808       32.244      857.267
07/01/2014  18:43:00      173.904      -14.499       76.105      159.827      103.406       71.880    25544.733    10692.816     5166.734        3.882        2.070      174.507       68.294        0.153      350.765       32.169      857.352
07/01/2014  18:44:00      156.613       -3.569      112.651      135.028      163.823       97.701    18232.453    26838.100     9545.537        4.591        2.731      156.654       98.773        0.398      350.625       31.924      857.394
07/01/2014  18:45:00      313.181     -251.543      -22.749      221.561      239.241      154.084    49089.294    57236.181    23741.863       14.595        6.503      401.692      160.595        0.160      350.677       32.015      857.392
07/01/2014  18:46:00      178.457     -237.126       10.065      148.031      188.030      115.274    21913.032    35355.254    13288.056        7.935        3.528      296.776      131.062        0.195      350.686       32.032      857.505
07/01/2014  18:47:00       75.418     -148.548       37.861      102.327      130.464       85.130    10470.782    17020.728     7247.149        3.196        1.737      166.597       94.628        0.323      350.663       31.992      857.565
07/01/2014  18:48:00       99.255      -70.402       63.547      127.118      165.812       85.407    16158.875    27493.505     7294.312        3.489        2.547      121.688      117.118        0.926      350.745       32.134      857.581
07/01/2014  18:49:00       62.195      -57.157       31.504       56.149       76.708       59.541     3152.664     5884.079     3545.181        1.035        0.629       84.470       54.516        0.417      350.736       32.119      857.598
07/01/2014  18:50:00       86.802     -139.599       -6.813       62.022       61.270       36.137     3846.677     3754.010     1305.857        1.799        0.445      164.385       41.941        0.065      350.711       32.076      857.617
07/01/2014  18:51:00      -15.102      -70.944        9.296       66.145       41.732       23.114     4375.144     1741.538      534.254        0.600        0.333       72.533       18.283        0.064      350.564       31.822      857.649
07/01/2014  18:52:00      -60.377      -54.807        9.942       70.094       42.326       24.566     4913.200     1791.465      603.513        0.703        0.365       81.543       23.031        0.080      350.462       31.645      857.682
07/01/2014  18:53:00     -128.463     -185.701        4.585       85.076      137.324       52.515     7237.897    18857.857     2757.821        3.993        1.443      225.805       55.102        0.060      350.542       31.782      857.710
07/01/2014  18:54:00      -53.575     -107.894        6.368       93.329       99.758       50.652     8710.353     9951.651     2565.587        1.789        1.061      120.464       44.285        0.135      350.531       31.763      857.727
07/01/2014  18:55:00       -9.709     -238.483      -13.384      104.638      137.308       84.403    10949.065    18853.470     7123.806        4.703        1.846      238.680       71.523        0.090      350.498       31.701      857.740
07/01/2014  18:56:00      -33.164     -174.965       -9.500       75.625      114.436       46.344     5719.137    13095.559     2147.738        2.638        1.048      178.080       44.849        0.063      350.508       31.722      857.739
07/01/2014  18:57:00      -57.858     -123.652       12.531      114.478       90.961       57.999    13105.161     8273.825     3363.846        2.176        1.237      136.519       52.560        0.148      350.589       31.863      857.740
07/01/2014  18:58:00     -184.162      -88.991       27.880      122.343      106.856       55.777    14967.766    11418.281     3111.109        3.605        1.475      204.536       60.041        0.086      350.623       31.923      857.758
07/01/2014  18:59:00      -44.632     -131.869        1.100       46.425       69.619       31.249     2155.294     4846.742      976.523        1.368        0.399      139.217       18.551        0.018      350.607       31.896      857.777
07/01/2014  19:00:00      -63.671     -194.383       -5.448       78.933       94.959       37.655     6230.470     9017.272     1417.900        2.926        0.833      204.545       14.930        0.005      350.576       31.838      857.799
07/01/2014  19:01:00     -182.439     -138.287        9.178      138.947       91.018       58.034    19306.292     8284.357     3367.927        4.172        1.548      228.927       69.249        0.092      350.517       31.736      857.815
07/01/2014  19:02:00     -211.813     -104.583        9.958      135.927       88.930       53.286    18476.145     7908.600     2839.431        4.256        1.461      236.225       65.760        0.077      350.466       31.647      857.843
07/01/2014  19:03:00     -156.923      -26.905       14.631      105.914       74.616       47.899    11217.879     5567.523     2294.351        2.232        0.954      159.213       49.123        0.095      350.392       31.520      857.876
07/01/2014  19:04:00     -130.637      -64.922        6.196       79.194       64.652       37.682     6271.758     4179.863     1419.959        1.659        0.594      145.880       37.580        0.066      350.412       31.556      857.902
07/01/2014  19:05:00     -231.530      -83.522       -8.165      118.342       79.719       47.405    14004.881     6355.084     2247.224        4.162        1.130      246.134       53.129        0.047      350.397       31.530      857.919
07/01/2014  19:06:00     -301.440     -129.841       -2.910      128.086       81.792       50.449    16405.986     6689.912     2545.138        6.668        1.282      328.215       55.726        0.029      350.391       31.518      857.937
07/01/2014  19:07:00     -216.964      -72.379       -8.198       98.549       75.819       50.016     9711.867     5748.545     2501.579        3.517        0.898      228.718       56.424        0.061      350.387       31.512      857.971
07/01/2014  19:08:00     -247.345     -125.464      -11.610       82.666       92.380       42.623     6833.598     8534.068     1816.751        4.712        0.859      277.346       29.972        0.012      350.383       31.504      857.994
07/01/2014  19:09:00     -274.547      -65.802      -13.436      101.416       77.859       43.870    10285.283     6061.947     1924.551        4.908        0.914      282.322       49.239        0.030      350.360       31.464      858.016
07/01/2014  19:10:00     -209.911      -48.950       -5.020      106.665       77.960       42.309    11377.426     6077.723     1790.078        3.286        0.962      215.543       51.106        0.056      350.329       31.409      858.038
07/01/2014  19:11:00     -286.444      -50.586      -18.560      122.222       80.364       46.896    14938.325     6458.368     2199.270        5.427        1.180      290.876       60.258        0.043      350.311       31.379      858.070
07/01/2014  19:12:00     -239.413      -51.503      -17.200       70.519       63.193       40.099     4972.922     3993.397     1607.892        3.542        0.529      244.890       26.581        0.012      350.315       31.385      858.098
07/01/2014  19:13:00     -236.031      -81.147      -12.091       84.035       70.770       42.211     7061.798     5008.399     1781.801        3.814        0.693      249.591       31.697        0.016      350.289       31.340      858.132
07/01/2014  19:14:00     -169.006        4.813      -17.524       83.054       81.876       37.468     6897.904     6703.683     1403.827        2.195        0.750      169.075       31.709        0.035      350.302       31.366      858.161
07/01/2014  19:15:00     -132.249       28.965      -19.289       84.610       66.376       48.278     7158.924     4405.784     2330.774        1.630        0.695      135.384       43.333        0.102      350.283       31.334      858.197
07/01/2014  19:16:00     -254.582       92.826      -27.494      116.188       93.280       63.419    13499.580     8701.075     4021.981        5.020        1.311      270.977       54.941        0.041      350.295       31.353      858.271
07/01/2014  19:17:00     -548.670      128.068      -80.677      201.528      214.613      108.659    40613.617    46058.615    11806.835       21.120        4.924      563.419      116.342        0.043      349.456       29.893      858.318
07/01/2014  19:18:00     -370.312      104.165      -27.880      199.861      137.796       99.730    39944.555    18987.695     9946.001       10.881        3.444      384.684      111.860        0.085      349.095       29.269      858.333
07/01/2014  19:19:00     -231.741       18.429      -21.185      162.058      141.415       84.708    26262.779    19998.216     7175.477        5.396        2.672      232.473       65.564        0.080      348.988       29.083      858.289
07/01/2014  19:20:00     -304.199      344.153      -66.518      186.582      249.272       78.135    34812.960    62136.368     6105.138       15.921        5.153      459.324       90.912        0.039      348.868       28.875      858.257
07/01/2014  19:21:00     -342.038      383.801      -65.677      203.863      172.538       92.806    41560.029    29769.311     8612.875       17.426        3.997      514.095       91.808        0.032      348.842       28.829      858.232
07/01/2014  19:22:00     -396.694      361.656      -79.620      186.383      162.787      106.274    34738.572    26499.666    11294.222       18.350        3.627      536.806      106.952        0.040      348.830       28.808      858.246
07/01/2014  19:23:00     -256.536      328.801      -57.362      108.899      131.320       64.899    11858.955    17244.872     4211.845       10.526        1.666      417.039       61.887        0.022      348.795       28.749      858.303
07/01/2014  19:24:00     -269.531      295.338      -56.925      149.476      119.627       82.415    22343.188    14310.671     6792.199       10.327        2.172      399.839       92.094        0.053      348.745       28.664      858.280
07/01/2014  19:25:00     -200.125      157.191      -33.575      106.975      138.119       55.154    11443.743    19076.914     3041.959        4.972        1.678      254.478       50.107        0.039      348.798       28.754      858.202
07/01/2014  19:26:00     -319.318      145.580      -54.908      171.768      133.798       80.400    29504.128    17902.001     6464.112        9.001        2.694      350.938       87.112        0.062      348.878       28.892      858.189
07/01/2014  19:27:00     -429.013     -160.750      -42.341      171.800      147.883       80.494    29515.380    21869.493     6479.338       13.477        2.893      458.141       65.343        0.020      348.985       29.078      858.155
07/01/2014  19:28:00     -292.210       61.734      -40.501      126.887      150.254       63.860    16100.387    22576.168     4078.054        6.679        2.138      298.660       62.871        0.044      349.045       29.182      858.179
07/01/2014  19:29:00     -160.229       82.214      -15.968      121.237      110.523       63.689    14698.354    12215.308     4056.327        3.182        1.548      180.090       80.006        0.197      349.145       29.357      858.159
07/01/2014  19:30:00     -292.353      174.202      -50.532      136.191      129.637       71.111    18547.936    16805.697     5056.732        7.938        2.021      340.318       70.184        0.043      349.201       29.452      858.154
07/01/2014  19:31:00     -187.685      327.062      -35.654      112.807      119.967       70.600    12725.342    14392.095     4984.394        8.778        1.605      377.088       71.046        0.035      349.194       29.439      858.151
07/01/2014  19:32:00     -220.099      211.565      -38.614      106.302      114.671       63.933    11300.101    13149.369     4087.474        6.161        1.427      305.292       55.714        0.033      349.294       29.614      858.159
07/01/2014  19:33:00     -105.149      165.446       -5.859       75.836       90.373       46.632     5751.032     8167.362     2174.502        2.728        0.805      196.032       56.551        0.083      349.341       29.697      858.135
07/01/2014  19:34:00      -85.921      106.881       10.789       86.429      108.919       57.063     7470.048    11863.424     3256.184        2.075        1.129      137.135       49.592        0.131      349.449       29.883      858.124
07/01/2014  19:35:00     -180.423      138.533      -33.223      114.344      110.020       57.451    13074.655    12104.292     3300.644        4.066        1.424      227.473       49.087        0.047      349.512       29.992      858.146
07/01/2014  19:36:00      -90.929       93.922        1.630      105.309      121.635       58.209    11089.965    14794.970     3388.294        2.318        1.464      130.726       54.162        0.172      349.525       30.015      858.151
07/01/2014  19:37:00     -222.725       17.392      -23.299      104.350      118.242       58.637    10888.922    13981.192     3438.302        3.938        1.415      223.403       45.940        0.042      349.502       29.973      858.145
07/01/2014  19:38:00     -151.938      153.197      -41.674       82.060      117.081       59.397     6733.851    13707.895     3527.963        3.613        1.198      215.765       40.891        0.036      349.460       29.900      858.146
07/01/2014  19:39:00     -172.540      226.949      -41.448      100.999      153.112       60.685    10200.779    23443.233     3682.640        6.015        1.866      285.089       47.298        0.028      349.409       29.811      858.163
07/01/2014  19:40:00     -234.632      388.443      -52.242      147.364      169.408       82.992    21716.188    28699.096     6887.619       13.298        2.865      453.807       61.419        0.018      349.286       29.600      858.154
07/01/2014  19:41:00     -297.422      276.611      -67.292      113.582      161.828       81.733    12900.854    26188.364     6680.337       10.763        2.288      406.170       70.859        0.030      349.273       29.577      858.170
07/01/2014  19:42:00     -157.583      161.800      -17.840      115.559      101.494       67.965    13353.988    10301.130     4619.180        3.980        1.414      225.857       49.429        0.048      349.315       29.650      858.171
07/01/2014  19:43:00     -233.242      296.996      -49.648       86.917      100.431       58.636     7554.567    10086.344     3438.231        8.307        1.054      377.636       53.724        0.020      349.333       29.681      858.191
07/01/2014  19:44:00     -271.811      280.919      -42.131      136.229      109.680       83.070    18558.242    12029.667     6900.671        9.602        1.874      390.892       70.572        0.033      349.325       29.665      858.200
07/01/2014  19:45:00     -187.717      250.728      -28.002      112.274      117.776       66.724    12605.560    13871.207     4452.058        6.490        1.546      313.213       71.152        0.052      349.275       29.582      858.219
07/01/2014  19:46:00     -196.371      242.068      -36.507      111.839      136.975       67.310    12507.996    18762.187     4530.689        6.714        1.790      311.702       71.595        0.053      349.235       29.512      858.221
07/01/2014  19:47:00     -274.484      333.688      -66.364      123.396      139.232       70.147    15226.598    19385.595     4920.534       11.531        1.977      432.075       71.122        0.027      349.180       29.416      858.237
07/01/2014  19:48:00     -278.143      305.742      -58.846      127.737      135.496       82.474    16316.704    18359.169     6801.902       10.788        2.074      413.330       83.435        0.041      349.179       29.414      858.265
07/01/2014  19:49:00     -217.942      225.565      -44.674       95.756       90.663       57.102     9169.124     8219.809     3260.647        6.051        1.032      313.653       55.800        0.032      349.180       29.416      858.283
07/01/2014  19:50:00     -203.556      225.780      -23.265      136.695      104.466       71.552    18685.405    10913.115     5119.750        6.383        1.736      303.993       58.863        0.037      349.198       29.447      858.294
07/01/2014  19:51:00     -119.576       96.864      -18.744      106.657       79.306       43.917    11375.784     6289.434     1928.729        2.181        0.980      153.887       33.919        0.049      349.200       29.451      858.306
07/01/2014  19:52:00     -131.883      207.394      -28.994      103.355       90.091       56.389    10682.307     8116.321     3179.691        4.161        1.099      245.775       53.481        0.047      349.100       29.276      858.310
07/01/2014  19:53:00     -219.836      222.419      -51.956      112.497      109.753       54.716    12655.599    12045.744     2993.847        6.409        1.385      312.727       62.536        0.040      348.998       29.100      858.346
07/01/2014  19:54:00     -201.881      322.164      -37.684      134.942      155.747       94.462    18209.395    24257.004     8923.055        9.867        2.569      380.191       81.296        0.046      348.877       28.890      858.363
07/01/2014  19:55:00     -273.431      302.364      -52.543      140.635      189.184       89.855    19778.155    35790.632     8073.996       11.629        3.182      407.662      112.183        0.076      348.827       28.803      858.383
07/01/2014  19:56:00     -220.157      204.479      -57.448      113.346       63.174       46.125    12847.234     3990.974     2127.518        5.627        0.948      300.468       45.568        0.023      348.858       28.855      858.368
07/01/2014  19:57:00     -149.024      279.872      -20.665      103.800      159.260       77.784    10774.527    25363.750     6050.288        7.157        2.109      317.075       58.260        0.034      348.879       28.893      858.360
07/01/2014  19:58:00     -120.946      163.005      -23.790      112.650      128.106       51.852    12689.949    16411.192     2688.616        3.677        1.589      202.974       40.547        0.040      348.827       28.804      858.378
07/01/2014  19:59:00     -158.247      218.430      -19.666      104.331      177.735       60.265    10884.922    31589.695     3631.879        5.962        2.305      269.729       72.643        0.073      348.824       28.798      858.397
07/01/2014  20:00:00     -127.418      278.139      -20.174       95.429      154.347       62.473     9106.667    23823.060     3902.892        6.541        1.842      305.936       55.968        0.033      348.793       28.745      858.415
07/01/2014  20:01:00     -129.931      221.841      -18.106       98.424      129.674       61.873     9687.191    16815.272     3828.237        4.837        1.517      257.091       58.102        0.051      348.773       28.710      858.476
07/01/2014  20:02:00     -140.078      215.547      -20.318      127.192      103.395       70.398    16177.909    10690.426     4955.904        4.915        1.591      257.065       52.427        0.042      348.737       28.649      858.497
07/01/2014  20:03:00     -223.380      309.448      -64.480      127.713      107.373       74.393    16310.564    11528.969     5534.255        9.159        1.669      381.650       74.261        0.038      348.690       28.568      858.504
07/01/2014  20:04:00     -172.735      296.740      -37.702      112.454      109.395       68.680    12646.010    11967.186     4716.921        7.432        1.467      343.354       68.216        0.039      348.675       28.541      858.509
07/01/2014  20:05:00     -102.714      286.711      -19.487      127.148      114.853       64.549    16166.491    13191.298     4166.609        6.332        1.676      304.554       44.611        0.021      348.676       28.542      858.518
07/01/2014  20:06:00      -55.788      383.378      -43.158       72.491       75.200       42.237     5254.897     5655.107     1783.965        8.232        0.635      387.416       38.484        0.010      348.664       28.521      858.509
07/01/2014  20:07:00      -40.339      313.515      -45.344       69.133       79.361       39.762     4779.378     6298.231     1581.017        5.731        0.633      316.100       26.042        0.007      348.592       28.396      858.494
07/01/2014  20:08:00      -72.484      330.000      -30.278      116.080      158.903       62.548    13474.498    25250.292     3912.262        7.885        2.132      337.867       68.452        0.041      348.596       28.403      858.510
07/01/2014  20:09:00     -116.761      287.329      -44.352       75.784      117.620       59.847     5743.248    13834.494     3581.721        6.066        1.158      310.147       56.918        0.034      348.595       28.401      858.544
07/01/2014  20:10:00      -99.816      346.168      -39.331      103.220      193.948       60.625    10654.365    37615.995     3675.338        9.164        2.597      360.272       82.347        0.052      348.600       28.411      858.566
07/01/2014  20:11:00     -161.090      610.866      -80.440      130.157      139.251       71.229    16940.928    19390.711     5073.500       22.348        2.070      631.749       53.788        0.007      348.607       28.423      858.592
07/01/2014  20:12:00     -158.818      383.968      -44.830      114.779      185.423       76.890    13174.122    34381.726     5912.149       11.406        2.673      415.517       83.185        0.040      348.632       28.467      858.625
07/01/2014  20:13:00     -158.846      355.645      -45.283      153.045      174.695       79.305    23422.709    30518.174     6289.359       10.699        3.012      389.506       75.293        0.037      348.676       28.541      858.660
07/01/2014  20:14:00     -146.451      346.133      -35.789       89.968      119.157       62.954     8094.193    14198.349     3963.236        8.439        1.313      375.841       63.118        0.028      348.663       28.519      858.688
07/01/2014  20:15:00     -164.914      445.226      -50.439      121.581      219.750       74.251    14781.990    48289.914     5513.239       14.826        3.429      474.787       91.642        0.037      348.652       28.499      858.699
07/01/2014  20:16:00     -219.124      357.466      -43.279      168.088      251.016       82.741    28253.741    63009.132     6846.094       13.787        4.905      419.282      110.905        0.070      348.641       28.481      858.689
07/01/2014  20:17:00     -207.819      437.991      -70.117      114.886      161.967       70.531    13198.875    26233.306     4974.554       14.217        2.220      484.793       69.217        0.020      348.623       28.451      858.703
07/01/2014  20:18:00     -229.442      498.885      -76.102      171.028      155.037       95.038    29250.492    24036.448     9032.155       18.481        3.116      549.118       99.819        0.033      348.613       28.432      858.711
07/01/2014  20:19:00     -200.225      417.579      -53.439      137.231      150.915       85.776    18832.344    22775.412     7357.486       13.313        2.448      463.101       81.172        0.031      348.571       28.361      858.719
07/01/2014  20:20:00     -164.560      382.548      -29.192      133.290      174.684       72.484    17766.178    30514.616     5253.988       11.390        2.677      416.441       73.689        0.031      348.537       28.302      858.699
07/01/2014  20:21:00     -153.100      267.040      -38.609       88.034      154.664       64.439     7750.001    23920.822     4152.336        6.603        1.791      307.815       67.293        0.048      348.530       28.288      858.700
07/01/2014  20:22:00     -211.610      412.607      -58.505      134.271      161.935       76.034    18028.751    26223.067     5781.166       13.423        2.502      463.706       78.506        0.029      348.499       28.234      858.683
07/01/2014  20:23:00     -149.904      310.693      -48.184      122.040      137.999       57.418    14893.776    19043.681     3296.846        7.927        1.862      344.966       49.872        0.021      348.500       28.238      858.670
07/01/2014  20:24:00      -84.092      226.846      -25.850       70.066      148.825       53.397     4909.185    22148.764     2851.278        4.455        1.495      241.931       58.281        0.058      348.464       28.175      858.662
07/01/2014  20:25:00     -120.555      196.688      -18.318       98.306      145.342       61.120     9664.067    21124.334     3735.716        4.403        1.726      230.694       61.758        0.072      348.447       28.145      858.682
07/01/2014  20:26:00     -129.387      220.933       -9.082      142.285      156.437       70.071    20244.893    24472.397     4909.995        5.762        2.481      256.032       70.663        0.076      348.422       28.106      858.683
07/01/2014  20:27:00     -110.469      185.971      -28.482       80.191      112.588       45.163     6430.568    12675.996     2039.700        3.437        1.057      216.306       43.456        0.040      348.422       28.105      858.674
07/01/2014  20:28:00     -186.809      337.554      -48.567       92.742      141.671       61.880     8601.071    20070.708     3829.135        9.184        1.625      385.798       62.217        0.026      348.425       28.109      858.672
07/01/2014  20:29:00     -105.139      185.562      -33.944      102.938      111.096       50.290    10596.194    12342.221     2529.083        3.605        1.273      213.278       47.902        0.050      348.423       28.107      858.676
07/01/2014  20:30:00     -128.754      231.961      -23.470      118.255      115.214       64.268    13984.193    13274.366     4130.383        5.116        1.569      265.298       62.885        0.056      348.425       28.108      858.671
07/01/2014  20:31:00     -126.820      323.406      -37.580      123.111      130.606       63.484    15156.287    17057.848     4030.233        7.916        1.812      347.383       48.459        0.019      348.460       28.169      858.639
07/01/2014  20:32:00     -144.349      225.141      -48.260      108.082      103.517       62.855    11681.654    10715.794     3950.720        5.010        1.317      267.442       43.580        0.027      348.467       28.181      858.637
07/01/2014  20:33:00      -78.167      345.786      -19.419       84.588      244.333       66.232     7155.085    59698.728     4386.695        9.864        3.562      354.512       86.364        0.059      348.484       28.211      858.642
07/01/2014  20:34:00     -131.004      208.785      -40.839       98.512      132.910       58.518     9704.630    17665.154     3424.355        4.660        1.540      246.481       44.064        0.032      348.475       28.194      858.644
07/01/2014  20:35:00      -84.656      200.056      -31.143       78.113       91.390       50.396     6101.624     8352.095     2539.796        3.257        0.850      217.230       47.092        0.047      348.420       28.100      858.645
07/01/2014  20:36:00     -116.004      167.951      -30.232       93.728       88.635       48.922     8784.859     7856.150     2393.385        3.080        0.952      204.119       43.224        0.045      348.431       28.120      858.648
07/01/2014  20:37:00     -172.725      244.528      -39.245      117.518      128.063       65.034    13810.557    16400.125     4229.482        6.280        1.722      299.379       73.114        0.060      348.459       28.168      858.668
07/01/2014  20:38:00     -146.370      181.119      -29.141       94.688      119.489       45.824     8965.853    14277.544     2099.884        4.021        1.267      232.869       39.172        0.028      348.499       28.236      858.667
07/01/2014  20:39:00      -77.397       82.149        1.177      103.156      107.061       55.656    10641.144    11462.130     3097.620        1.897        1.260      112.866       58.475        0.268      348.491       28.224      858.660
07/01/2014  20:40:00     -238.231      137.451      -26.455      133.736      126.317       75.690    17885.276    15956.091     5728.959        5.795        1.979      275.039       75.295        0.075      348.619       28.444      858.653
07/01/2014  20:41:00     -189.685      238.149      -52.405       91.724       99.954       55.944     8413.265     9990.848     3129.685        5.848        1.077      304.460       64.929        0.045      348.622       28.449      858.669
07/01/2014  20:42:00     -121.854       34.927       -2.340       92.586       77.997       53.734     8572.244     6083.540     2887.291        1.681        0.877      126.761       40.671        0.103      348.667       28.529      858.669
07/01/2014  20:43:00     -163.207       25.419      -11.340      126.144      110.536       54.793    15912.323    12218.294     3002.233        2.927        1.557      165.175       57.781        0.122      348.620       28.446      858.669
07/01/2014  20:44:00     -193.959       77.929      -29.101      102.122      102.976       57.104    10428.995    10604.015     3260.850        3.441        1.215      209.029       57.357        0.075      348.659       28.514      858.689
07/01/2014  20:45:00     -121.274       72.982      -15.026       80.319      104.532       50.477     6451.074    10926.862     2547.965        2.009        0.996      141.541       49.222        0.121      348.596       28.408      858.691
07/01/2014  20:46:00      -72.967      -18.303       -0.079       60.148       47.747       35.081     3617.750     2279.798     1230.665        0.639        0.356       75.228       27.661        0.135      348.583       28.385      858.684
07/01/2014  20:47:00     -179.700       59.163      -33.950       76.796       83.725       40.365     5897.680     7009.926     1629.295        2.574        0.727      189.188       34.557        0.033      348.607       28.423      858.705
07/01/2014  20:48:00     -169.142        0.656      -19.691       85.366       79.304       46.779     7287.276     6289.045     2188.278        2.238        0.788      169.143       48.480        0.082      348.616       28.440      858.707
07/01/2014  20:49:00     -181.149       24.188      -29.966      128.429      121.907       57.984    16493.998    14861.233     3362.183        3.450        1.736      182.757       56.127        0.094      348.600       28.412      858.723
07/01/2014  20:50:00      -86.874       57.125      -20.441       82.253       74.418       49.393     6765.505     5537.988     2439.698        1.298        0.737      103.973       32.663        0.099      348.578       28.374      858.736
07/01/2014  20:51:00     -143.823      -28.187      -11.508       83.915       87.305       42.422     7041.787     7622.226     1799.595        1.904        0.823      146.559       46.801        0.102      348.549       28.322      858.758
07/01/2014  20:52:00      -86.137      -53.065        8.147      140.356      100.653       45.527    19699.930    10131.056     2072.727        2.110        1.595      101.171       58.762        0.337      348.468       28.186      858.759
07/01/2014  20:53:00     -160.136     -120.814        9.592      118.495      104.087       55.381    14041.057    10834.075     3067.052        3.413        1.397      200.598       67.419        0.113      348.525       28.282      858.764
07/01/2014  20:54:00     -146.011      -94.058       19.237      122.813       93.903       59.775    15083.051     8817.698     3573.088        2.900        1.374      173.684       66.094        0.145      348.527       28.285      858.813
07/01/2014  20:55:00     -165.702      -82.544       -8.760       92.445      104.838       42.130     8546.012    10991.023     1774.956        2.783        1.066      185.123       47.579        0.066      348.584       28.384      858.872
07/01/2014  20:56:00      -92.981     -175.665       13.465       95.519      105.250       54.215     9123.847    11077.464     2939.238        3.141        1.157      198.756       60.867        0.094      348.593       28.399      858.843
07/01/2014  20:57:00     -145.374      -87.132       -2.801       45.823       58.413       29.953     2099.752     3412.022      897.210        1.757        0.320      169.486       21.042        0.015      348.551       28.327      858.838
07/01/2014  20:58:00     -144.283      -76.757       -0.444       95.412       66.056       39.556     9103.528     4363.371     1564.656        2.087        0.752      163.430       46.374        0.081      348.465       28.179      858.857
07/01/2014  20:59:00     -205.133     -105.295        9.188      107.181       75.183       48.268    11487.772     5652.531     2329.759        3.636        0.974      230.579       45.305        0.039      348.407       28.078      858.856
07/01/2014  21:00:00     -203.627     -152.055       12.075      131.828      131.545       64.848    17378.734    17304.110     4205.271        5.180        1.944      254.135       76.384        0.090      348.395       28.057      858.888
07/01/2014  21:01:00     -209.649     -228.433       -0.106      120.850      108.093       72.857    14604.699    11684.035     5308.104        6.386        1.580      310.056       75.137        0.059      348.442       28.137      858.856
07/01/2014  21:02:00     -144.548     -207.937       13.010      110.217       97.725       64.030    12147.794     9550.189     4099.865        4.505        1.290      253.243       55.707        0.048      348.405       28.074      858.845
07/01/2014  21:03:00     -121.073     -200.333      -13.405       74.290       87.116       55.515     5519.062     7589.253     3081.918        3.558        0.810      234.077       41.174        0.031      348.372       28.016      858.858
07/01/2014  21:04:00     -140.734      -88.783       19.046      109.060       76.493       42.203    11894.144     5851.205     1781.058        2.379        0.976      166.398       52.235        0.099      348.264       27.831      858.859
07/01/2014  21:05:00      -82.553      -71.275        4.540       73.147       47.788       34.214     5350.449     2283.654     1170.596        1.036        0.440      109.065       34.922        0.103      348.264       27.833      858.860
07/01/2014  21:06:00      -70.049     -137.958        0.790       66.242       96.434       35.135     4387.962     9299.454     1234.489        1.943        0.746      154.723       31.976        0.043      348.257       27.818      858.841
07/01/2014  21:07:00     -108.700      -57.670        0.038       71.087       70.518       34.472     5053.312     4972.736     1188.350        1.318        0.561      123.051       38.186        0.096      348.240       27.790      858.896
07/01/2014  21:08:00     -126.189      -84.889       -3.755       47.937       68.322       32.932     2297.966     4667.898     1084.527        1.560        0.403      152.085       27.566        0.033      348.233       27.780      858.935
07/01/2014  21:09:00     -127.928      -43.985        1.035       72.512       56.033       38.269     5257.996     3139.729     1464.528        1.408        0.493      135.278       42.747        0.100      348.194       27.713      858.923
07/01/2014  21:10:00      -74.513       -7.552       11.586       79.559       50.421       33.602     6329.683     2542.308     1129.082        0.787        0.500       74.895       40.053        0.286      348.225       27.765      858.922
07/01/2014  21:11:00      -88.029      -68.180       15.797      113.468       71.799       45.790    12874.925     5155.025     2096.704        1.638        1.006      111.344       45.426        0.166      348.287       27.872      858.923
07/01/2014  21:12:00      -55.574      -69.525        0.719       51.784       67.848       36.664     2681.534     4603.376     1344.263        0.827        0.431       89.006       33.747        0.144      348.516       28.270      858.913
07/01/2014  21:13:00      -95.213     -136.805        3.564       57.917       68.699       32.591     3354.355     4719.581     1062.194        1.846        0.457      166.676       34.629        0.043      348.608       28.426      858.912
07/01/2014  21:14:00      -58.633     -264.660        4.544       48.107       68.018       34.907     2314.323     4626.507     1218.502        4.083        0.408      271.077       17.441        0.004      348.690       28.566      858.900
07/01/2014  21:15:00      -87.237     -156.527        2.493       66.729       87.198       32.688     4452.764     7603.559     1068.493        2.262        0.656      179.195       29.399        0.027      348.721       28.623      858.910
07/01/2014  21:16:00      -38.516      -96.856        4.481       31.526       57.937       27.154      993.908     3356.691      737.364        0.799        0.254      104.234       21.138        0.041      348.719       28.620      858.917
07/01/2014  21:17:00        1.754        0.861       19.955       58.579       50.932       32.288     3431.528     2594.065     1042.543        0.373        0.353        1.954       40.215      423.618      348.415       28.094      858.899
07/01/2014  21:18:00      -35.870       64.463      -15.185       36.798       32.455       24.025     1354.129     1053.335      577.211        0.433        0.149       73.771       16.015        0.047      348.302       27.899      858.939
07/01/2014  21:19:00      -73.362       69.070      -18.946       26.828       27.287       13.535      719.743      744.578      183.200        0.608        0.082      100.760       14.382        0.020      348.299       27.894      858.966
07/01/2014  21:20:00      -18.217       11.578        5.536       27.890       43.127       15.860      777.830     1859.968      251.527        0.169        0.144       21.585       11.942        0.306      348.094       27.540      858.974
07/01/2014  21:21:00      -57.441       -2.640       -4.386       26.378       21.382       14.491      695.800      457.184      209.990        0.234        0.068       57.502       13.834        0.058      348.211       27.740      858.989
07/01/2014  21:22:00     -128.796        9.047      -10.873       64.358       30.093       27.039     4141.908      905.604      731.091        1.128        0.289      129.114       29.248        0.051      348.166       27.663      858.999
07/01/2014  21:23:00     -126.379      -36.211       -8.765       37.508       37.060       18.759     1406.866     1373.415      351.914        1.025        0.157      131.464       18.378        0.020      348.247       27.804      859.001
07/01/2014  21:24:00     -155.534      -21.760      -15.935       25.244       24.051       14.453      637.258      578.431      208.895        1.317        0.071      157.049       11.688        0.006      348.390       28.053      859.024
07/01/2014  21:25:00     -134.172      -53.551      -11.954       42.599       31.521       20.142     1814.665      993.589      405.691        1.211        0.161      144.464       20.973        0.021      348.284       27.868      859.024
07/01/2014  21:26:00      -87.495      -52.252        7.847       43.146       30.161       24.407     1861.548      909.681      595.711        0.691        0.168      101.910       23.453        0.053      348.190       27.706      859.024
07/01/2014  21:27:00      -18.458     -175.527        8.852       60.612       76.619       42.357     3673.833     5870.416     1794.151        2.128        0.567      176.495       26.094        0.022      348.691       28.569      859.023
07/01/2014  21:28:00     -137.613      -63.111       -5.418       66.778       55.323       30.729     4459.365     3060.636      944.245        1.571        0.423      151.395       26.074        0.030      348.415       28.094      859.022
07/01/2014  21:29:00      -68.214      -32.882        1.440       48.788       32.896       23.107     2380.281     1082.125      533.946        0.487        0.200       75.726       21.473        0.080      348.202       27.725      859.032
07/01/2014  21:30:00     -107.393      -33.353        6.665       32.996       28.999       19.194     1088.726      840.966      368.401        0.749        0.115      112.453       19.636        0.030      348.154       27.643      859.045
07/01/2014  21:31:00      -74.155      -54.047        4.237       45.281       23.211       18.502     2050.373      538.732      342.339        0.568        0.147       91.761       21.692        0.056      348.177       27.681      859.054
07/01/2014  21:32:00      -43.492      -82.945       -0.369       24.627       27.187       19.607      606.467      739.143      384.440        0.525        0.087       93.656       13.049        0.019      348.304       27.903      859.054
07/01/2014  21:33:00       -8.652     -104.815       -3.892       31.129       29.036       22.723      969.000      843.063      516.326        0.670        0.116      105.171       13.636        0.017      348.477       28.201      859.054
07/01/2014  21:34:00      -44.922      -82.260        2.525       39.829       39.073       21.620     1586.324     1526.704      467.442        0.619        0.179       93.727       18.438        0.039      348.341       27.967      859.087
07/01/2014  21:35:00      -51.771     -112.355       -0.058       39.735       43.009       26.344     1578.886     1849.810      694.009        0.971        0.206      123.709       21.096        0.029      348.347       27.977      859.093
07/01/2014  21:36:00      -69.648     -135.476       -2.260       62.698       46.111       29.817     3931.000     2126.245      889.072        1.508        0.347      152.330       24.362        0.026      348.297       27.888      859.086
07/01/2014  21:37:00      -97.563      -99.041       -7.679       61.769       54.893       34.291     3815.419     3013.264     1175.863        1.369        0.400      139.024       31.482        0.051      348.149       27.633      859.084
07/01/2014  21:38:00      -68.047      -96.722       -0.079       54.767       40.565       32.773     2999.410     1645.515     1074.075        0.985        0.286      118.261       20.282        0.029      348.211       27.742      859.085
07/01/2014  21:39:00     -105.251      -76.463        0.959       54.388       45.675       37.358     2958.058     2086.209     1395.639        1.168        0.322      130.094       25.575        0.039      348.119       27.582      859.080
07/01/2014  21:40:00     -108.432      -69.999        4.741       65.504       42.457       27.029     4290.731     1802.603      730.549        1.175        0.341      129.063       27.568        0.046      347.962       27.310      859.083
07/01/2014  21:41:00     -121.310      -14.327       -6.057       65.736       37.029       25.876     4321.272     1371.157      669.584        1.066        0.318      122.153       26.633        0.048      347.905       27.215      859.086
07/01/2014  21:42:00     -137.606      -44.682       -1.451       66.656       44.195       29.270     4443.088     1953.239      856.751        1.409        0.363      144.679       35.810        0.061      347.815       27.056      859.086
07/01/2014  21:43:00     -153.121      -54.947       -1.660       51.582       38.685       22.375     2660.656     1496.514      500.647        1.556        0.233      162.681       26.598        0.027      347.866       27.146      859.069
07/01/2014  21:44:00     -142.399      -56.032      -13.039       56.038       47.625       26.038     3140.271     2268.140      677.958        1.484        0.304      153.026       27.193        0.032      348.033       27.433      859.049
07/01/2014  21:45:00     -174.326      -87.264       -1.006       47.388       36.761       28.329     2245.593     1351.334      802.527        2.120        0.220      194.948       24.668        0.016      347.975       27.331      859.037
07/01/2014  21:46:00     -162.102      -55.817       -1.153       66.205       51.138       31.535     4383.039     2615.089      994.454        1.869        0.400      171.442       35.596        0.043      347.934       27.260      859.038
07/01/2014  21:47:00     -174.859      -54.371        0.798       63.212       56.607       27.395     3995.783     3204.300      750.504        2.074        0.398      183.117       22.655        0.015      347.885       27.177      859.036
07/01/2014  21:48:00     -198.870      -79.566        1.569       48.860       56.270       31.215     2387.265     3166.339      974.397        2.620        0.326      214.196       25.794        0.015      347.859       27.130      859.018
07/01/2014  21:49:00     -146.162      -91.501        0.550       76.453       54.418       36.162     5845.084     2961.354     1307.690        1.992        0.506      172.441       42.252        0.060      347.796       27.024      859.027
07/01/2014  21:50:00     -185.925      -75.816       -6.564       69.885       53.736       31.318     4883.878     2887.530      980.823        2.455        0.438      200.789       33.401        0.028      347.856       27.127      859.017
07/01/2014  21:51:00     -152.516      -37.848        6.140       65.407       50.599       33.147     4278.059     2560.227     1098.721        1.633        0.397      157.142       33.637        0.046      347.788       27.009      859.022
07/01/2014  21:52:00     -143.694      -43.491        2.256       72.747       40.970       31.932     5292.085     1678.552     1019.684        1.527        0.400      150.131       34.681        0.053      347.704       26.866      859.029
07/01/2014  21:53:00     -187.715      -48.786       -0.822       83.710       44.782       33.091     7007.333     2005.395     1095.033        2.386        0.505      193.951       38.324        0.039      347.790       27.013      859.032
07/01/2014  21:54:00     -221.346      -60.919        5.507      104.752       64.614       50.222    10973.035     4174.971     2522.294        3.520        0.884      229.576       57.026        0.062      347.904       27.208      859.029
07/01/2014  21:55:00     -159.965      -35.838       -0.209       61.738       41.319       28.945     3811.555     1707.265      837.827        1.661        0.318      163.931       29.342        0.032      347.841       27.100      859.036
07/01/2014  21:56:00     -164.625      -22.183       -2.369       72.600       45.120       35.638     5270.713     2035.785     1270.047        1.809        0.429      166.113       41.221        0.062      347.792       27.017      859.044
07/01/2014  21:57:00     -185.056      -77.091       -2.996       65.932       57.141       35.359     4347.048     3265.069     1250.284        2.453        0.443      200.471       33.049        0.027      347.916       27.228      859.049
07/01/2014  21:58:00     -152.331     -101.561        2.832       94.307       68.299       31.514     8893.859     4664.757      993.137        2.404        0.728      183.083       39.479        0.046      347.781       26.996      859.063
07/01/2014  21:59:00     -160.910      -69.987       -0.068       82.398       48.544       33.394     6789.353     2356.568     1115.132        2.052        0.513      175.471       38.408        0.048      347.699       26.856      859.077
07/01/2014  22:00:00     -138.472      -79.188        0.831       76.053       57.921       42.165     5784.026     3354.824     1777.871        1.818        0.546      159.516       46.072        0.083      347.672       26.810      859.087
07/01/2014  22:01:00     -224.312      -54.692        3.916       48.891       49.858       31.339     2390.319     2485.799      982.144        2.959        0.293      230.884       24.725        0.011      347.757       26.953      859.080
07/01/2014  22:02:00     -243.619      -73.396        0.646       66.319       47.788       32.921     4398.222     2283.712     1083.779        3.625        0.388      254.435       32.135        0.016      347.775       26.984      859.068
07/01/2014  22:03:00     -309.034      -49.058      -21.203      124.623      100.242       45.556    15530.895    10048.466     2075.340        6.300        1.383      312.904       50.746        0.026      348.196       27.713      859.045
07/01/2014  22:04:00     -220.479      -85.146       -3.689      103.996       81.585       46.862    10815.271     6656.107     2196.072        3.777        0.983      236.349       44.205        0.035      348.266       27.833      859.037
07/01/2014  22:05:00     -203.062      -37.603       -6.244       96.170       83.226       36.930     9248.682     6926.560     1363.861        3.011        0.877      206.515       38.482        0.035      348.307       27.906      859.021
07/01/2014  22:06:00     -131.421      -34.626       -4.015       63.721       59.671       27.156     4060.340     3560.603      737.448        1.342        0.418      135.906       26.710        0.039      348.089       27.530      859.025
07/01/2014  22:07:00     -143.808      -37.294      -10.736       43.103       61.331       28.378     1857.857     3761.487      805.335        1.430        0.321      148.565       17.807        0.014      348.052       27.466      859.028
07/01/2014  22:08:00     -250.594      -18.689      -21.545       57.492       52.931       28.549     3305.328     2801.648      815.062        3.527        0.346      251.289       22.493        0.008      347.975       27.328      859.052
07/01/2014  22:09:00     -241.101      -75.309      -17.248       56.085       46.892       36.721     3145.547     2198.846     1348.448        3.539        0.335      252.589       30.793        0.015      347.976       27.331      859.052
07/01/2014  22:10:00     -216.510      -30.797       -8.025       49.357       36.644       25.644     2436.135     1342.801      657.598        2.616        0.222      218.689       21.565        0.010      347.995       27.366      859.053
07/01/2014  22:11:00     -119.001       50.143      -12.912       38.007       32.104       17.003     1444.540     1030.693      289.089        0.980        0.138      129.134       11.945        0.009      347.858       27.132      859.056
07/01/2014  22:12:00     -117.066       40.978       -6.408       42.553       30.791       20.223     1810.774      948.061      408.969        0.930        0.158      124.031       21.360        0.030      347.801       27.035      859.057
07/01/2014  22:13:00     -114.844       35.822      -14.359       63.925       49.318       28.437     4086.452     2432.271      808.685        1.100        0.366      120.301       26.113        0.047      347.871       27.154      859.074
07/01/2014  22:14:00     -126.876       21.792      -14.006       58.342       50.683       31.858     3403.791     2568.747     1014.910        1.188        0.349      128.734       30.576        0.056      347.821       27.067      859.083
07/01/2014  22:15:00     -111.869       -1.072      -20.542       44.370       32.065       17.455     1968.711     1028.137      304.675        0.812        0.165      111.874       18.665        0.028      347.824       27.073      859.095
07/01/2014  22:16:00      -70.932       -8.768        1.840       25.234       44.306       21.260      636.771     1963.014      451.995        0.408        0.153       71.472       17.597        0.061      347.806       27.042      859.101
07/01/2014  22:17:00      -13.199       10.008       -2.236       32.059       26.478       13.524     1027.769      701.087      182.900        0.110        0.096       16.564       14.440        0.760      347.721       26.897      859.115
07/01/2014  22:18:00      -43.069       63.978       -8.331       36.402       30.286       22.714     1325.137      917.257      515.929        0.439        0.138       77.124       23.638        0.094      347.700       26.859      859.139
07/01/2014  22:19:00      -70.036       -0.669       -5.843       43.804       36.959       20.485     1918.756     1365.942      419.622        0.432        0.185       70.039       21.268        0.092      347.853       27.124      859.137
07/01/2014  22:20:00      -23.270       32.884       -2.365       22.581       27.247       19.744      509.899      742.401      389.816        0.164        0.082       40.285       20.503        0.259      347.704       26.866      859.151
07/01/2014  22:21:00       42.091       58.435        8.052       38.580       27.221       20.848     1488.440      740.962      434.630        0.396        0.133       72.016       18.691        0.067      347.800       27.031      859.167
07/01/2014  22:22:00       36.777       60.475      -12.833       16.870       29.163       14.050      284.588      850.502      197.407        0.325        0.067       70.780        8.454        0.014      347.722       26.897      859.167
07/01/2014  22:23:00       60.017      102.127       -7.136       22.448       34.667       25.041      503.899     1201.793      627.033        0.821        0.117      118.457       20.759        0.031      347.768       26.975      859.160
07/01/2014  22:24:00       50.814       34.831        3.182       16.654       13.149       13.095      277.354      172.885      171.488        0.221        0.031       61.606       12.529        0.041      347.797       27.026      859.171
07/01/2014  22:25:00       31.807       37.191       -1.047       17.520       14.871       16.610      306.949      221.157      275.881        0.160        0.040       48.937       12.030        0.060      347.546       26.593      859.179
07/01/2014  22:26:00       40.856       32.371       10.279       38.685       23.702       15.659     1496.559      561.768      245.214        0.256        0.115       52.126       13.636        0.068      347.457       26.439      859.178
07/01/2014  22:27:00        2.912      -21.400       -2.536        8.997       15.188        8.018       80.944      230.687       64.282        0.042        0.019       21.597        5.936        0.076      347.390       26.324      859.182
07/01/2014  22:28:00       14.252        0.371       -2.674       17.256       31.054       16.822      297.753      964.367      282.988        0.088        0.077       14.256       13.458        0.891      347.667       26.802      859.192
07/01/2014  22:29:00       -5.953       42.550        5.547       22.996       15.252       15.338      528.821      232.625      235.242        0.144        0.050       42.965        4.410        0.011      347.822       27.070      859.198
07/01/2014  22:30:00       33.661       56.128       -4.538       13.870       17.390        9.017      192.371      302.429       81.311        0.244        0.029       65.448        7.162        0.012      347.859       27.133      859.215
07/01/2014  22:31:00       56.685       58.946       19.708       22.998       17.092       17.498      528.923      292.145      306.173        0.410        0.056       81.779        8.328        0.010      347.773       26.985      859.223
07/01/2014  22:32:00        5.214       54.780       68.171       24.097       30.198       20.304      580.666      911.944      412.250        0.479        0.095       55.028       18.394        0.112      347.575       26.644      859.239
07/01/2014  22:33:00       24.823       60.567       62.022       52.037       43.590       33.233     2707.862     1900.084     1104.457        0.692        0.286       65.457       28.270        0.187      347.374       26.296      859.234
07/01/2014  22:34:00       33.726       54.926       56.467       52.185       31.273       30.162     2723.256      977.988      909.764        0.598        0.231       64.453       28.262        0.192      347.349       26.255      859.246
07/01/2014  22:35:00       41.448       93.677       87.289       46.439       48.609       40.711     2156.591     2362.864     1657.384        1.214        0.309      102.437       31.693        0.096      347.262       26.103      859.237
07/01/2014  22:36:00       43.181       74.082       75.853       40.138       37.283       29.095     1611.066     1390.000      846.506        0.848        0.192       85.748       26.482        0.095      347.300       26.168      859.234
07/01/2014  22:37:00       17.332        9.308       24.657       27.427       30.481       27.897      752.248      929.102      778.225        0.173        0.123       19.673       26.362        1.796      347.308       26.184      859.258
07/01/2014  22:38:00       24.562       41.460       46.970       28.639       22.468       19.295      820.185      504.794      372.302        0.311        0.085       48.189        9.514        0.039      347.183       25.968      859.256
07/01/2014  22:39:00       52.576       44.226       29.583       40.100       25.643       24.403     1607.994      657.560      595.506        0.423        0.143       68.704       19.591        0.081      347.190       25.980      859.271
07/01/2014  22:40:00      116.603       62.430       19.328       31.432       25.707       22.611      987.962      660.828      511.249        1.001        0.108      132.264        7.840        0.004      347.242       26.069      859.275
07/01/2014  22:41:00      113.115       65.678       32.254       39.741       43.504       35.574     1579.377     1892.569     1265.503        1.144        0.237      130.800       25.814        0.039      347.288       26.148      859.273
07/01/2014  22:42:00       10.761       75.379       89.242       40.669       44.865       45.704     1653.947     2012.850     2088.838        0.976        0.288       76.143       31.309        0.169      347.081       25.791      859.276
07/01/2014  22:43:00       12.073       62.352       87.873       37.240       30.839       22.010     1386.787      951.015      484.426        0.729        0.141       63.510       18.523        0.085      347.069       25.770      859.270
07/01/2014  22:44:00       59.625       57.274       59.004       38.187       28.904       29.847     1458.219      835.415      890.817        0.675        0.159       82.676       13.493        0.027      347.059       25.754      859.276
07/01/2014  22:45:00       97.218       75.738       55.870       35.700       27.052       29.940     1274.501      731.797      896.402        1.061        0.145      123.237       10.797        0.008      347.086       25.799      859.276
07/01/2014  22:46:00       42.966       38.071       44.214       45.536       23.817       31.038     2073.556      567.268      963.342        0.443        0.180       57.407       29.968        0.273      346.996       25.646      859.294
07/01/2014  22:47:00      -12.850        0.330       20.482       23.025       21.750       22.690      530.167      473.077      514.830        0.105        0.076       12.854       17.648        1.885      346.943       25.554      859.312
07/01/2014  22:48:00       22.528        8.210       18.557       16.402       10.318       12.646      269.025      106.452      159.931        0.073        0.027       23.978        8.873        0.137      347.089       25.805      859.315
07/01/2014  22:49:00        6.658      -14.141       -8.848       17.641       13.641        7.635      311.219      186.075       58.296        0.044        0.028       15.630        8.218        0.276      347.611       26.703      859.329
07/01/2014  22:50:00       46.705       19.584       14.475       21.439       22.403       13.338      459.619      501.900      177.913        0.196        0.057       50.645       14.298        0.080      347.920       27.238      859.331
07/01/2014  22:51:00        4.964        9.100        7.341       15.432       13.371        7.962      238.155      178.780       63.392        0.032        0.024       10.366        4.831        0.217      347.694       26.849      859.309
07/01/2014  22:52:00       23.512       24.418       27.839       31.165       23.249       22.986      971.249      540.524      528.349        0.198        0.102       33.897       17.436        0.265      347.298       26.165      859.288
07/01/2014  22:53:00       95.415       35.672       32.158       39.175       25.928       28.956     1534.646      672.245      838.445        0.723        0.152      101.865       20.292        0.040      347.133       25.881      859.266
07/01/2014  22:54:00      159.590       57.387       34.820       51.334       42.140       39.175     2635.217     1775.739     1534.709        1.796        0.297      169.594       31.896        0.035      347.043       25.726      859.233
07/01/2014  22:55:00       71.268       36.745       43.279       51.653       38.580       42.981     2668.009     1488.387     1847.377        0.715        0.300       80.183       31.959        0.159      347.007       25.664      859.209
07/01/2014  22:56:00      -33.602       51.737      -16.893       45.801       29.563       16.372     2097.747      873.964      268.031        0.366        0.162       61.691       13.687        0.049      346.966       25.595      859.248
07/01/2014  22:57:00      -79.773       29.868      -15.794       14.795       23.535       16.931      218.884      553.908      286.652        0.428        0.053       85.181       11.233        0.017      346.885       25.454      859.268
07/01/2014  22:58:00      -60.787      131.915      -16.344       34.654       58.765       19.723     1200.927     3453.334      388.993        1.320        0.252      145.246       15.827        0.012      347.391       26.326      859.271
07/01/2014  22:59:00      -38.014      157.562      -23.582       33.528       33.984       17.134     1124.149     1154.902      293.584        1.470        0.129      162.083       11.615        0.005      347.611       26.706      859.265
07/01/2014  23:00:00      -28.016       52.146        0.628       48.338       93.706       29.841     2336.545     8780.871      890.465        0.775        0.600       59.195       29.113        0.242      347.675       26.815      859.222
07/01/2014  23:01:00      -93.814      150.902      -25.836       55.971       65.244       27.476     3132.805     4256.820      754.910        2.019        0.407      177.686       16.692        0.009      347.769       26.978      859.221
07/01/2014  23:02:00      -85.181      143.507      -26.529       35.659       46.513       25.704     1271.559     2163.497      660.679        1.632        0.205      166.883       23.085        0.019      347.510       26.530      859.233
07/01/2014  23:03:00     -124.105      -16.779      -10.958       40.000       44.496       20.466     1599.974     1979.890      418.839        0.990        0.200      125.234       16.103        0.017      347.427       26.390      859.241
07/01/2014  23:04:00     -118.369      -42.570      -12.856       42.133       37.002       24.224     1775.197     1369.132      586.810        0.986        0.187      125.791       12.795        0.010      347.317       26.198      859.239
07/01/2014  23:05:00      -85.879      -27.862       -6.191       69.049       24.754       21.197     4767.789      612.739      449.311        0.701        0.291       90.285       27.265        0.091      347.207       26.009      859.229
07/01/2014  23:06:00      -88.047        4.135       -9.992       33.593       30.480       15.462     1128.497      929.051      239.067        0.508        0.115       88.144       12.306        0.019      347.240       26.067      859.223
07/01/2014  23:07:00      -52.616       21.045       -0.238       45.692       48.322       30.836     2087.796     2335.043      950.887        0.429        0.269       56.669       30.408        0.288      347.559       26.614      859.219
07/01/2014  23:08:00      -59.420       33.266       -4.256       40.507       28.618       19.210     1640.778      818.994      369.008        0.374        0.141       68.098       18.658        0.075      347.262       26.104      859.233
07/01/2014  23:09:00      -51.936       39.606        3.465       53.073       52.186       28.795     2816.713     2723.389      829.135        0.532        0.318       65.314       24.011        0.135      347.276       26.127      859.238
07/01/2014  23:10:00      -98.524      136.532      -18.871       41.680       45.286       28.473     1737.245     2050.817      810.697        1.665        0.230      168.369       22.897        0.018      347.651       26.775      859.249
07/01/2014  23:11:00      -52.151       45.998       -9.516       32.447       39.625       15.450     1052.778     1570.135      238.714        0.389        0.143       69.538       17.971        0.067      347.483       26.484      859.239
07/01/2014  23:12:00      -41.538       12.989       -4.121       29.690       33.020       19.665      881.475     1090.333      386.701        0.213        0.118       43.522       17.204        0.156      347.306       26.179      859.254
07/01/2014  23:13:00      -36.826       91.906      -21.231       34.159       21.406       14.206     1166.811      458.213      201.809        0.604        0.091       99.010       15.314        0.024      347.610       26.704      859.258
07/01/2014  23:14:00        6.307       43.057       -4.533       18.396       23.794       14.933      338.407      566.168      223.000        0.152        0.056       43.516        9.586        0.049      347.395       26.333      859.252
07/01/2014  23:15:00      -31.726       24.864      -11.440       25.088       17.328       13.318      629.410      300.248      177.368        0.143        0.055       40.308        7.786        0.037      347.478       26.476      859.247
07/01/2014  23:16:00      -46.858       18.812       -3.016       21.367       11.165       10.736      456.569      124.665      115.256        0.163        0.035       50.493       10.832        0.046      347.366       26.282      859.255
07/01/2014  23:17:00       35.101       22.738       13.659       18.356       10.108       13.784      336.929      102.168      189.998        0.128        0.031       41.822        4.598        0.012      347.268       26.114      859.256
07/01/2014  23:18:00       -8.299      -16.017        5.762       16.763       14.991        7.605      280.983      224.743       57.842        0.046        0.028       18.040        7.172        0.158      347.175       25.954      859.265
07/01/2014  23:19:00      -27.310      -36.092       -7.307       36.893       17.685        9.462     1361.096      312.761       89.538        0.193        0.088       45.260       12.807        0.080      347.130       25.874      859.280
07/01/2014  23:20:00      -26.931      -34.082       12.892       21.445       18.353       13.971      459.895      336.832      195.200        0.152        0.050       43.438       11.575        0.071      347.318       26.198      859.286
07/01/2014  23:21:00       -9.270      -83.852       -1.844       28.522       26.151       12.406      813.508      683.865      153.906        0.439        0.083       84.362        8.675        0.011      347.201       25.998      859.301
07/01/2014  23:22:00      -47.369      -84.135        1.492       37.720       43.764       21.191     1422.835     1915.246      449.064        0.656        0.189       96.553       22.243        0.053      347.085       25.798      859.318
07/01/2014  23:23:00      -54.635     -120.660       -5.508       37.343       24.996       19.607     1394.472      624.804      384.427        0.999        0.120      132.453       13.940        0.011      347.361       26.273      859.315
07/01/2014  23:24:00      -64.924     -134.279       -4.844       29.621       59.454       21.801      877.414     3534.787      475.265        1.358        0.244      149.150       18.991        0.016      347.561       26.619      859.314
07/01/2014  23:25:00      -81.982     -129.879       14.481       66.458       90.299       26.507     4416.634     8153.943      702.601        1.853        0.664      153.589       32.010        0.043      347.667       26.801      859.306
07/01/2014  23:26:00     -156.178      -16.518       -8.186       52.186       33.306       23.559     2723.369     1109.261      555.014        1.456        0.219      157.049       26.649        0.029      347.121       25.860      859.321
07/01/2014  23:27:00     -149.793       20.332      -12.694       57.612       36.675       19.687     3319.117     1345.042      387.577        1.403        0.253      151.166       24.892        0.027      346.892       25.465      859.320
07/01/2014  23:28:00     -194.172      -40.043      -17.654       61.359       42.223       32.390     3764.869     1782.791     1049.127        2.311        0.330      198.258       34.407        0.030      346.771       25.255      859.311
07/01/2014  23:29:00     -194.783      -34.852      -10.215       58.986       46.458       34.547     3479.321     2158.364     1193.485        2.304        0.342      197.877       36.227        0.034      346.899       25.476      859.312
07/01/2014  23:30:00     -175.683      -16.006      -18.889       32.758       31.124       26.905     1073.095      968.715      723.870        1.712        0.138      176.410       21.822        0.015      346.839       25.374      859.303
07/01/2014  23:31:00     -169.782      -42.066      -17.259       35.073       34.931       21.728     1230.117     1220.208      472.088        1.691        0.146      174.915       16.625        0.009      346.766       25.249      859.303
07/01/2014  23:32:00     -131.805        3.955       -5.129       78.141       42.745       27.564     6106.091     1827.151      759.768        1.305        0.435      131.865       35.414        0.072      346.599       24.962      859.301
07/01/2014  23:33:00     -227.372       34.513      -14.111       36.098       30.809       19.511     1303.098      949.209      380.678        2.786        0.132      229.976       19.317        0.007      346.732       25.188      859.303
07/01/2014  23:34:00     -256.198        2.791      -31.425       40.555       43.129       25.050     1644.684     1860.111      627.525        3.538        0.207      256.213       19.677        0.006      346.740       25.200      859.318
07/01/2014  23:35:00     -111.360       26.907       -9.086       40.454       56.787       32.882     1636.523     3224.803     1081.237        0.957        0.297      114.565       23.130        0.041      346.589       24.943      859.317
07/01/2014  23:36:00     -214.199      -81.414      -29.129       69.698       81.245       43.538     4857.792     6600.826     1895.591        3.335        0.668      229.149       43.478        0.036      346.582       24.929      859.308
07/01/2014  23:37:00     -194.340       -4.600      -14.665      101.023       46.045       39.045    10205.636     2120.180     1524.487        2.592        0.693      194.395       46.172        0.056      346.607       24.975      859.299
07/01/2014  23:38:00     -133.921      -35.791       -3.957       35.461       56.252       30.308     1257.460     3164.246      918.587        1.228        0.267      138.621       19.742        0.020      346.487       24.768      859.301
07/01/2014  23:39:00     -186.925      -30.797      -16.669       54.624       40.524       30.027     2983.823     1642.222      901.612        2.085        0.276      189.445       23.551        0.015      346.436       24.681      859.313
07/01/2014  23:40:00     -122.543      -33.103       -3.348       42.075       39.522       31.869     1770.316     1561.996     1015.635        1.024        0.217      126.936       18.178        0.021      346.531       24.845      859.316
07/01/2014  23:41:00      -87.566      -24.490        2.433       47.388       47.708       32.097     2245.648     2276.025     1030.208        0.691        0.278       90.927       24.227        0.071      346.547       24.872      859.322
07/01/2014  23:42:00      -89.078       16.212       -5.123       49.920       34.564       26.918     2492.036     1194.656      724.552        0.632        0.221       90.541       25.526        0.079      346.455       24.714      859.342
07/01/2014  23:43:00      -51.641       25.486      -13.089       39.284       40.381       20.921     1543.215     1630.586      437.708        0.355        0.181       57.587       17.514        0.092      346.565       24.905      859.317
07/01/2014  23:44:00     -131.705      -63.831       -4.380       26.484       25.129       15.688      701.413      631.492      246.124        1.151        0.079      146.358        6.448        0.002      346.426       24.665      859.312
07/01/2014  23:45:00     -127.075      -24.227      -18.995       26.069       37.940       15.060      679.611     1439.464      226.795        0.972        0.117      129.364        9.356        0.005      346.396       24.614      859.320
07/01/2014  23:46:00     -172.256      -18.719      -18.845       32.251       40.549       24.006     1040.155     1644.183      576.284        1.682        0.163      173.271       21.386        0.015      346.392       24.608      859.343
07/01/2014  23:47:00     -156.171      -42.018       -3.597       43.002       39.627       27.300     1849.187     1570.330      745.291        1.517        0.208      161.724       20.753        0.016      346.250       24.361      859.350
07/01/2014  23:48:00      -73.947       16.943        3.425       53.195       50.389       25.288     2829.724     2539.006      639.473        0.589        0.300       75.863       24.909        0.108      346.306       24.459      859.321
07/01/2014  23:49:00       -9.067       94.731       -6.050       32.949       33.649       19.142     1085.631     1132.257      366.403        0.584        0.129       95.164        9.539        0.010      346.601       24.967      859.274
07/01/2014  23:50:00      -74.747       84.851      -11.429       54.509       56.630       26.152     2971.270     3206.902      683.943        0.989        0.343      113.079       17.538        0.024      346.584       24.937      859.292
07/01/2014  23:51:00        5.408       19.714        5.094       25.074       37.182       15.965      628.721     1382.486      254.891        0.135        0.113       20.442       16.620        0.661      346.526       24.838      859.308
07/01/2014  23:52:00      -66.914      -31.547       -3.150       34.826       22.278       14.470     1212.837      496.318      209.378        0.370        0.096       73.978       14.237        0.037      346.347       24.529      859.330
07/01/2014  23:53:00       -8.000      -23.482        7.861       22.284       17.280       12.997      496.561      298.609      168.914        0.082        0.048       24.808       12.602        0.258      346.293       24.435      859.347
07/01/2014  23:54:00      -85.902       30.832      -18.020       20.739       42.994       19.774      430.104     1848.472      391.013        0.566        0.133       91.267       23.503        0.066      346.538       24.857      859.360
07/01/2014  23:55:00      -95.335       66.183      -23.298       27.255       41.361       22.788      742.848     1710.768      519.297        0.849        0.149      116.056       24.788        0.046      346.548       24.872      859.371
07/01/2014  23:56:00      -32.299      -17.221       -0.477       20.155       12.776       11.322      406.204      163.224      128.184        0.102        0.035       36.603        6.419        0.031      346.416       24.647      859.386
07/01/2014  23:57:00      -65.259      -29.607        0.107       23.344       17.461        9.731      544.937      304.892       94.684        0.304        0.047       71.661        9.121        0.016      346.405       24.628      859.410
07/01/2014  23:58:00      -46.433      -41.920       -5.148       23.523       14.672       12.459      553.309      215.278      155.228        0.243        0.046       62.557        9.008        0.021      346.400       24.620      859.428
07/01/2014  23:59:00      -21.963      -33.563       10.144       48.634       37.861       20.698     2365.246     1433.458      428.407        0.297        0.211       40.110       20.361        0.258      346.561       24.896      859.445
